<?xml version="1.0" encoding="UTF-8" standalone="no" ?>
<gpx xmlns="http://www.topografix.com/GPX/1/1" xmlns:xsi="http://www.w3.org/2001/XMLSchema-instance" xsi:schemaLocation="http://www.topografix.com/GPX/1/1 http://www.topografix.com/GPX/1/1/gpx.xsd" version="1.1" creator="VisuGPX - https://www.visugpx.com">
  <metadata>
    <name>Marche nordique</name>
    <desc><![CDATA[Sous un ciel un peu chargé, mais sans la pluie]]></desc>
  </metadata>
  <trk>
    <name><![CDATA[02/11/2013 7:55]]></name>
    <desc><![CDATA[]]></desc>
    <trkseg>
      <trkpt lat="47.31845" lon="4.92735">
        <ele>277</ele>
        <time>2013-11-02T06:56:38.765Z</time>
      </trkpt>
      <trkpt lat="47.31852" lon="4.92695">
        <ele>272</ele>
        <time>2013-11-02T06:56:41.453Z</time>
      </trkpt>
      <trkpt lat="47.31852" lon="4.92689">
        <ele>272</ele>
        <time>2013-11-02T06:56:43.472Z</time>
      </trkpt>
      <trkpt lat="47.31854" lon="4.92682">
        <ele>272</ele>
        <time>2013-11-02T06:56:46.453Z</time>
      </trkpt>
      <trkpt lat="47.31854" lon="4.92689">
        <ele>272</ele>
        <time>2013-11-02T06:56:50.459Z</time>
      </trkpt>
      <trkpt lat="47.31852" lon="4.92697">
        <ele>272</ele>
        <time>2013-11-02T06:56:53.462Z</time>
      </trkpt>
      <trkpt lat="47.3185" lon="4.92706">
        <ele>273</ele>
        <time>2013-11-02T06:56:55.496Z</time>
      </trkpt>
      <trkpt lat="47.31848" lon="4.92716">
        <ele>274</ele>
        <time>2013-11-02T06:56:58.451Z</time>
      </trkpt>
      <trkpt lat="47.31846" lon="4.92722">
        <ele>275</ele>
        <time>2013-11-02T06:57:01.460Z</time>
      </trkpt>
      <trkpt lat="47.31845" lon="4.92728">
        <ele>276</ele>
        <time>2013-11-02T06:57:04.451Z</time>
      </trkpt>
      <trkpt lat="47.31844" lon="4.92738">
        <ele>278</ele>
        <time>2013-11-02T06:57:07.456Z</time>
      </trkpt>
      <trkpt lat="47.31843" lon="4.92745">
        <ele>280</ele>
        <time>2013-11-02T06:57:10.433Z</time>
      </trkpt>
      <trkpt lat="47.31843" lon="4.92737">
        <ele>278</ele>
        <time>2013-11-02T06:57:12.453Z</time>
      </trkpt>
      <trkpt lat="47.31843" lon="4.92729">
        <ele>276</ele>
        <time>2013-11-02T06:57:15.483Z</time>
      </trkpt>
      <trkpt lat="47.31844" lon="4.92728">
        <ele>276</ele>
        <time>2013-11-02T06:57:20.448Z</time>
      </trkpt>
      <trkpt lat="47.31844" lon="4.92728">
        <ele>276</ele>
        <time>2013-11-02T06:57:22.458Z</time>
      </trkpt>
      <trkpt lat="47.31844" lon="4.92728">
        <ele>276</ele>
        <time>2013-11-02T06:57:22.543Z</time>
      </trkpt>
      <trkpt lat="47.31843" lon="4.92713">
        <ele>274</ele>
        <time>2013-11-02T06:57:25.473Z</time>
      </trkpt>
      <trkpt lat="47.31844" lon="4.92704">
        <ele>273</ele>
        <time>2013-11-02T06:57:30.447Z</time>
      </trkpt>
      <trkpt lat="47.31845" lon="4.92692">
        <ele>273</ele>
        <time>2013-11-02T06:57:33.440Z</time>
      </trkpt>
      <trkpt lat="47.31846" lon="4.92691">
        <ele>273</ele>
        <time>2013-11-02T06:57:37.462Z</time>
      </trkpt>
      <trkpt lat="47.31846" lon="4.92692">
        <ele>273</ele>
        <time>2013-11-02T06:57:40.440Z</time>
      </trkpt>
      <trkpt lat="47.31845" lon="4.92693">
        <ele>273</ele>
        <time>2013-11-02T06:57:50.447Z</time>
      </trkpt>
      <trkpt lat="47.31847" lon="4.92693">
        <ele>273</ele>
        <time>2013-11-02T06:57:52.453Z</time>
      </trkpt>
      <trkpt lat="47.31853" lon="4.92686">
        <ele>272</ele>
        <time>2013-11-02T06:58:02.448Z</time>
      </trkpt>
      <trkpt lat="47.31852" lon="4.92687">
        <ele>272</ele>
        <time>2013-11-02T06:58:05.454Z</time>
      </trkpt>
      <trkpt lat="47.31852" lon="4.92687">
        <ele>272</ele>
        <time>2013-11-02T06:58:10.442Z</time>
      </trkpt>
      <trkpt lat="47.31857" lon="4.92674">
        <ele>272</ele>
        <time>2013-11-02T06:58:13.473Z</time>
      </trkpt>
      <trkpt lat="47.31861" lon="4.92665">
        <ele>270</ele>
        <time>2013-11-02T06:58:15.480Z</time>
      </trkpt>
      <trkpt lat="47.31863" lon="4.92661">
        <ele>270</ele>
        <time>2013-11-02T06:58:18.455Z</time>
      </trkpt>
      <trkpt lat="47.31862" lon="4.92663">
        <ele>270</ele>
        <time>2013-11-02T06:58:21.446Z</time>
      </trkpt>
      <trkpt lat="47.31861" lon="4.92664">
        <ele>270</ele>
        <time>2013-11-02T06:58:23.445Z</time>
      </trkpt>
      <trkpt lat="47.31862" lon="4.92662">
        <ele>270</ele>
        <time>2013-11-02T06:58:25.472Z</time>
      </trkpt>
      <trkpt lat="47.31864" lon="4.92656">
        <ele>270</ele>
        <time>2013-11-02T06:58:31.470Z</time>
      </trkpt>
      <trkpt lat="47.31864" lon="4.92656">
        <ele>270</ele>
        <time>2013-11-02T06:58:34.480Z</time>
      </trkpt>
      <trkpt lat="47.31864" lon="4.92657">
        <ele>270</ele>
        <time>2013-11-02T06:59:07.358Z</time>
      </trkpt>
      <trkpt lat="47.31862" lon="4.92658">
        <ele>270</ele>
        <time>2013-11-02T06:59:10.457Z</time>
      </trkpt>
      <trkpt lat="47.31861" lon="4.9266">
        <ele>270</ele>
        <time>2013-11-02T06:59:13.466Z</time>
      </trkpt>
      <trkpt lat="47.31861" lon="4.9266">
        <ele>270</ele>
        <time>2013-11-02T06:59:16.354Z</time>
      </trkpt>
      <trkpt lat="47.31861" lon="4.92659">
        <ele>270</ele>
        <time>2013-11-02T07:00:05.348Z</time>
      </trkpt>
      <trkpt lat="47.31861" lon="4.92659">
        <ele>270</ele>
        <time>2013-11-02T07:00:07.355Z</time>
      </trkpt>
      <trkpt lat="47.3186" lon="4.92658">
        <ele>270</ele>
        <time>2013-11-02T07:00:09.360Z</time>
      </trkpt>
      <trkpt lat="47.3186" lon="4.92658">
        <ele>270</ele>
        <time>2013-11-02T07:00:11.363Z</time>
      </trkpt>
      <trkpt lat="47.3186" lon="4.92658">
        <ele>270</ele>
        <time>2013-11-02T07:03:10.354Z</time>
      </trkpt>
      <trkpt lat="47.31862" lon="4.92665">
        <ele>270</ele>
        <time>2013-11-02T07:03:13.349Z</time>
      </trkpt>
      <trkpt lat="47.31862" lon="4.92665">
        <ele>270</ele>
        <time>2013-11-02T07:03:15.367Z</time>
      </trkpt>
      <trkpt lat="47.31862" lon="4.92665">
        <ele>270</ele>
        <time>2013-11-02T07:03:18.351Z</time>
      </trkpt>
      <trkpt lat="47.31862" lon="4.92664">
        <ele>270</ele>
        <time>2013-11-02T07:04:17.373Z</time>
      </trkpt>
      <trkpt lat="47.31862" lon="4.92661">
        <ele>270</ele>
        <time>2013-11-02T07:04:20.370Z</time>
      </trkpt>
      <trkpt lat="47.31862" lon="4.92656">
        <ele>270</ele>
        <time>2013-11-02T07:04:25.379Z</time>
      </trkpt>
      <trkpt lat="47.31862" lon="4.92657">
        <ele>270</ele>
        <time>2013-11-02T07:04:28.358Z</time>
      </trkpt>
      <trkpt lat="47.31862" lon="4.92657">
        <ele>270</ele>
        <time>2013-11-02T07:10:17.384Z</time>
      </trkpt>
      <trkpt lat="47.31858" lon="4.92654">
        <ele>270</ele>
        <time>2013-11-02T07:10:20.425Z</time>
      </trkpt>
      <trkpt lat="47.31858" lon="4.92654">
        <ele>270</ele>
        <time>2013-11-02T07:10:23.333Z</time>
      </trkpt>
      <trkpt lat="47.31858" lon="4.92654">
        <ele>270</ele>
        <time>2013-11-02T07:15:20.420Z</time>
      </trkpt>
      <trkpt lat="47.31857" lon="4.92656">
        <ele>271</ele>
        <time>2013-11-02T07:15:23.373Z</time>
      </trkpt>
      <trkpt lat="47.3185" lon="4.92663">
        <ele>272</ele>
        <time>2013-11-02T07:15:32.394Z</time>
      </trkpt>
      <trkpt lat="47.31848" lon="4.92665">
        <ele>272</ele>
        <time>2013-11-02T07:15:35.355Z</time>
      </trkpt>
      <trkpt lat="47.3184" lon="4.92668">
        <ele>274</ele>
        <time>2013-11-02T07:15:45.365Z</time>
      </trkpt>
      <trkpt lat="47.31839" lon="4.92668">
        <ele>274</ele>
        <time>2013-11-02T07:15:47.378Z</time>
      </trkpt>
      <trkpt lat="47.31839" lon="4.92668">
        <ele>274</ele>
        <time>2013-11-02T07:15:50.386Z</time>
      </trkpt>
      <trkpt lat="47.31835" lon="4.92667">
        <ele>275</ele>
        <time>2013-11-02T07:15:53.385Z</time>
      </trkpt>
      <trkpt lat="47.31827" lon="4.92666">
        <ele>278</ele>
        <time>2013-11-02T07:15:59.374Z</time>
      </trkpt>
      <trkpt lat="47.31824" lon="4.92667">
        <ele>279</ele>
        <time>2013-11-02T07:16:02.368Z</time>
      </trkpt>
      <trkpt lat="47.31818" lon="4.92671">
        <ele>281</ele>
        <time>2013-11-02T07:16:09.369Z</time>
      </trkpt>
      <trkpt lat="47.31816" lon="4.92673">
        <ele>281</ele>
        <time>2013-11-02T07:16:11.359Z</time>
      </trkpt>
      <trkpt lat="47.31808" lon="4.92678">
        <ele>283</ele>
        <time>2013-11-02T07:16:19.371Z</time>
      </trkpt>
      <trkpt lat="47.31807" lon="4.92679">
        <ele>284</ele>
        <time>2013-11-02T07:16:21.384Z</time>
      </trkpt>
      <trkpt lat="47.31798" lon="4.92681">
        <ele>285</ele>
        <time>2013-11-02T07:16:30.365Z</time>
      </trkpt>
      <trkpt lat="47.31797" lon="4.92682">
        <ele>285</ele>
        <time>2013-11-02T07:16:32.382Z</time>
      </trkpt>
      <trkpt lat="47.31788" lon="4.92685">
        <ele>287</ele>
        <time>2013-11-02T07:16:43.371Z</time>
      </trkpt>
      <trkpt lat="47.31786" lon="4.92686">
        <ele>287</ele>
        <time>2013-11-02T07:16:45.383Z</time>
      </trkpt>
      <trkpt lat="47.3178" lon="4.92691">
        <ele>288</ele>
        <time>2013-11-02T07:16:51.361Z</time>
      </trkpt>
      <trkpt lat="47.31778" lon="4.92692">
        <ele>288</ele>
        <time>2013-11-02T07:16:53.361Z</time>
      </trkpt>
      <trkpt lat="47.3177" lon="4.92694">
        <ele>288</ele>
        <time>2013-11-02T07:17:04.354Z</time>
      </trkpt>
      <trkpt lat="47.31771" lon="4.92694">
        <ele>288</ele>
        <time>2013-11-02T07:17:07.351Z</time>
      </trkpt>
      <trkpt lat="47.31771" lon="4.92694">
        <ele>288</ele>
        <time>2013-11-02T07:17:09.359Z</time>
      </trkpt>
      <trkpt lat="47.31768" lon="4.92702">
        <ele>289</ele>
        <time>2013-11-02T07:17:12.345Z</time>
      </trkpt>
      <trkpt lat="47.3176" lon="4.92704">
        <ele>289</ele>
        <time>2013-11-02T07:17:18.358Z</time>
      </trkpt>
      <trkpt lat="47.31757" lon="4.92703">
        <ele>289</ele>
        <time>2013-11-02T07:17:20.385Z</time>
      </trkpt>
      <trkpt lat="47.31749" lon="4.92703">
        <ele>296</ele>
        <time>2013-11-02T07:17:29.369Z</time>
      </trkpt>
      <trkpt lat="47.31748" lon="4.92704">
        <ele>296</ele>
        <time>2013-11-02T07:17:31.411Z</time>
      </trkpt>
      <trkpt lat="47.31741" lon="4.927">
        <ele>296</ele>
        <time>2013-11-02T07:17:41.355Z</time>
      </trkpt>
      <trkpt lat="47.31736" lon="4.92702">
        <ele>296</ele>
        <time>2013-11-02T07:17:44.354Z</time>
      </trkpt>
      <trkpt lat="47.31728" lon="4.92704">
        <ele>296</ele>
        <time>2013-11-02T07:17:48.383Z</time>
      </trkpt>
      <trkpt lat="47.31722" lon="4.92706">
        <ele>296</ele>
        <time>2013-11-02T07:17:51.364Z</time>
      </trkpt>
      <trkpt lat="47.31716" lon="4.92708">
        <ele>296</ele>
        <time>2013-11-02T07:17:55.378Z</time>
      </trkpt>
      <trkpt lat="47.31713" lon="4.9271">
        <ele>297</ele>
        <time>2013-11-02T07:17:57.378Z</time>
      </trkpt>
      <trkpt lat="47.31707" lon="4.92712">
        <ele>297</ele>
        <time>2013-11-02T07:18:02.363Z</time>
      </trkpt>
      <trkpt lat="47.31704" lon="4.92715">
        <ele>297</ele>
        <time>2013-11-02T07:18:05.359Z</time>
      </trkpt>
      <trkpt lat="47.31702" lon="4.92716">
        <ele>297</ele>
        <time>2013-11-02T07:18:08.367Z</time>
      </trkpt>
      <trkpt lat="47.31702" lon="4.92716">
        <ele>297</ele>
        <time>2013-11-02T07:18:11.353Z</time>
      </trkpt>
      <trkpt lat="47.31702" lon="4.92716">
        <ele>297</ele>
        <time>2013-11-02T07:18:15.390Z</time>
      </trkpt>
      <trkpt lat="47.31697" lon="4.9272">
        <ele>297</ele>
        <time>2013-11-02T07:18:18.373Z</time>
      </trkpt>
      <trkpt lat="47.31692" lon="4.92724">
        <ele>297</ele>
        <time>2013-11-02T07:18:25.393Z</time>
      </trkpt>
      <trkpt lat="47.31689" lon="4.92729">
        <ele>297</ele>
        <time>2013-11-02T07:18:28.377Z</time>
      </trkpt>
      <trkpt lat="47.31684" lon="4.92735">
        <ele>297</ele>
        <time>2013-11-02T07:18:35.360Z</time>
      </trkpt>
      <trkpt lat="47.31684" lon="4.92734">
        <ele>297</ele>
        <time>2013-11-02T07:18:38.364Z</time>
      </trkpt>
      <trkpt lat="47.3168" lon="4.9274">
        <ele>297</ele>
        <time>2013-11-02T07:18:40.382Z</time>
      </trkpt>
      <trkpt lat="47.31675" lon="4.92749">
        <ele>297</ele>
        <time>2013-11-02T07:18:45.404Z</time>
      </trkpt>
      <trkpt lat="47.31672" lon="4.92753">
        <ele>299</ele>
        <time>2013-11-02T07:18:48.371Z</time>
      </trkpt>
      <trkpt lat="47.31666" lon="4.92762">
        <ele>302</ele>
        <time>2013-11-02T07:18:53.385Z</time>
      </trkpt>
      <trkpt lat="47.31663" lon="4.92766">
        <ele>304</ele>
        <time>2013-11-02T07:18:56.380Z</time>
      </trkpt>
      <trkpt lat="47.31658" lon="4.92776">
        <ele>306</ele>
        <time>2013-11-02T07:19:02.364Z</time>
      </trkpt>
      <trkpt lat="47.31657" lon="4.92784">
        <ele>308</ele>
        <time>2013-11-02T07:19:05.356Z</time>
      </trkpt>
      <trkpt lat="47.31655" lon="4.92791">
        <ele>309</ele>
        <time>2013-11-02T07:19:10.357Z</time>
      </trkpt>
      <trkpt lat="47.31654" lon="4.92797">
        <ele>310</ele>
        <time>2013-11-02T07:19:13.352Z</time>
      </trkpt>
      <trkpt lat="47.31651" lon="4.92806">
        <ele>311</ele>
        <time>2013-11-02T07:19:20.375Z</time>
      </trkpt>
      <trkpt lat="47.31649" lon="4.92812">
        <ele>311</ele>
        <time>2013-11-02T07:19:23.368Z</time>
      </trkpt>
      <trkpt lat="47.31646" lon="4.92823">
        <ele>312</ele>
        <time>2013-11-02T07:19:33.385Z</time>
      </trkpt>
      <trkpt lat="47.31646" lon="4.92822">
        <ele>312</ele>
        <time>2013-11-02T07:19:36.366Z</time>
      </trkpt>
      <trkpt lat="47.31646" lon="4.92829">
        <ele>312</ele>
        <time>2013-11-02T07:19:39.345Z</time>
      </trkpt>
      <trkpt lat="47.31644" lon="4.92832">
        <ele>312</ele>
        <time>2013-11-02T07:19:43.373Z</time>
      </trkpt>
      <trkpt lat="47.31644" lon="4.92832">
        <ele>312</ele>
        <time>2013-11-02T07:19:45.383Z</time>
      </trkpt>
      <trkpt lat="47.31645" lon="4.92831">
        <ele>312</ele>
        <time>2013-11-02T07:19:48.371Z</time>
      </trkpt>
      <trkpt lat="47.31638" lon="4.92835">
        <ele>320</ele>
        <time>2013-11-02T07:19:51.361Z</time>
      </trkpt>
      <trkpt lat="47.31637" lon="4.92836">
        <ele>320</ele>
        <time>2013-11-02T07:19:53.367Z</time>
      </trkpt>
      <trkpt lat="47.31637" lon="4.92835">
        <ele>320</ele>
        <time>2013-11-02T07:19:56.378Z</time>
      </trkpt>
      <trkpt lat="47.31634" lon="4.92839">
        <ele>321</ele>
        <time>2013-11-02T07:19:59.366Z</time>
      </trkpt>
      <trkpt lat="47.31633" lon="4.92842">
        <ele>321</ele>
        <time>2013-11-02T07:20:01.371Z</time>
      </trkpt>
      <trkpt lat="47.31633" lon="4.92842">
        <ele>321</ele>
        <time>2013-11-02T07:20:04.358Z</time>
      </trkpt>
      <trkpt lat="47.31634" lon="4.92842">
        <ele>321</ele>
        <time>2013-11-02T07:20:06.361Z</time>
      </trkpt>
      <trkpt lat="47.31631" lon="4.92848">
        <ele>322</ele>
        <time>2013-11-02T07:20:09.368Z</time>
      </trkpt>
      <trkpt lat="47.31626" lon="4.92854">
        <ele>322</ele>
        <time>2013-11-02T07:20:16.364Z</time>
      </trkpt>
      <trkpt lat="47.31624" lon="4.92856">
        <ele>323</ele>
        <time>2013-11-02T07:20:18.367Z</time>
      </trkpt>
      <trkpt lat="47.31618" lon="4.92864">
        <ele>323</ele>
        <time>2013-11-02T07:20:28.379Z</time>
      </trkpt>
      <trkpt lat="47.31616" lon="4.92869">
        <ele>324</ele>
        <time>2013-11-02T07:20:31.366Z</time>
      </trkpt>
      <trkpt lat="47.31612" lon="4.92879">
        <ele>325</ele>
        <time>2013-11-02T07:20:40.365Z</time>
      </trkpt>
      <trkpt lat="47.31611" lon="4.92883">
        <ele>325</ele>
        <time>2013-11-02T07:20:43.359Z</time>
      </trkpt>
      <trkpt lat="47.31608" lon="4.92889">
        <ele>325</ele>
        <time>2013-11-02T07:20:48.390Z</time>
      </trkpt>
      <trkpt lat="47.31604" lon="4.92892">
        <ele>325</ele>
        <time>2013-11-02T07:20:51.380Z</time>
      </trkpt>
      <trkpt lat="47.31597" lon="4.929">
        <ele>326</ele>
        <time>2013-11-02T07:20:59.372Z</time>
      </trkpt>
      <trkpt lat="47.31597" lon="4.92899">
        <ele>326</ele>
        <time>2013-11-02T07:21:02.360Z</time>
      </trkpt>
      <trkpt lat="47.31593" lon="4.92904">
        <ele>326</ele>
        <time>2013-11-02T07:21:04.369Z</time>
      </trkpt>
      <trkpt lat="47.31586" lon="4.92908">
        <ele>326</ele>
        <time>2013-11-02T07:21:11.361Z</time>
      </trkpt>
      <trkpt lat="47.31585" lon="4.92911">
        <ele>327</ele>
        <time>2013-11-02T07:21:13.373Z</time>
      </trkpt>
      <trkpt lat="47.31578" lon="4.92917">
        <ele>330</ele>
        <time>2013-11-02T07:21:20.367Z</time>
      </trkpt>
      <trkpt lat="47.31576" lon="4.92919">
        <ele>331</ele>
        <time>2013-11-02T07:21:23.362Z</time>
      </trkpt>
      <trkpt lat="47.31573" lon="4.92928">
        <ele>333</ele>
        <time>2013-11-02T07:21:28.377Z</time>
      </trkpt>
      <trkpt lat="47.3157" lon="4.92931">
        <ele>334</ele>
        <time>2013-11-02T07:21:30.386Z</time>
      </trkpt>
      <trkpt lat="47.31562" lon="4.92938">
        <ele>336</ele>
        <time>2013-11-02T07:21:36.403Z</time>
      </trkpt>
      <trkpt lat="47.3156" lon="4.92941">
        <ele>337</ele>
        <time>2013-11-02T07:21:39.354Z</time>
      </trkpt>
      <trkpt lat="47.31555" lon="4.92948">
        <ele>338</ele>
        <time>2013-11-02T07:21:47.373Z</time>
      </trkpt>
      <trkpt lat="47.31554" lon="4.92951">
        <ele>338</ele>
        <time>2013-11-02T07:21:50.372Z</time>
      </trkpt>
      <trkpt lat="47.31554" lon="4.92951">
        <ele>338</ele>
        <time>2013-11-02T07:21:53.369Z</time>
      </trkpt>
      <trkpt lat="47.31549" lon="4.92955">
        <ele>338</ele>
        <time>2013-11-02T07:21:56.378Z</time>
      </trkpt>
      <trkpt lat="47.31543" lon="4.92959">
        <ele>339</ele>
        <time>2013-11-02T07:22:04.355Z</time>
      </trkpt>
      <trkpt lat="47.31543" lon="4.9296">
        <ele>339</ele>
        <time>2013-11-02T07:22:07.360Z</time>
      </trkpt>
      <trkpt lat="47.3154" lon="4.92963">
        <ele>339</ele>
        <time>2013-11-02T07:22:09.360Z</time>
      </trkpt>
      <trkpt lat="47.31534" lon="4.92969">
        <ele>340</ele>
        <time>2013-11-02T07:22:12.358Z</time>
      </trkpt>
      <trkpt lat="47.31531" lon="4.92975">
        <ele>340</ele>
        <time>2013-11-02T07:22:15.339Z</time>
      </trkpt>
      <trkpt lat="47.31527" lon="4.92982">
        <ele>340</ele>
        <time>2013-11-02T07:22:19.355Z</time>
      </trkpt>
      <trkpt lat="47.31526" lon="4.92987">
        <ele>340</ele>
        <time>2013-11-02T07:22:22.347Z</time>
      </trkpt>
      <trkpt lat="47.31522" lon="4.92996">
        <ele>340</ele>
        <time>2013-11-02T07:22:29.345Z</time>
      </trkpt>
      <trkpt lat="47.31521" lon="4.92999">
        <ele>340</ele>
        <time>2013-11-02T07:22:31.345Z</time>
      </trkpt>
      <trkpt lat="47.31518" lon="4.9301">
        <ele>345</ele>
        <time>2013-11-02T07:22:41.349Z</time>
      </trkpt>
      <trkpt lat="47.31517" lon="4.93013">
        <ele>345</ele>
        <time>2013-11-02T07:22:43.350Z</time>
      </trkpt>
      <trkpt lat="47.31513" lon="4.93023">
        <ele>346</ele>
        <time>2013-11-02T07:22:55.341Z</time>
      </trkpt>
      <trkpt lat="47.31509" lon="4.93028">
        <ele>346</ele>
        <time>2013-11-02T07:22:57.351Z</time>
      </trkpt>
      <trkpt lat="47.31504" lon="4.93035">
        <ele>347</ele>
        <time>2013-11-02T07:23:02.356Z</time>
      </trkpt>
      <trkpt lat="47.31501" lon="4.93038">
        <ele>347</ele>
        <time>2013-11-02T07:23:05.349Z</time>
      </trkpt>
      <trkpt lat="47.31497" lon="4.93049">
        <ele>352</ele>
        <time>2013-11-02T07:23:11.336Z</time>
      </trkpt>
      <trkpt lat="47.31497" lon="4.93052">
        <ele>352</ele>
        <time>2013-11-02T07:23:13.348Z</time>
      </trkpt>
      <trkpt lat="47.31496" lon="4.93063">
        <ele>351</ele>
        <time>2013-11-02T07:23:20.393Z</time>
      </trkpt>
      <trkpt lat="47.31495" lon="4.93067">
        <ele>351</ele>
        <time>2013-11-02T07:23:23.356Z</time>
      </trkpt>
      <trkpt lat="47.31494" lon="4.93079">
        <ele>350</ele>
        <time>2013-11-02T07:23:31.344Z</time>
      </trkpt>
      <trkpt lat="47.31493" lon="4.93083">
        <ele>350</ele>
        <time>2013-11-02T07:23:33.344Z</time>
      </trkpt>
      <trkpt lat="47.31492" lon="4.93095">
        <ele>353</ele>
        <time>2013-11-02T07:23:40.363Z</time>
      </trkpt>
      <trkpt lat="47.31491" lon="4.931">
        <ele>354</ele>
        <time>2013-11-02T07:23:43.349Z</time>
      </trkpt>
      <trkpt lat="47.3149" lon="4.93111">
        <ele>356</ele>
        <time>2013-11-02T07:23:48.352Z</time>
      </trkpt>
      <trkpt lat="47.3149" lon="4.93115">
        <ele>357</ele>
        <time>2013-11-02T07:23:50.360Z</time>
      </trkpt>
      <trkpt lat="47.31487" lon="4.93126">
        <ele>358</ele>
        <time>2013-11-02T07:23:57.368Z</time>
      </trkpt>
      <trkpt lat="47.31487" lon="4.93132">
        <ele>358</ele>
        <time>2013-11-02T07:24:00.354Z</time>
      </trkpt>
      <trkpt lat="47.31487" lon="4.93138">
        <ele>359</ele>
        <time>2013-11-02T07:24:07.341Z</time>
      </trkpt>
      <trkpt lat="47.31487" lon="4.93137">
        <ele>359</ele>
        <time>2013-11-02T07:24:09.346Z</time>
      </trkpt>
      <trkpt lat="47.31485" lon="4.93142">
        <ele>359</ele>
        <time>2013-11-02T07:24:11.348Z</time>
      </trkpt>
      <trkpt lat="47.31483" lon="4.93154">
        <ele>360</ele>
        <time>2013-11-02T07:24:22.356Z</time>
      </trkpt>
      <trkpt lat="47.31482" lon="4.93156">
        <ele>360</ele>
        <time>2013-11-02T07:24:23.344Z</time>
      </trkpt>
      <trkpt lat="47.31478" lon="4.93165">
        <ele>360</ele>
        <time>2013-11-02T07:24:28.352Z</time>
      </trkpt>
      <trkpt lat="47.31477" lon="4.93169">
        <ele>364</ele>
        <time>2013-11-02T07:24:31.346Z</time>
      </trkpt>
      <trkpt lat="47.31476" lon="4.93181">
        <ele>365</ele>
        <time>2013-11-02T07:24:38.359Z</time>
      </trkpt>
      <trkpt lat="47.31476" lon="4.93188">
        <ele>366</ele>
        <time>2013-11-02T07:24:41.341Z</time>
      </trkpt>
      <trkpt lat="47.31474" lon="4.93196">
        <ele>366</ele>
        <time>2013-11-02T07:24:44.351Z</time>
      </trkpt>
      <trkpt lat="47.31469" lon="4.93201">
        <ele>367</ele>
        <time>2013-11-02T07:24:47.363Z</time>
      </trkpt>
      <trkpt lat="47.31463" lon="4.93207">
        <ele>367</ele>
        <time>2013-11-02T07:24:54.368Z</time>
      </trkpt>
      <trkpt lat="47.31462" lon="4.93211">
        <ele>368</ele>
        <time>2013-11-02T07:24:56.387Z</time>
      </trkpt>
      <trkpt lat="47.31457" lon="4.93221">
        <ele>368</ele>
        <time>2013-11-02T07:25:02.357Z</time>
      </trkpt>
      <trkpt lat="47.31454" lon="4.9322">
        <ele>368</ele>
        <time>2013-11-02T07:25:05.343Z</time>
      </trkpt>
      <trkpt lat="47.31452" lon="4.93221">
        <ele>368</ele>
        <time>2013-11-02T07:25:10.342Z</time>
      </trkpt>
      <trkpt lat="47.31452" lon="4.93221">
        <ele>368</ele>
        <time>2013-11-02T07:25:12.352Z</time>
      </trkpt>
      <trkpt lat="47.31447" lon="4.93224">
        <ele>368</ele>
        <time>2013-11-02T07:25:14.356Z</time>
      </trkpt>
      <trkpt lat="47.31441" lon="4.93227">
        <ele>368</ele>
        <time>2013-11-02T07:25:20.370Z</time>
      </trkpt>
      <trkpt lat="47.31438" lon="4.93228">
        <ele>368</ele>
        <time>2013-11-02T07:25:23.346Z</time>
      </trkpt>
      <trkpt lat="47.31431" lon="4.93228">
        <ele>369</ele>
        <time>2013-11-02T07:25:30.358Z</time>
      </trkpt>
      <trkpt lat="47.31432" lon="4.93228">
        <ele>369</ele>
        <time>2013-11-02T07:25:32.377Z</time>
      </trkpt>
      <trkpt lat="47.31429" lon="4.9323">
        <ele>369</ele>
        <time>2013-11-02T07:25:35.347Z</time>
      </trkpt>
      <trkpt lat="47.31422" lon="4.93232">
        <ele>369</ele>
        <time>2013-11-02T07:25:40.372Z</time>
      </trkpt>
      <trkpt lat="47.31422" lon="4.93232">
        <ele>369</ele>
        <time>2013-11-02T07:25:43.365Z</time>
      </trkpt>
      <trkpt lat="47.31422" lon="4.93232">
        <ele>369</ele>
        <time>2013-11-02T07:25:45.404Z</time>
      </trkpt>
      <trkpt lat="47.31418" lon="4.93236">
        <ele>369</ele>
        <time>2013-11-02T07:25:47.407Z</time>
      </trkpt>
      <trkpt lat="47.31413" lon="4.93243">
        <ele>373</ele>
        <time>2013-11-02T07:25:55.393Z</time>
      </trkpt>
      <trkpt lat="47.31411" lon="4.93246">
        <ele>372</ele>
        <time>2013-11-02T07:25:58.363Z</time>
      </trkpt>
      <trkpt lat="47.31404" lon="4.93246">
        <ele>374</ele>
        <time>2013-11-02T07:26:05.372Z</time>
      </trkpt>
      <trkpt lat="47.314" lon="4.93245">
        <ele>375</ele>
        <time>2013-11-02T07:26:08.358Z</time>
      </trkpt>
      <trkpt lat="47.31394" lon="4.93241">
        <ele>376</ele>
        <time>2013-11-02T07:26:13.359Z</time>
      </trkpt>
      <trkpt lat="47.31395" lon="4.93241">
        <ele>376</ele>
        <time>2013-11-02T07:26:15.359Z</time>
      </trkpt>
      <trkpt lat="47.31392" lon="4.93236">
        <ele>377</ele>
        <time>2013-11-02T07:26:17.370Z</time>
      </trkpt>
      <trkpt lat="47.31391" lon="4.93234">
        <ele>377</ele>
        <time>2013-11-02T07:26:19.373Z</time>
      </trkpt>
      <trkpt lat="47.31391" lon="4.93234">
        <ele>377</ele>
        <time>2013-11-02T07:26:22.361Z</time>
      </trkpt>
      <trkpt lat="47.31391" lon="4.93234">
        <ele>377</ele>
        <time>2013-11-02T07:26:27.370Z</time>
      </trkpt>
      <trkpt lat="47.31388" lon="4.93234">
        <ele>378</ele>
        <time>2013-11-02T07:26:29.368Z</time>
      </trkpt>
      <trkpt lat="47.31385" lon="4.93234">
        <ele>378</ele>
        <time>2013-11-02T07:26:32.366Z</time>
      </trkpt>
      <trkpt lat="47.31385" lon="4.93234">
        <ele>378</ele>
        <time>2013-11-02T07:26:34.367Z</time>
      </trkpt>
      <trkpt lat="47.31386" lon="4.93234">
        <ele>378</ele>
        <time>2013-11-02T07:26:59.358Z</time>
      </trkpt>
      <trkpt lat="47.31382" lon="4.9323">
        <ele>379</ele>
        <time>2013-11-02T07:27:01.358Z</time>
      </trkpt>
      <trkpt lat="47.31381" lon="4.93228">
        <ele>379</ele>
        <time>2013-11-02T07:27:03.361Z</time>
      </trkpt>
      <trkpt lat="47.31381" lon="4.93228">
        <ele>379</ele>
        <time>2013-11-02T07:27:06.346Z</time>
      </trkpt>
      <trkpt lat="47.31381" lon="4.93229">
        <ele>379</ele>
        <time>2013-11-02T07:27:36.355Z</time>
      </trkpt>
      <trkpt lat="47.31381" lon="4.93227">
        <ele>379</ele>
        <time>2013-11-02T07:27:38.363Z</time>
      </trkpt>
      <trkpt lat="47.31381" lon="4.93226">
        <ele>379</ele>
        <time>2013-11-02T07:27:41.348Z</time>
      </trkpt>
      <trkpt lat="47.31381" lon="4.93227">
        <ele>379</ele>
        <time>2013-11-02T07:28:09.373Z</time>
      </trkpt>
      <trkpt lat="47.31379" lon="4.93231">
        <ele>379</ele>
        <time>2013-11-02T07:28:12.349Z</time>
      </trkpt>
      <trkpt lat="47.31378" lon="4.93231">
        <ele>380</ele>
        <time>2013-11-02T07:28:14.367Z</time>
      </trkpt>
      <trkpt lat="47.31378" lon="4.93231">
        <ele>380</ele>
        <time>2013-11-02T07:28:17.357Z</time>
      </trkpt>
      <trkpt lat="47.31378" lon="4.93231">
        <ele>380</ele>
        <time>2013-11-02T07:29:32.360Z</time>
      </trkpt>
      <trkpt lat="47.31375" lon="4.93235">
        <ele>380</ele>
        <time>2013-11-02T07:29:34.364Z</time>
      </trkpt>
      <trkpt lat="47.31373" lon="4.93236">
        <ele>380</ele>
        <time>2013-11-02T07:29:38.367Z</time>
      </trkpt>
      <trkpt lat="47.31373" lon="4.93236">
        <ele>380</ele>
        <time>2013-11-02T07:29:41.359Z</time>
      </trkpt>
      <trkpt lat="47.31374" lon="4.93236">
        <ele>380</ele>
        <time>2013-11-02T07:29:43.363Z</time>
      </trkpt>
      <trkpt lat="47.3137" lon="4.93235">
        <ele>381</ele>
        <time>2013-11-02T07:29:45.363Z</time>
      </trkpt>
      <trkpt lat="47.31366" lon="4.93236">
        <ele>382</ele>
        <time>2013-11-02T07:29:51.372Z</time>
      </trkpt>
      <trkpt lat="47.31366" lon="4.93237">
        <ele>382</ele>
        <time>2013-11-02T07:29:54.363Z</time>
      </trkpt>
      <trkpt lat="47.31363" lon="4.93237">
        <ele>382</ele>
        <time>2013-11-02T07:29:56.370Z</time>
      </trkpt>
      <trkpt lat="47.31356" lon="4.93242">
        <ele>384</ele>
        <time>2013-11-02T07:30:04.346Z</time>
      </trkpt>
      <trkpt lat="47.31353" lon="4.93242">
        <ele>384</ele>
        <time>2013-11-02T07:30:06.367Z</time>
      </trkpt>
      <trkpt lat="47.3135" lon="4.93243">
        <ele>385</ele>
        <time>2013-11-02T07:30:11.347Z</time>
      </trkpt>
      <trkpt lat="47.3135" lon="4.93243">
        <ele>385</ele>
        <time>2013-11-02T07:30:14.376Z</time>
      </trkpt>
      <trkpt lat="47.31348" lon="4.93242">
        <ele>385</ele>
        <time>2013-11-02T07:30:17.375Z</time>
      </trkpt>
      <trkpt lat="47.3134" lon="4.93242">
        <ele>387</ele>
        <time>2013-11-02T07:30:21.379Z</time>
      </trkpt>
      <trkpt lat="47.31337" lon="4.93242">
        <ele>387</ele>
        <time>2013-11-02T07:30:23.364Z</time>
      </trkpt>
      <trkpt lat="47.3133" lon="4.93245">
        <ele>392</ele>
        <time>2013-11-02T07:30:31.360Z</time>
      </trkpt>
      <trkpt lat="47.31329" lon="4.93246">
        <ele>392</ele>
        <time>2013-11-02T07:30:33.369Z</time>
      </trkpt>
      <trkpt lat="47.31327" lon="4.93245">
        <ele>393</ele>
        <time>2013-11-02T07:30:36.348Z</time>
      </trkpt>
      <trkpt lat="47.31327" lon="4.93245">
        <ele>393</ele>
        <time>2013-11-02T07:30:38.359Z</time>
      </trkpt>
      <trkpt lat="47.31328" lon="4.93245">
        <ele>393</ele>
        <time>2013-11-02T07:30:43.369Z</time>
      </trkpt>
      <trkpt lat="47.31323" lon="4.93248">
        <ele>393</ele>
        <time>2013-11-02T07:30:45.374Z</time>
      </trkpt>
      <trkpt lat="47.31321" lon="4.93251">
        <ele>395</ele>
        <time>2013-11-02T07:30:48.372Z</time>
      </trkpt>
      <trkpt lat="47.31321" lon="4.93251">
        <ele>395</ele>
        <time>2013-11-02T07:30:51.393Z</time>
      </trkpt>
      <trkpt lat="47.31316" lon="4.93257">
        <ele>396</ele>
        <time>2013-11-02T07:30:54.355Z</time>
      </trkpt>
      <trkpt lat="47.31314" lon="4.93259">
        <ele>397</ele>
        <time>2013-11-02T07:30:56.375Z</time>
      </trkpt>
      <trkpt lat="47.31315" lon="4.93259">
        <ele>397</ele>
        <time>2013-11-02T07:30:59.370Z</time>
      </trkpt>
      <trkpt lat="47.31307" lon="4.93262">
        <ele>398</ele>
        <time>2013-11-02T07:31:02.362Z</time>
      </trkpt>
      <trkpt lat="47.31303" lon="4.93265">
        <ele>399</ele>
        <time>2013-11-02T07:31:08.365Z</time>
      </trkpt>
      <trkpt lat="47.313" lon="4.9327">
        <ele>400</ele>
        <time>2013-11-02T07:31:11.343Z</time>
      </trkpt>
      <trkpt lat="47.31294" lon="4.93277">
        <ele>401</ele>
        <time>2013-11-02T07:31:18.360Z</time>
      </trkpt>
      <trkpt lat="47.31293" lon="4.93278">
        <ele>401</ele>
        <time>2013-11-02T07:31:20.372Z</time>
      </trkpt>
      <trkpt lat="47.31293" lon="4.93278">
        <ele>401</ele>
        <time>2013-11-02T07:31:23.397Z</time>
      </trkpt>
      <trkpt lat="47.31291" lon="4.93284">
        <ele>401</ele>
        <time>2013-11-02T07:31:26.380Z</time>
      </trkpt>
      <trkpt lat="47.31288" lon="4.93296">
        <ele>402</ele>
        <time>2013-11-02T07:31:33.363Z</time>
      </trkpt>
      <trkpt lat="47.31287" lon="4.93302">
        <ele>402</ele>
        <time>2013-11-02T07:31:36.358Z</time>
      </trkpt>
      <trkpt lat="47.31287" lon="4.93313">
        <ele>403</ele>
        <time>2013-11-02T07:31:41.353Z</time>
      </trkpt>
      <trkpt lat="47.31287" lon="4.93318">
        <ele>403</ele>
        <time>2013-11-02T07:31:43.354Z</time>
      </trkpt>
      <trkpt lat="47.31285" lon="4.93328">
        <ele>403</ele>
        <time>2013-11-02T07:31:51.374Z</time>
      </trkpt>
      <trkpt lat="47.31284" lon="4.93336">
        <ele>408</ele>
        <time>2013-11-02T07:31:54.370Z</time>
      </trkpt>
      <trkpt lat="47.31283" lon="4.93344">
        <ele>408</ele>
        <time>2013-11-02T07:31:59.372Z</time>
      </trkpt>
      <trkpt lat="47.31283" lon="4.93343">
        <ele>408</ele>
        <time>2013-11-02T07:32:02.350Z</time>
      </trkpt>
      <trkpt lat="47.31282" lon="4.93348">
        <ele>409</ele>
        <time>2013-11-02T07:32:05.357Z</time>
      </trkpt>
      <trkpt lat="47.31278" lon="4.93356">
        <ele>409</ele>
        <time>2013-11-02T07:32:11.366Z</time>
      </trkpt>
      <trkpt lat="47.31278" lon="4.93355">
        <ele>409</ele>
        <time>2013-11-02T07:32:13.367Z</time>
      </trkpt>
      <trkpt lat="47.31278" lon="4.93355">
        <ele>409</ele>
        <time>2013-11-02T07:32:15.369Z</time>
      </trkpt>
      <trkpt lat="47.31275" lon="4.93365">
        <ele>410</ele>
        <time>2013-11-02T07:32:18.387Z</time>
      </trkpt>
      <trkpt lat="47.31274" lon="4.93367">
        <ele>410</ele>
        <time>2013-11-02T07:32:21.383Z</time>
      </trkpt>
      <trkpt lat="47.31275" lon="4.93366">
        <ele>410</ele>
        <time>2013-11-02T07:32:23.368Z</time>
      </trkpt>
      <trkpt lat="47.31274" lon="4.93371">
        <ele>410</ele>
        <time>2013-11-02T07:32:25.377Z</time>
      </trkpt>
      <trkpt lat="47.31271" lon="4.93377">
        <ele>410</ele>
        <time>2013-11-02T07:32:28.362Z</time>
      </trkpt>
      <trkpt lat="47.31271" lon="4.93376">
        <ele>410</ele>
        <time>2013-11-02T07:32:31.361Z</time>
      </trkpt>
      <trkpt lat="47.31272" lon="4.93376">
        <ele>410</ele>
        <time>2013-11-02T07:32:34.363Z</time>
      </trkpt>
      <trkpt lat="47.31268" lon="4.93382">
        <ele>411</ele>
        <time>2013-11-02T07:32:37.349Z</time>
      </trkpt>
      <trkpt lat="47.31267" lon="4.93383">
        <ele>411</ele>
        <time>2013-11-02T07:32:41.367Z</time>
      </trkpt>
      <trkpt lat="47.31267" lon="4.93383">
        <ele>411</ele>
        <time>2013-11-02T07:32:44.371Z</time>
      </trkpt>
      <trkpt lat="47.31267" lon="4.93383">
        <ele>411</ele>
        <time>2013-11-02T07:32:47.381Z</time>
      </trkpt>
      <trkpt lat="47.31263" lon="4.93389">
        <ele>412</ele>
        <time>2013-11-02T07:32:50.377Z</time>
      </trkpt>
      <trkpt lat="47.31261" lon="4.9339">
        <ele>412</ele>
        <time>2013-11-02T07:32:56.383Z</time>
      </trkpt>
      <trkpt lat="47.31253" lon="4.93391">
        <ele>412</ele>
        <time>2013-11-02T07:32:59.374Z</time>
      </trkpt>
      <trkpt lat="47.31245" lon="4.93393">
        <ele>417</ele>
        <time>2013-11-02T07:33:09.374Z</time>
      </trkpt>
      <trkpt lat="47.31245" lon="4.93392">
        <ele>417</ele>
        <time>2013-11-02T07:33:12.359Z</time>
      </trkpt>
      <trkpt lat="47.31245" lon="4.93393">
        <ele>417</ele>
        <time>2013-11-02T07:33:35.375Z</time>
      </trkpt>
      <trkpt lat="47.31241" lon="4.93398">
        <ele>418</ele>
        <time>2013-11-02T07:33:38.371Z</time>
      </trkpt>
      <trkpt lat="47.31241" lon="4.93398">
        <ele>418</ele>
        <time>2013-11-02T07:33:41.369Z</time>
      </trkpt>
      <trkpt lat="47.31242" lon="4.93398">
        <ele>418</ele>
        <time>2013-11-02T07:34:01.373Z</time>
      </trkpt>
      <trkpt lat="47.3124" lon="4.93398">
        <ele>418</ele>
        <time>2013-11-02T07:34:04.363Z</time>
      </trkpt>
      <trkpt lat="47.31237" lon="4.934">
        <ele>418</ele>
        <time>2013-11-02T07:34:07.359Z</time>
      </trkpt>
      <trkpt lat="47.31237" lon="4.93399">
        <ele>418</ele>
        <time>2013-11-02T07:34:09.363Z</time>
      </trkpt>
      <trkpt lat="47.31237" lon="4.93399">
        <ele>418</ele>
        <time>2013-11-02T07:34:38.364Z</time>
      </trkpt>
      <trkpt lat="47.31237" lon="4.93401">
        <ele>418</ele>
        <time>2013-11-02T07:34:41.352Z</time>
      </trkpt>
      <trkpt lat="47.31237" lon="4.93401">
        <ele>418</ele>
        <time>2013-11-02T07:34:43.358Z</time>
      </trkpt>
      <trkpt lat="47.31237" lon="4.93401">
        <ele>418</ele>
        <time>2013-11-02T07:35:15.416Z</time>
      </trkpt>
      <trkpt lat="47.31238" lon="4.93407">
        <ele>418</ele>
        <time>2013-11-02T07:35:18.389Z</time>
      </trkpt>
      <trkpt lat="47.31238" lon="4.93407">
        <ele>418</ele>
        <time>2013-11-02T07:35:20.446Z</time>
      </trkpt>
      <trkpt lat="47.31238" lon="4.93406">
        <ele>418</ele>
        <time>2013-11-02T07:35:23.384Z</time>
      </trkpt>
      <trkpt lat="47.31238" lon="4.93406">
        <ele>418</ele>
        <time>2013-11-02T07:36:10.364Z</time>
      </trkpt>
      <trkpt lat="47.31237" lon="4.93411">
        <ele>418</ele>
        <time>2013-11-02T07:36:12.370Z</time>
      </trkpt>
      <trkpt lat="47.31238" lon="4.93413">
        <ele>418</ele>
        <time>2013-11-02T07:36:15.407Z</time>
      </trkpt>
      <trkpt lat="47.31238" lon="4.93412">
        <ele>418</ele>
        <time>2013-11-02T07:36:18.398Z</time>
      </trkpt>
      <trkpt lat="47.31238" lon="4.93412">
        <ele>418</ele>
        <time>2013-11-02T07:36:20.434Z</time>
      </trkpt>
      <trkpt lat="47.31243" lon="4.93419">
        <ele>418</ele>
        <time>2013-11-02T07:36:23.353Z</time>
      </trkpt>
      <trkpt lat="47.31248" lon="4.93425">
        <ele>419</ele>
        <time>2013-11-02T07:36:29.381Z</time>
      </trkpt>
      <trkpt lat="47.31252" lon="4.93428">
        <ele>417</ele>
        <time>2013-11-02T07:36:32.383Z</time>
      </trkpt>
      <trkpt lat="47.31257" lon="4.93433">
        <ele>417</ele>
        <time>2013-11-02T07:36:37.330Z</time>
      </trkpt>
      <trkpt lat="47.31259" lon="4.93435">
        <ele>417</ele>
        <time>2013-11-02T07:36:39.362Z</time>
      </trkpt>
      <trkpt lat="47.31266" lon="4.93441">
        <ele>417</ele>
        <time>2013-11-02T07:36:45.386Z</time>
      </trkpt>
      <trkpt lat="47.3127" lon="4.93443">
        <ele>417</ele>
        <time>2013-11-02T07:36:48.376Z</time>
      </trkpt>
      <trkpt lat="47.31277" lon="4.93447">
        <ele>417</ele>
        <time>2013-11-02T07:36:55.371Z</time>
      </trkpt>
      <trkpt lat="47.31279" lon="4.93449">
        <ele>417</ele>
        <time>2013-11-02T07:36:58.371Z</time>
      </trkpt>
      <trkpt lat="47.31285" lon="4.93457">
        <ele>418</ele>
        <time>2013-11-02T07:37:05.361Z</time>
      </trkpt>
      <trkpt lat="47.31287" lon="4.9346">
        <ele>418</ele>
        <time>2013-11-02T07:37:07.364Z</time>
      </trkpt>
      <trkpt lat="47.31293" lon="4.93467">
        <ele>418</ele>
        <time>2013-11-02T07:37:13.371Z</time>
      </trkpt>
      <trkpt lat="47.31295" lon="4.9347">
        <ele>418</ele>
        <time>2013-11-02T07:37:15.379Z</time>
      </trkpt>
      <trkpt lat="47.313" lon="4.9348">
        <ele>418</ele>
        <time>2013-11-02T07:37:21.392Z</time>
      </trkpt>
      <trkpt lat="47.31302" lon="4.93482">
        <ele>418</ele>
        <time>2013-11-02T07:37:23.388Z</time>
      </trkpt>
      <trkpt lat="47.31308" lon="4.9349">
        <ele>418</ele>
        <time>2013-11-02T07:37:29.371Z</time>
      </trkpt>
      <trkpt lat="47.31311" lon="4.93492">
        <ele>418</ele>
        <time>2013-11-02T07:37:31.373Z</time>
      </trkpt>
      <trkpt lat="47.31318" lon="4.935">
        <ele>420</ele>
        <time>2013-11-02T07:37:37.355Z</time>
      </trkpt>
      <trkpt lat="47.3132" lon="4.93502">
        <ele>420</ele>
        <time>2013-11-02T07:37:39.395Z</time>
      </trkpt>
      <trkpt lat="47.31326" lon="4.93506">
        <ele>420</ele>
        <time>2013-11-02T07:37:44.369Z</time>
      </trkpt>
      <trkpt lat="47.31328" lon="4.93509">
        <ele>420</ele>
        <time>2013-11-02T07:37:46.374Z</time>
      </trkpt>
      <trkpt lat="47.31333" lon="4.93516">
        <ele>418</ele>
        <time>2013-11-02T07:37:51.371Z</time>
      </trkpt>
      <trkpt lat="47.31337" lon="4.93519">
        <ele>418</ele>
        <time>2013-11-02T07:37:54.377Z</time>
      </trkpt>
      <trkpt lat="47.3134" lon="4.93522">
        <ele>418</ele>
        <time>2013-11-02T07:37:56.396Z</time>
      </trkpt>
      <trkpt lat="47.31344" lon="4.93528">
        <ele>418</ele>
        <time>2013-11-02T07:37:59.380Z</time>
      </trkpt>
      <trkpt lat="47.31348" lon="4.93533">
        <ele>418</ele>
        <time>2013-11-02T07:38:02.377Z</time>
      </trkpt>
      <trkpt lat="47.31352" lon="4.93537">
        <ele>418</ele>
        <time>2013-11-02T07:38:05.354Z</time>
      </trkpt>
      <trkpt lat="47.31358" lon="4.93547">
        <ele>418</ele>
        <time>2013-11-02T07:38:11.370Z</time>
      </trkpt>
      <trkpt lat="47.3136" lon="4.93551">
        <ele>418</ele>
        <time>2013-11-02T07:38:14.392Z</time>
      </trkpt>
      <trkpt lat="47.31365" lon="4.93559">
        <ele>418</ele>
        <time>2013-11-02T07:38:19.388Z</time>
      </trkpt>
      <trkpt lat="47.31369" lon="4.93564">
        <ele>418</ele>
        <time>2013-11-02T07:38:22.370Z</time>
      </trkpt>
      <trkpt lat="47.31372" lon="4.93569">
        <ele>418</ele>
        <time>2013-11-02T07:38:25.376Z</time>
      </trkpt>
      <trkpt lat="47.31375" lon="4.93574">
        <ele>418</ele>
        <time>2013-11-02T07:38:28.365Z</time>
      </trkpt>
      <trkpt lat="47.3138" lon="4.9358">
        <ele>418</ele>
        <time>2013-11-02T07:38:32.369Z</time>
      </trkpt>
      <trkpt lat="47.31383" lon="4.93586">
        <ele>420</ele>
        <time>2013-11-02T07:38:35.373Z</time>
      </trkpt>
      <trkpt lat="47.31388" lon="4.93596">
        <ele>419</ele>
        <time>2013-11-02T07:38:41.360Z</time>
      </trkpt>
      <trkpt lat="47.31391" lon="4.93599">
        <ele>419</ele>
        <time>2013-11-02T07:38:43.363Z</time>
      </trkpt>
      <trkpt lat="47.31398" lon="4.93607">
        <ele>419</ele>
        <time>2013-11-02T07:38:48.396Z</time>
      </trkpt>
      <trkpt lat="47.314" lon="4.93611">
        <ele>419</ele>
        <time>2013-11-02T07:38:50.425Z</time>
      </trkpt>
      <trkpt lat="47.31406" lon="4.93619">
        <ele>419</ele>
        <time>2013-11-02T07:38:55.418Z</time>
      </trkpt>
      <trkpt lat="47.3141" lon="4.93623">
        <ele>419</ele>
        <time>2013-11-02T07:38:58.369Z</time>
      </trkpt>
      <trkpt lat="47.31415" lon="4.93628">
        <ele>419</ele>
        <time>2013-11-02T07:39:02.373Z</time>
      </trkpt>
      <trkpt lat="47.31419" lon="4.93632">
        <ele>417</ele>
        <time>2013-11-02T07:39:05.379Z</time>
      </trkpt>
      <trkpt lat="47.31424" lon="4.93639">
        <ele>417</ele>
        <time>2013-11-02T07:39:10.382Z</time>
      </trkpt>
      <trkpt lat="47.31427" lon="4.93647">
        <ele>417</ele>
        <time>2013-11-02T07:39:13.367Z</time>
      </trkpt>
      <trkpt lat="47.31431" lon="4.93658">
        <ele>417</ele>
        <time>2013-11-02T07:39:18.368Z</time>
      </trkpt>
      <trkpt lat="47.31432" lon="4.93663">
        <ele>417</ele>
        <time>2013-11-02T07:39:20.394Z</time>
      </trkpt>
      <trkpt lat="47.31436" lon="4.93674">
        <ele>418</ele>
        <time>2013-11-02T07:39:25.381Z</time>
      </trkpt>
      <trkpt lat="47.31437" lon="4.93679">
        <ele>418</ele>
        <time>2013-11-02T07:39:27.370Z</time>
      </trkpt>
      <trkpt lat="47.31438" lon="4.93686">
        <ele>418</ele>
        <time>2013-11-02T07:39:30.389Z</time>
      </trkpt>
      <trkpt lat="47.3144" lon="4.93693">
        <ele>418</ele>
        <time>2013-11-02T07:39:33.368Z</time>
      </trkpt>
      <trkpt lat="47.31443" lon="4.93704">
        <ele>418</ele>
        <time>2013-11-02T07:39:38.394Z</time>
      </trkpt>
      <trkpt lat="47.31444" lon="4.93711">
        <ele>418</ele>
        <time>2013-11-02T07:39:41.378Z</time>
      </trkpt>
      <trkpt lat="47.31448" lon="4.93719">
        <ele>419</ele>
        <time>2013-11-02T07:39:44.391Z</time>
      </trkpt>
      <trkpt lat="47.3145" lon="4.93726">
        <ele>419</ele>
        <time>2013-11-02T07:39:47.369Z</time>
      </trkpt>
      <trkpt lat="47.31454" lon="4.93735">
        <ele>419</ele>
        <time>2013-11-02T07:39:51.390Z</time>
      </trkpt>
      <trkpt lat="47.31455" lon="4.9374">
        <ele>419</ele>
        <time>2013-11-02T07:39:53.390Z</time>
      </trkpt>
      <trkpt lat="47.31457" lon="4.93746">
        <ele>419</ele>
        <time>2013-11-02T07:39:56.412Z</time>
      </trkpt>
      <trkpt lat="47.31459" lon="4.93753">
        <ele>420</ele>
        <time>2013-11-02T07:39:59.376Z</time>
      </trkpt>
      <trkpt lat="47.31461" lon="4.93759">
        <ele>420</ele>
        <time>2013-11-02T07:40:02.383Z</time>
      </trkpt>
      <trkpt lat="47.31463" lon="4.93766">
        <ele>420</ele>
        <time>2013-11-02T07:40:05.372Z</time>
      </trkpt>
      <trkpt lat="47.31465" lon="4.93775">
        <ele>420</ele>
        <time>2013-11-02T07:40:09.377Z</time>
      </trkpt>
      <trkpt lat="47.31466" lon="4.93779">
        <ele>420</ele>
        <time>2013-11-02T07:40:11.380Z</time>
      </trkpt>
      <trkpt lat="47.31468" lon="4.93786">
        <ele>420</ele>
        <time>2013-11-02T07:40:14.407Z</time>
      </trkpt>
      <trkpt lat="47.3147" lon="4.93793">
        <ele>420</ele>
        <time>2013-11-02T07:40:17.383Z</time>
      </trkpt>
      <trkpt lat="47.31473" lon="4.93803">
        <ele>420</ele>
        <time>2013-11-02T07:40:22.385Z</time>
      </trkpt>
      <trkpt lat="47.31474" lon="4.93806">
        <ele>420</ele>
        <time>2013-11-02T07:40:23.388Z</time>
      </trkpt>
      <trkpt lat="47.31477" lon="4.93816">
        <ele>420</ele>
        <time>2013-11-02T07:40:28.393Z</time>
      </trkpt>
      <trkpt lat="47.31478" lon="4.93822">
        <ele>420</ele>
        <time>2013-11-02T07:40:31.381Z</time>
      </trkpt>
      <trkpt lat="47.31481" lon="4.93831">
        <ele>420</ele>
        <time>2013-11-02T07:40:35.387Z</time>
      </trkpt>
      <trkpt lat="47.31482" lon="4.93835">
        <ele>420</ele>
        <time>2013-11-02T07:40:37.393Z</time>
      </trkpt>
      <trkpt lat="47.31484" lon="4.93842">
        <ele>420</ele>
        <time>2013-11-02T07:40:40.392Z</time>
      </trkpt>
      <trkpt lat="47.31486" lon="4.93848">
        <ele>421</ele>
        <time>2013-11-02T07:40:43.390Z</time>
      </trkpt>
      <trkpt lat="47.31488" lon="4.93859">
        <ele>421</ele>
        <time>2013-11-02T07:40:48.415Z</time>
      </trkpt>
      <trkpt lat="47.3149" lon="4.93863">
        <ele>421</ele>
        <time>2013-11-02T07:40:50.453Z</time>
      </trkpt>
      <trkpt lat="47.31492" lon="4.93875">
        <ele>421</ele>
        <time>2013-11-02T07:40:55.424Z</time>
      </trkpt>
      <trkpt lat="47.31494" lon="4.93881">
        <ele>421</ele>
        <time>2013-11-02T07:40:58.399Z</time>
      </trkpt>
      <trkpt lat="47.31497" lon="4.93892">
        <ele>421</ele>
        <time>2013-11-02T07:41:03.386Z</time>
      </trkpt>
      <trkpt lat="47.31498" lon="4.93897">
        <ele>421</ele>
        <time>2013-11-02T07:41:05.394Z</time>
      </trkpt>
      <trkpt lat="47.315" lon="4.93904">
        <ele>421</ele>
        <time>2013-11-02T07:41:08.395Z</time>
      </trkpt>
      <trkpt lat="47.31502" lon="4.93911">
        <ele>420</ele>
        <time>2013-11-02T07:41:11.386Z</time>
      </trkpt>
      <trkpt lat="47.31504" lon="4.93919">
        <ele>420</ele>
        <time>2013-11-02T07:41:15.435Z</time>
      </trkpt>
      <trkpt lat="47.31506" lon="4.93926">
        <ele>420</ele>
        <time>2013-11-02T07:41:18.426Z</time>
      </trkpt>
      <trkpt lat="47.31509" lon="4.93936">
        <ele>420</ele>
        <time>2013-11-02T07:41:23.419Z</time>
      </trkpt>
      <trkpt lat="47.3151" lon="4.93941">
        <ele>420</ele>
        <time>2013-11-02T07:41:25.448Z</time>
      </trkpt>
      <trkpt lat="47.31514" lon="4.93952">
        <ele>420</ele>
        <time>2013-11-02T07:41:30.398Z</time>
      </trkpt>
      <trkpt lat="47.31516" lon="4.93958">
        <ele>420</ele>
        <time>2013-11-02T07:41:33.374Z</time>
      </trkpt>
      <trkpt lat="47.31519" lon="4.9397">
        <ele>420</ele>
        <time>2013-11-02T07:41:38.399Z</time>
      </trkpt>
      <trkpt lat="47.31521" lon="4.93977">
        <ele>420</ele>
        <time>2013-11-02T07:41:41.396Z</time>
      </trkpt>
      <trkpt lat="47.31524" lon="4.93985">
        <ele>420</ele>
        <time>2013-11-02T07:41:44.399Z</time>
      </trkpt>
      <trkpt lat="47.31525" lon="4.9399">
        <ele>420</ele>
        <time>2013-11-02T07:41:46.408Z</time>
      </trkpt>
      <trkpt lat="47.31528" lon="4.94">
        <ele>420</ele>
        <time>2013-11-02T07:41:50.443Z</time>
      </trkpt>
      <trkpt lat="47.3153" lon="4.94007">
        <ele>421</ele>
        <time>2013-11-02T07:41:53.402Z</time>
      </trkpt>
      <trkpt lat="47.31532" lon="4.94012">
        <ele>421</ele>
        <time>2013-11-02T07:41:55.426Z</time>
      </trkpt>
      <trkpt lat="47.31535" lon="4.94019">
        <ele>421</ele>
        <time>2013-11-02T07:41:58.403Z</time>
      </trkpt>
      <trkpt lat="47.31538" lon="4.94027">
        <ele>421</ele>
        <time>2013-11-02T07:42:01.403Z</time>
      </trkpt>
      <trkpt lat="47.3154" lon="4.94035">
        <ele>421</ele>
        <time>2013-11-02T07:42:04.393Z</time>
      </trkpt>
      <trkpt lat="47.31542" lon="4.9404">
        <ele>421</ele>
        <time>2013-11-02T07:42:06.397Z</time>
      </trkpt>
      <trkpt lat="47.31544" lon="4.94048">
        <ele>421</ele>
        <time>2013-11-02T07:42:09.390Z</time>
      </trkpt>
      <trkpt lat="47.31546" lon="4.94053">
        <ele>421</ele>
        <time>2013-11-02T07:42:11.390Z</time>
      </trkpt>
      <trkpt lat="47.31549" lon="4.94062">
        <ele>421</ele>
        <time>2013-11-02T07:42:14.379Z</time>
      </trkpt>
      <trkpt lat="47.31551" lon="4.94067">
        <ele>421</ele>
        <time>2013-11-02T07:42:16.426Z</time>
      </trkpt>
      <trkpt lat="47.31554" lon="4.94075">
        <ele>422</ele>
        <time>2013-11-02T07:42:19.402Z</time>
      </trkpt>
      <trkpt lat="47.31557" lon="4.94085">
        <ele>422</ele>
        <time>2013-11-02T07:42:23.425Z</time>
      </trkpt>
      <trkpt lat="47.31559" lon="4.9409">
        <ele>422</ele>
        <time>2013-11-02T07:42:25.447Z</time>
      </trkpt>
      <trkpt lat="47.31561" lon="4.94098">
        <ele>422</ele>
        <time>2013-11-02T07:42:28.413Z</time>
      </trkpt>
      <trkpt lat="47.31564" lon="4.94105">
        <ele>422</ele>
        <time>2013-11-02T07:42:31.378Z</time>
      </trkpt>
      <trkpt lat="47.31568" lon="4.94115">
        <ele>422</ele>
        <time>2013-11-02T07:42:35.393Z</time>
      </trkpt>
      <trkpt lat="47.31571" lon="4.94122">
        <ele>422</ele>
        <time>2013-11-02T07:42:38.424Z</time>
      </trkpt>
      <trkpt lat="47.31574" lon="4.94129">
        <ele>422</ele>
        <time>2013-11-02T07:42:41.379Z</time>
      </trkpt>
      <trkpt lat="47.31576" lon="4.94134">
        <ele>422</ele>
        <time>2013-11-02T07:42:43.388Z</time>
      </trkpt>
      <trkpt lat="47.31577" lon="4.94139">
        <ele>422</ele>
        <time>2013-11-02T07:42:45.438Z</time>
      </trkpt>
      <trkpt lat="47.3158" lon="4.94146">
        <ele>422</ele>
        <time>2013-11-02T07:42:48.405Z</time>
      </trkpt>
      <trkpt lat="47.31583" lon="4.9415">
        <ele>422</ele>
        <time>2013-11-02T07:42:50.420Z</time>
      </trkpt>
      <trkpt lat="47.31586" lon="4.94158">
        <ele>422</ele>
        <time>2013-11-02T07:42:53.424Z</time>
      </trkpt>
      <trkpt lat="47.31588" lon="4.94163">
        <ele>422</ele>
        <time>2013-11-02T07:42:55.446Z</time>
      </trkpt>
      <trkpt lat="47.31591" lon="4.9417">
        <ele>422</ele>
        <time>2013-11-02T07:42:58.404Z</time>
      </trkpt>
      <trkpt lat="47.31594" lon="4.94177">
        <ele>422</ele>
        <time>2013-11-02T07:43:01.390Z</time>
      </trkpt>
      <trkpt lat="47.31597" lon="4.94182">
        <ele>422</ele>
        <time>2013-11-02T07:43:03.419Z</time>
      </trkpt>
      <trkpt lat="47.316" lon="4.94188">
        <ele>421</ele>
        <time>2013-11-02T07:43:06.389Z</time>
      </trkpt>
      <trkpt lat="47.31603" lon="4.94193">
        <ele>421</ele>
        <time>2013-11-02T07:43:08.397Z</time>
      </trkpt>
      <trkpt lat="47.31608" lon="4.94203">
        <ele>421</ele>
        <time>2013-11-02T07:43:13.394Z</time>
      </trkpt>
      <trkpt lat="47.31611" lon="4.94207">
        <ele>421</ele>
        <time>2013-11-02T07:43:15.424Z</time>
      </trkpt>
      <trkpt lat="47.31615" lon="4.94212">
        <ele>421</ele>
        <time>2013-11-02T07:43:18.407Z</time>
      </trkpt>
      <trkpt lat="47.31618" lon="4.94216">
        <ele>421</ele>
        <time>2013-11-02T07:43:20.481Z</time>
      </trkpt>
      <trkpt lat="47.31622" lon="4.94221">
        <ele>421</ele>
        <time>2013-11-02T07:43:23.412Z</time>
      </trkpt>
      <trkpt lat="47.31625" lon="4.94225">
        <ele>421</ele>
        <time>2013-11-02T07:43:25.434Z</time>
      </trkpt>
      <trkpt lat="47.31629" lon="4.9423">
        <ele>421</ele>
        <time>2013-11-02T07:43:28.412Z</time>
      </trkpt>
      <trkpt lat="47.31633" lon="4.94236">
        <ele>421</ele>
        <time>2013-11-02T07:43:31.390Z</time>
      </trkpt>
      <trkpt lat="47.31636" lon="4.94242">
        <ele>421</ele>
        <time>2013-11-02T07:43:34.378Z</time>
      </trkpt>
      <trkpt lat="47.3164" lon="4.94248">
        <ele>421</ele>
        <time>2013-11-02T07:43:37.355Z</time>
      </trkpt>
      <trkpt lat="47.31645" lon="4.94256">
        <ele>421</ele>
        <time>2013-11-02T07:43:41.413Z</time>
      </trkpt>
      <trkpt lat="47.31649" lon="4.94263">
        <ele>421</ele>
        <time>2013-11-02T07:43:44.408Z</time>
      </trkpt>
      <trkpt lat="47.31654" lon="4.94272">
        <ele>421</ele>
        <time>2013-11-02T07:43:48.415Z</time>
      </trkpt>
      <trkpt lat="47.31656" lon="4.94276">
        <ele>421</ele>
        <time>2013-11-02T07:43:50.450Z</time>
      </trkpt>
      <trkpt lat="47.3166" lon="4.94283">
        <ele>421</ele>
        <time>2013-11-02T07:43:53.411Z</time>
      </trkpt>
      <trkpt lat="47.31662" lon="4.94288">
        <ele>421</ele>
        <time>2013-11-02T07:43:55.443Z</time>
      </trkpt>
      <trkpt lat="47.31665" lon="4.94295">
        <ele>421</ele>
        <time>2013-11-02T07:43:58.403Z</time>
      </trkpt>
      <trkpt lat="47.31668" lon="4.94302">
        <ele>421</ele>
        <time>2013-11-02T07:44:01.382Z</time>
      </trkpt>
      <trkpt lat="47.31674" lon="4.94311">
        <ele>421</ele>
        <time>2013-11-02T07:44:05.396Z</time>
      </trkpt>
      <trkpt lat="47.31676" lon="4.94316">
        <ele>421</ele>
        <time>2013-11-02T07:44:07.399Z</time>
      </trkpt>
      <trkpt lat="47.3168" lon="4.94322">
        <ele>421</ele>
        <time>2013-11-02T07:44:10.399Z</time>
      </trkpt>
      <trkpt lat="47.31683" lon="4.94329">
        <ele>421</ele>
        <time>2013-11-02T07:44:13.379Z</time>
      </trkpt>
      <trkpt lat="47.31686" lon="4.94333">
        <ele>421</ele>
        <time>2013-11-02T07:44:15.422Z</time>
      </trkpt>
      <trkpt lat="47.3169" lon="4.9434">
        <ele>420</ele>
        <time>2013-11-02T07:44:18.419Z</time>
      </trkpt>
      <trkpt lat="47.31692" lon="4.94344">
        <ele>420</ele>
        <time>2013-11-02T07:44:20.459Z</time>
      </trkpt>
      <trkpt lat="47.31696" lon="4.94351">
        <ele>420</ele>
        <time>2013-11-02T07:44:23.412Z</time>
      </trkpt>
      <trkpt lat="47.317" lon="4.94358">
        <ele>420</ele>
        <time>2013-11-02T07:44:26.428Z</time>
      </trkpt>
      <trkpt lat="47.31703" lon="4.94364">
        <ele>419</ele>
        <time>2013-11-02T07:44:29.406Z</time>
      </trkpt>
      <trkpt lat="47.31707" lon="4.94371">
        <ele>419</ele>
        <time>2013-11-02T07:44:32.401Z</time>
      </trkpt>
      <trkpt lat="47.31709" lon="4.94375">
        <ele>419</ele>
        <time>2013-11-02T07:44:34.404Z</time>
      </trkpt>
      <trkpt lat="47.31714" lon="4.94383">
        <ele>419</ele>
        <time>2013-11-02T07:44:38.404Z</time>
      </trkpt>
      <trkpt lat="47.31718" lon="4.94389">
        <ele>419</ele>
        <time>2013-11-02T07:44:41.397Z</time>
      </trkpt>
      <trkpt lat="47.31722" lon="4.94395">
        <ele>419</ele>
        <time>2013-11-02T07:44:44.394Z</time>
      </trkpt>
      <trkpt lat="47.31724" lon="4.944">
        <ele>419</ele>
        <time>2013-11-02T07:44:46.409Z</time>
      </trkpt>
      <trkpt lat="47.31729" lon="4.94408">
        <ele>419</ele>
        <time>2013-11-02T07:44:50.434Z</time>
      </trkpt>
      <trkpt lat="47.31732" lon="4.94415">
        <ele>419</ele>
        <time>2013-11-02T07:44:53.412Z</time>
      </trkpt>
      <trkpt lat="47.31735" lon="4.94423">
        <ele>418</ele>
        <time>2013-11-02T07:44:56.438Z</time>
      </trkpt>
      <trkpt lat="47.31739" lon="4.9443">
        <ele>418</ele>
        <time>2013-11-02T07:44:59.410Z</time>
      </trkpt>
      <trkpt lat="47.31742" lon="4.94437">
        <ele>418</ele>
        <time>2013-11-02T07:45:02.398Z</time>
      </trkpt>
      <trkpt lat="47.31746" lon="4.94445">
        <ele>418</ele>
        <time>2013-11-02T07:45:05.391Z</time>
      </trkpt>
      <trkpt lat="47.3175" lon="4.94454">
        <ele>417</ele>
        <time>2013-11-02T07:45:09.393Z</time>
      </trkpt>
      <trkpt lat="47.31753" lon="4.94459">
        <ele>417</ele>
        <time>2013-11-02T07:45:11.393Z</time>
      </trkpt>
      <trkpt lat="47.31758" lon="4.94468">
        <ele>417</ele>
        <time>2013-11-02T07:45:15.410Z</time>
      </trkpt>
      <trkpt lat="47.31761" lon="4.94474">
        <ele>417</ele>
        <time>2013-11-02T07:45:18.398Z</time>
      </trkpt>
      <trkpt lat="47.31764" lon="4.94479">
        <ele>417</ele>
        <time>2013-11-02T07:45:20.400Z</time>
      </trkpt>
      <trkpt lat="47.31767" lon="4.94486">
        <ele>417</ele>
        <time>2013-11-02T07:45:23.402Z</time>
      </trkpt>
      <trkpt lat="47.31771" lon="4.94492">
        <ele>417</ele>
        <time>2013-11-02T07:45:26.424Z</time>
      </trkpt>
      <trkpt lat="47.31775" lon="4.94498">
        <ele>416</ele>
        <time>2013-11-02T07:45:29.404Z</time>
      </trkpt>
      <trkpt lat="47.3178" lon="4.94504">
        <ele>415</ele>
        <time>2013-11-02T07:45:32.393Z</time>
      </trkpt>
      <trkpt lat="47.31783" lon="4.94511">
        <ele>415</ele>
        <time>2013-11-02T07:45:35.390Z</time>
      </trkpt>
      <trkpt lat="47.31787" lon="4.94518">
        <ele>415</ele>
        <time>2013-11-02T07:45:38.418Z</time>
      </trkpt>
      <trkpt lat="47.31791" lon="4.94524">
        <ele>415</ele>
        <time>2013-11-02T07:45:41.428Z</time>
      </trkpt>
      <trkpt lat="47.31795" lon="4.9453">
        <ele>415</ele>
        <time>2013-11-02T07:45:44.414Z</time>
      </trkpt>
      <trkpt lat="47.31799" lon="4.94537">
        <ele>415</ele>
        <time>2013-11-02T07:45:47.397Z</time>
      </trkpt>
      <trkpt lat="47.31805" lon="4.94546">
        <ele>414</ele>
        <time>2013-11-02T07:45:51.399Z</time>
      </trkpt>
      <trkpt lat="47.31808" lon="4.9455">
        <ele>414</ele>
        <time>2013-11-02T07:45:53.399Z</time>
      </trkpt>
      <trkpt lat="47.31811" lon="4.94555">
        <ele>414</ele>
        <time>2013-11-02T07:45:55.401Z</time>
      </trkpt>
      <trkpt lat="47.31816" lon="4.94562">
        <ele>414</ele>
        <time>2013-11-02T07:45:58.388Z</time>
      </trkpt>
      <trkpt lat="47.3182" lon="4.9457">
        <ele>413</ele>
        <time>2013-11-02T07:46:02.436Z</time>
      </trkpt>
      <trkpt lat="47.31825" lon="4.94577">
        <ele>413</ele>
        <time>2013-11-02T07:46:05.389Z</time>
      </trkpt>
      <trkpt lat="47.31827" lon="4.94582">
        <ele>413</ele>
        <time>2013-11-02T07:46:07.394Z</time>
      </trkpt>
      <trkpt lat="47.31831" lon="4.94588">
        <ele>412</ele>
        <time>2013-11-02T07:46:10.387Z</time>
      </trkpt>
      <trkpt lat="47.31836" lon="4.94597">
        <ele>412</ele>
        <time>2013-11-02T07:46:14.395Z</time>
      </trkpt>
      <trkpt lat="47.31839" lon="4.94601">
        <ele>412</ele>
        <time>2013-11-02T07:46:16.408Z</time>
      </trkpt>
      <trkpt lat="47.31844" lon="4.9461">
        <ele>412</ele>
        <time>2013-11-02T07:46:20.414Z</time>
      </trkpt>
      <trkpt lat="47.31847" lon="4.94617">
        <ele>412</ele>
        <time>2013-11-02T07:46:23.385Z</time>
      </trkpt>
      <trkpt lat="47.31852" lon="4.94626">
        <ele>413</ele>
        <time>2013-11-02T07:46:27.401Z</time>
      </trkpt>
      <trkpt lat="47.31854" lon="4.9463">
        <ele>413</ele>
        <time>2013-11-02T07:46:29.410Z</time>
      </trkpt>
      <trkpt lat="47.31858" lon="4.94637">
        <ele>413</ele>
        <time>2013-11-02T07:46:32.399Z</time>
      </trkpt>
      <trkpt lat="47.31861" lon="4.94644">
        <ele>413</ele>
        <time>2013-11-02T07:46:35.382Z</time>
      </trkpt>
      <trkpt lat="47.31866" lon="4.94654">
        <ele>413</ele>
        <time>2013-11-02T07:46:39.385Z</time>
      </trkpt>
      <trkpt lat="47.31868" lon="4.94658">
        <ele>413</ele>
        <time>2013-11-02T07:46:41.385Z</time>
      </trkpt>
      <trkpt lat="47.31872" lon="4.94668">
        <ele>413</ele>
        <time>2013-11-02T07:46:45.393Z</time>
      </trkpt>
      <trkpt lat="47.31874" lon="4.94672">
        <ele>413</ele>
        <time>2013-11-02T07:46:47.405Z</time>
      </trkpt>
      <trkpt lat="47.31877" lon="4.94679">
        <ele>413</ele>
        <time>2013-11-02T07:46:50.392Z</time>
      </trkpt>
      <trkpt lat="47.31879" lon="4.94684">
        <ele>413</ele>
        <time>2013-11-02T07:46:52.394Z</time>
      </trkpt>
      <trkpt lat="47.31881" lon="4.94689">
        <ele>413</ele>
        <time>2013-11-02T07:46:54.409Z</time>
      </trkpt>
      <trkpt lat="47.31884" lon="4.94697">
        <ele>413</ele>
        <time>2013-11-02T07:46:57.384Z</time>
      </trkpt>
      <trkpt lat="47.31886" lon="4.94702">
        <ele>413</ele>
        <time>2013-11-02T07:46:59.403Z</time>
      </trkpt>
      <trkpt lat="47.31889" lon="4.94709">
        <ele>413</ele>
        <time>2013-11-02T07:47:02.423Z</time>
      </trkpt>
      <trkpt lat="47.31891" lon="4.94717">
        <ele>413</ele>
        <time>2013-11-02T07:47:05.394Z</time>
      </trkpt>
      <trkpt lat="47.31894" lon="4.94725">
        <ele>413</ele>
        <time>2013-11-02T07:47:08.405Z</time>
      </trkpt>
      <trkpt lat="47.31897" lon="4.94732">
        <ele>413</ele>
        <time>2013-11-02T07:47:11.401Z</time>
      </trkpt>
      <trkpt lat="47.31899" lon="4.9474">
        <ele>412</ele>
        <time>2013-11-02T07:47:14.406Z</time>
      </trkpt>
      <trkpt lat="47.31901" lon="4.94748">
        <ele>412</ele>
        <time>2013-11-02T07:47:17.391Z</time>
      </trkpt>
      <trkpt lat="47.31903" lon="4.94753">
        <ele>412</ele>
        <time>2013-11-02T07:47:19.395Z</time>
      </trkpt>
      <trkpt lat="47.31906" lon="4.94763">
        <ele>412</ele>
        <time>2013-11-02T07:47:23.403Z</time>
      </trkpt>
      <trkpt lat="47.31908" lon="4.94771">
        <ele>412</ele>
        <time>2013-11-02T07:47:26.420Z</time>
      </trkpt>
      <trkpt lat="47.3191" lon="4.94779">
        <ele>412</ele>
        <time>2013-11-02T07:47:29.403Z</time>
      </trkpt>
      <trkpt lat="47.31912" lon="4.94786">
        <ele>412</ele>
        <time>2013-11-02T07:47:32.409Z</time>
      </trkpt>
      <trkpt lat="47.31914" lon="4.94794">
        <ele>413</ele>
        <time>2013-11-02T07:47:35.394Z</time>
      </trkpt>
      <trkpt lat="47.31916" lon="4.94799">
        <ele>413</ele>
        <time>2013-11-02T07:47:37.398Z</time>
      </trkpt>
      <trkpt lat="47.31919" lon="4.94809">
        <ele>409</ele>
        <time>2013-11-02T07:47:41.402Z</time>
      </trkpt>
      <trkpt lat="47.31921" lon="4.94816">
        <ele>410</ele>
        <time>2013-11-02T07:47:44.405Z</time>
      </trkpt>
      <trkpt lat="47.31923" lon="4.94824">
        <ele>410</ele>
        <time>2013-11-02T07:47:47.411Z</time>
      </trkpt>
      <trkpt lat="47.31926" lon="4.94831">
        <ele>411</ele>
        <time>2013-11-02T07:47:50.438Z</time>
      </trkpt>
      <trkpt lat="47.31928" lon="4.94838">
        <ele>411</ele>
        <time>2013-11-02T07:47:53.396Z</time>
      </trkpt>
      <trkpt lat="47.3193" lon="4.94846">
        <ele>411</ele>
        <time>2013-11-02T07:47:56.419Z</time>
      </trkpt>
      <trkpt lat="47.31933" lon="4.94853">
        <ele>410</ele>
        <time>2013-11-02T07:47:59.424Z</time>
      </trkpt>
      <trkpt lat="47.31936" lon="4.9486">
        <ele>410</ele>
        <time>2013-11-02T07:48:02.393Z</time>
      </trkpt>
      <trkpt lat="47.31939" lon="4.94867">
        <ele>409</ele>
        <time>2013-11-02T07:48:05.397Z</time>
      </trkpt>
      <trkpt lat="47.31941" lon="4.94871">
        <ele>409</ele>
        <time>2013-11-02T07:48:07.399Z</time>
      </trkpt>
      <trkpt lat="47.31945" lon="4.9488">
        <ele>409</ele>
        <time>2013-11-02T07:48:11.401Z</time>
      </trkpt>
      <trkpt lat="47.31949" lon="4.94888">
        <ele>409</ele>
        <time>2013-11-02T07:48:14.398Z</time>
      </trkpt>
      <trkpt lat="47.31954" lon="4.94896">
        <ele>409</ele>
        <time>2013-11-02T07:48:18.413Z</time>
      </trkpt>
      <trkpt lat="47.31958" lon="4.94902">
        <ele>409</ele>
        <time>2013-11-02T07:48:21.845Z</time>
      </trkpt>
      <trkpt lat="47.3196" lon="4.94907">
        <ele>409</ele>
        <time>2013-11-02T07:48:23.864Z</time>
      </trkpt>
      <trkpt lat="47.31964" lon="4.94913">
        <ele>409</ele>
        <time>2013-11-02T07:48:26.862Z</time>
      </trkpt>
      <trkpt lat="47.31968" lon="4.9492">
        <ele>409</ele>
        <time>2013-11-02T07:48:29.853Z</time>
      </trkpt>
      <trkpt lat="47.31972" lon="4.94926">
        <ele>409</ele>
        <time>2013-11-02T07:48:32.859Z</time>
      </trkpt>
      <trkpt lat="47.31976" lon="4.94932">
        <ele>409</ele>
        <time>2013-11-02T07:48:35.838Z</time>
      </trkpt>
      <trkpt lat="47.31978" lon="4.94936">
        <ele>409</ele>
        <time>2013-11-02T07:48:37.841Z</time>
      </trkpt>
      <trkpt lat="47.31983" lon="4.94945">
        <ele>409</ele>
        <time>2013-11-02T07:48:41.868Z</time>
      </trkpt>
      <trkpt lat="47.31987" lon="4.94952">
        <ele>409</ele>
        <time>2013-11-02T07:48:44.849Z</time>
      </trkpt>
      <trkpt lat="47.3199" lon="4.94957">
        <ele>409</ele>
        <time>2013-11-02T07:48:46.855Z</time>
      </trkpt>
      <trkpt lat="47.31992" lon="4.94964">
        <ele>409</ele>
        <time>2013-11-02T07:48:49.865Z</time>
      </trkpt>
      <trkpt lat="47.31992" lon="4.9497">
        <ele>409</ele>
        <time>2013-11-02T07:48:51.866Z</time>
      </trkpt>
      <trkpt lat="47.31991" lon="4.94978">
        <ele>409</ele>
        <time>2013-11-02T07:48:54.845Z</time>
      </trkpt>
      <trkpt lat="47.31988" lon="4.94983">
        <ele>409</ele>
        <time>2013-11-02T07:48:56.867Z</time>
      </trkpt>
      <trkpt lat="47.31982" lon="4.94989">
        <ele>409</ele>
        <time>2013-11-02T07:48:59.852Z</time>
      </trkpt>
      <trkpt lat="47.31976" lon="4.94996">
        <ele>409</ele>
        <time>2013-11-02T07:49:03.868Z</time>
      </trkpt>
      <trkpt lat="47.31973" lon="4.95">
        <ele>410</ele>
        <time>2013-11-02T07:49:05.870Z</time>
      </trkpt>
      <trkpt lat="47.31969" lon="4.95004">
        <ele>410</ele>
        <time>2013-11-02T07:49:07.871Z</time>
      </trkpt>
      <trkpt lat="47.31964" lon="4.9501">
        <ele>410</ele>
        <time>2013-11-02T07:49:10.873Z</time>
      </trkpt>
      <trkpt lat="47.31958" lon="4.95018">
        <ele>410</ele>
        <time>2013-11-02T07:49:14.883Z</time>
      </trkpt>
      <trkpt lat="47.31955" lon="4.95021">
        <ele>410</ele>
        <time>2013-11-02T07:49:16.884Z</time>
      </trkpt>
      <trkpt lat="47.31949" lon="4.95029">
        <ele>410</ele>
        <time>2013-11-02T07:49:20.898Z</time>
      </trkpt>
      <trkpt lat="47.31945" lon="4.95035">
        <ele>410</ele>
        <time>2013-11-02T07:49:23.905Z</time>
      </trkpt>
      <trkpt lat="47.31941" lon="4.95041">
        <ele>410</ele>
        <time>2013-11-02T07:49:26.887Z</time>
      </trkpt>
      <trkpt lat="47.31937" lon="4.95047">
        <ele>410</ele>
        <time>2013-11-02T07:49:29.887Z</time>
      </trkpt>
      <trkpt lat="47.31933" lon="4.95053">
        <ele>410</ele>
        <time>2013-11-02T07:49:32.880Z</time>
      </trkpt>
      <trkpt lat="47.31929" lon="4.95059">
        <ele>410</ele>
        <time>2013-11-02T07:49:35.870Z</time>
      </trkpt>
      <trkpt lat="47.31925" lon="4.95065">
        <ele>411</ele>
        <time>2013-11-02T07:49:38.886Z</time>
      </trkpt>
      <trkpt lat="47.31921" lon="4.95071">
        <ele>411</ele>
        <time>2013-11-02T07:49:41.870Z</time>
      </trkpt>
      <trkpt lat="47.31917" lon="4.95078">
        <ele>411</ele>
        <time>2013-11-02T07:49:44.882Z</time>
      </trkpt>
      <trkpt lat="47.31914" lon="4.95084">
        <ele>411</ele>
        <time>2013-11-02T07:49:47.899Z</time>
      </trkpt>
      <trkpt lat="47.31911" lon="4.95089">
        <ele>411</ele>
        <time>2013-11-02T07:49:49.901Z</time>
      </trkpt>
      <trkpt lat="47.31908" lon="4.95095">
        <ele>411</ele>
        <time>2013-11-02T07:49:52.887Z</time>
      </trkpt>
      <trkpt lat="47.31904" lon="4.95102">
        <ele>411</ele>
        <time>2013-11-02T07:49:55.875Z</time>
      </trkpt>
      <trkpt lat="47.31899" lon="4.95108">
        <ele>411</ele>
        <time>2013-11-02T07:49:58.880Z</time>
      </trkpt>
      <trkpt lat="47.31904" lon="4.95101">
        <ele>411</ele>
        <time>2013-11-02T07:50:06.874Z</time>
      </trkpt>
      <trkpt lat="47.31908" lon="4.95096">
        <ele>411</ele>
        <time>2013-11-02T07:50:08.881Z</time>
      </trkpt>
      <trkpt lat="47.31911" lon="4.95092">
        <ele>411</ele>
        <time>2013-11-02T07:50:10.885Z</time>
      </trkpt>
      <trkpt lat="47.31916" lon="4.95085">
        <ele>411</ele>
        <time>2013-11-02T07:50:13.856Z</time>
      </trkpt>
      <trkpt lat="47.31919" lon="4.9508">
        <ele>411</ele>
        <time>2013-11-02T07:50:15.956Z</time>
      </trkpt>
      <trkpt lat="47.31923" lon="4.95073">
        <ele>411</ele>
        <time>2013-11-02T07:50:18.905Z</time>
      </trkpt>
      <trkpt lat="47.31926" lon="4.95068">
        <ele>411</ele>
        <time>2013-11-02T07:50:20.934Z</time>
      </trkpt>
      <trkpt lat="47.31929" lon="4.95061">
        <ele>410</ele>
        <time>2013-11-02T07:50:23.662Z</time>
      </trkpt>
      <trkpt lat="47.31932" lon="4.95054">
        <ele>410</ele>
        <time>2013-11-02T07:50:26.685Z</time>
      </trkpt>
      <trkpt lat="47.31936" lon="4.95048">
        <ele>410</ele>
        <time>2013-11-02T07:50:29.665Z</time>
      </trkpt>
      <trkpt lat="47.3194" lon="4.95041">
        <ele>410</ele>
        <time>2013-11-02T07:50:32.640Z</time>
      </trkpt>
      <trkpt lat="47.31943" lon="4.95038">
        <ele>410</ele>
        <time>2013-11-02T07:50:34.643Z</time>
      </trkpt>
      <trkpt lat="47.31947" lon="4.95032">
        <ele>410</ele>
        <time>2013-11-02T07:50:37.625Z</time>
      </trkpt>
      <trkpt lat="47.3195" lon="4.95028">
        <ele>410</ele>
        <time>2013-11-02T07:50:39.643Z</time>
      </trkpt>
      <trkpt lat="47.31955" lon="4.9502">
        <ele>410</ele>
        <time>2013-11-02T07:50:43.646Z</time>
      </trkpt>
      <trkpt lat="47.31958" lon="4.95016">
        <ele>410</ele>
        <time>2013-11-02T07:50:45.654Z</time>
      </trkpt>
      <trkpt lat="47.31961" lon="4.95012">
        <ele>410</ele>
        <time>2013-11-02T07:50:47.657Z</time>
      </trkpt>
      <trkpt lat="47.31965" lon="4.95007">
        <ele>410</ele>
        <time>2013-11-02T07:50:50.658Z</time>
      </trkpt>
      <trkpt lat="47.31969" lon="4.94998">
        <ele>410</ele>
        <time>2013-11-02T07:50:54.664Z</time>
      </trkpt>
      <trkpt lat="47.31972" lon="4.94994">
        <ele>410</ele>
        <time>2013-11-02T07:50:56.674Z</time>
      </trkpt>
      <trkpt lat="47.31976" lon="4.94988">
        <ele>409</ele>
        <time>2013-11-02T07:50:59.644Z</time>
      </trkpt>
      <trkpt lat="47.3198" lon="4.94983">
        <ele>409</ele>
        <time>2013-11-02T07:51:02.599Z</time>
      </trkpt>
      <trkpt lat="47.31984" lon="4.94978">
        <ele>409</ele>
        <time>2013-11-02T07:51:05.583Z</time>
      </trkpt>
      <trkpt lat="47.31987" lon="4.94974">
        <ele>409</ele>
        <time>2013-11-02T07:51:07.586Z</time>
      </trkpt>
      <trkpt lat="47.31992" lon="4.94964">
        <ele>409</ele>
        <time>2013-11-02T07:51:12.586Z</time>
      </trkpt>
      <trkpt lat="47.31993" lon="4.9496">
        <ele>409</ele>
        <time>2013-11-02T07:51:14.590Z</time>
      </trkpt>
      <trkpt lat="47.31993" lon="4.9496">
        <ele>409</ele>
        <time>2013-11-02T07:51:16.594Z</time>
      </trkpt>
      <trkpt lat="47.31992" lon="4.9496">
        <ele>409</ele>
        <time>2013-11-02T07:51:19.589Z</time>
      </trkpt>
      <trkpt lat="47.31992" lon="4.9496">
        <ele>409</ele>
        <time>2013-11-02T07:52:56.606Z</time>
      </trkpt>
      <trkpt lat="47.31992" lon="4.94959">
        <ele>409</ele>
        <time>2013-11-02T07:52:58.619Z</time>
      </trkpt>
      <trkpt lat="47.31998" lon="4.94963">
        <ele>409</ele>
        <time>2013-11-02T07:53:05.582Z</time>
      </trkpt>
      <trkpt lat="47.32001" lon="4.94967">
        <ele>408</ele>
        <time>2013-11-02T07:53:08.604Z</time>
      </trkpt>
      <trkpt lat="47.32008" lon="4.94974">
        <ele>408</ele>
        <time>2013-11-02T07:53:13.570Z</time>
      </trkpt>
      <trkpt lat="47.3201" lon="4.94977">
        <ele>408</ele>
        <time>2013-11-02T07:53:15.578Z</time>
      </trkpt>
      <trkpt lat="47.32016" lon="4.94982">
        <ele>408</ele>
        <time>2013-11-02T07:53:19.628Z</time>
      </trkpt>
      <trkpt lat="47.3202" lon="4.94986">
        <ele>408</ele>
        <time>2013-11-02T07:53:22.613Z</time>
      </trkpt>
      <trkpt lat="47.32026" lon="4.94991">
        <ele>408</ele>
        <time>2013-11-02T07:53:26.620Z</time>
      </trkpt>
      <trkpt lat="47.3203" lon="4.94994">
        <ele>408</ele>
        <time>2013-11-02T07:53:29.605Z</time>
      </trkpt>
      <trkpt lat="47.32034" lon="4.94997">
        <ele>408</ele>
        <time>2013-11-02T07:53:32.594Z</time>
      </trkpt>
      <trkpt lat="47.32038" lon="4.95">
        <ele>408</ele>
        <time>2013-11-02T07:53:35.586Z</time>
      </trkpt>
      <trkpt lat="47.32044" lon="4.95004">
        <ele>408</ele>
        <time>2013-11-02T07:53:39.592Z</time>
      </trkpt>
      <trkpt lat="47.32047" lon="4.95006">
        <ele>408</ele>
        <time>2013-11-02T07:53:41.602Z</time>
      </trkpt>
      <trkpt lat="47.32052" lon="4.9501">
        <ele>408</ele>
        <time>2013-11-02T07:53:45.613Z</time>
      </trkpt>
      <trkpt lat="47.32056" lon="4.95014">
        <ele>408</ele>
        <time>2013-11-02T07:53:48.612Z</time>
      </trkpt>
      <trkpt lat="47.32063" lon="4.9502">
        <ele>408</ele>
        <time>2013-11-02T07:53:53.596Z</time>
      </trkpt>
      <trkpt lat="47.32066" lon="4.95022">
        <ele>408</ele>
        <time>2013-11-02T07:53:55.599Z</time>
      </trkpt>
      <trkpt lat="47.32072" lon="4.95027">
        <ele>408</ele>
        <time>2013-11-02T07:53:59.628Z</time>
      </trkpt>
      <trkpt lat="47.32077" lon="4.95031">
        <ele>408</ele>
        <time>2013-11-02T07:54:02.601Z</time>
      </trkpt>
      <trkpt lat="47.32084" lon="4.95037">
        <ele>407</ele>
        <time>2013-11-02T07:54:07.593Z</time>
      </trkpt>
      <trkpt lat="47.32087" lon="4.9504">
        <ele>407</ele>
        <time>2013-11-02T07:54:09.595Z</time>
      </trkpt>
      <trkpt lat="47.32094" lon="4.95047">
        <ele>407</ele>
        <time>2013-11-02T07:54:14.600Z</time>
      </trkpt>
      <trkpt lat="47.32098" lon="4.95051">
        <ele>407</ele>
        <time>2013-11-02T07:54:17.604Z</time>
      </trkpt>
      <trkpt lat="47.32103" lon="4.95056">
        <ele>407</ele>
        <time>2013-11-02T07:54:21.608Z</time>
      </trkpt>
      <trkpt lat="47.32106" lon="4.95059">
        <ele>407</ele>
        <time>2013-11-02T07:54:23.608Z</time>
      </trkpt>
      <trkpt lat="47.32113" lon="4.95065">
        <ele>407</ele>
        <time>2013-11-02T07:54:29.592Z</time>
      </trkpt>
      <trkpt lat="47.32118" lon="4.95068">
        <ele>407</ele>
        <time>2013-11-02T07:54:32.610Z</time>
      </trkpt>
      <trkpt lat="47.32125" lon="4.95072">
        <ele>407</ele>
        <time>2013-11-02T07:54:37.588Z</time>
      </trkpt>
      <trkpt lat="47.32129" lon="4.95075">
        <ele>407</ele>
        <time>2013-11-02T07:54:40.581Z</time>
      </trkpt>
      <trkpt lat="47.32135" lon="4.95081">
        <ele>407</ele>
        <time>2013-11-02T07:54:45.599Z</time>
      </trkpt>
      <trkpt lat="47.32138" lon="4.95084">
        <ele>407</ele>
        <time>2013-11-02T07:54:47.614Z</time>
      </trkpt>
      <trkpt lat="47.32142" lon="4.95088">
        <ele>407</ele>
        <time>2013-11-02T07:54:50.607Z</time>
      </trkpt>
      <trkpt lat="47.32146" lon="4.95091">
        <ele>406</ele>
        <time>2013-11-02T07:54:53.604Z</time>
      </trkpt>
      <trkpt lat="47.32152" lon="4.95098">
        <ele>406</ele>
        <time>2013-11-02T07:54:58.608Z</time>
      </trkpt>
      <trkpt lat="47.32156" lon="4.95102">
        <ele>406</ele>
        <time>2013-11-02T07:55:01.579Z</time>
      </trkpt>
      <trkpt lat="47.32162" lon="4.95107">
        <ele>406</ele>
        <time>2013-11-02T07:55:05.587Z</time>
      </trkpt>
      <trkpt lat="47.32164" lon="4.95109">
        <ele>406</ele>
        <time>2013-11-02T07:55:07.589Z</time>
      </trkpt>
      <trkpt lat="47.32171" lon="4.95116">
        <ele>405</ele>
        <time>2013-11-02T07:55:12.606Z</time>
      </trkpt>
      <trkpt lat="47.32175" lon="4.9512">
        <ele>405</ele>
        <time>2013-11-02T07:55:15.587Z</time>
      </trkpt>
      <trkpt lat="47.3218" lon="4.95125">
        <ele>405</ele>
        <time>2013-11-02T07:55:19.595Z</time>
      </trkpt>
      <trkpt lat="47.32185" lon="4.95129">
        <ele>405</ele>
        <time>2013-11-02T07:55:22.582Z</time>
      </trkpt>
      <trkpt lat="47.32192" lon="4.95135">
        <ele>405</ele>
        <time>2013-11-02T07:55:27.591Z</time>
      </trkpt>
      <trkpt lat="47.32195" lon="4.95138">
        <ele>405</ele>
        <time>2013-11-02T07:55:29.607Z</time>
      </trkpt>
      <trkpt lat="47.32199" lon="4.95143">
        <ele>405</ele>
        <time>2013-11-02T07:55:32.610Z</time>
      </trkpt>
      <trkpt lat="47.32203" lon="4.95147">
        <ele>405</ele>
        <time>2013-11-02T07:55:35.595Z</time>
      </trkpt>
      <trkpt lat="47.32209" lon="4.95153">
        <ele>405</ele>
        <time>2013-11-02T07:55:40.593Z</time>
      </trkpt>
      <trkpt lat="47.32212" lon="4.95156">
        <ele>405</ele>
        <time>2013-11-02T07:55:42.600Z</time>
      </trkpt>
      <trkpt lat="47.32219" lon="4.95164">
        <ele>405</ele>
        <time>2013-11-02T07:55:47.595Z</time>
      </trkpt>
      <trkpt lat="47.32223" lon="4.95168">
        <ele>404</ele>
        <time>2013-11-02T07:55:50.600Z</time>
      </trkpt>
      <trkpt lat="47.32227" lon="4.95172">
        <ele>404</ele>
        <time>2013-11-02T07:55:53.606Z</time>
      </trkpt>
      <trkpt lat="47.32231" lon="4.95177">
        <ele>404</ele>
        <time>2013-11-02T07:55:56.628Z</time>
      </trkpt>
      <trkpt lat="47.32234" lon="4.95181">
        <ele>404</ele>
        <time>2013-11-02T07:55:59.591Z</time>
      </trkpt>
      <trkpt lat="47.32238" lon="4.95185">
        <ele>404</ele>
        <time>2013-11-02T07:56:02.610Z</time>
      </trkpt>
      <trkpt lat="47.32242" lon="4.95189">
        <ele>404</ele>
        <time>2013-11-02T07:56:05.594Z</time>
      </trkpt>
      <trkpt lat="47.32247" lon="4.95193">
        <ele>404</ele>
        <time>2013-11-02T07:56:08.597Z</time>
      </trkpt>
      <trkpt lat="47.32253" lon="4.952">
        <ele>404</ele>
        <time>2013-11-02T07:56:13.586Z</time>
      </trkpt>
      <trkpt lat="47.32256" lon="4.95203">
        <ele>404</ele>
        <time>2013-11-02T07:56:15.600Z</time>
      </trkpt>
      <trkpt lat="47.32263" lon="4.9521">
        <ele>404</ele>
        <time>2013-11-02T07:56:20.599Z</time>
      </trkpt>
      <trkpt lat="47.32267" lon="4.95214">
        <ele>404</ele>
        <time>2013-11-02T07:56:23.591Z</time>
      </trkpt>
      <trkpt lat="47.32271" lon="4.95218">
        <ele>404</ele>
        <time>2013-11-02T07:56:26.607Z</time>
      </trkpt>
      <trkpt lat="47.32275" lon="4.95222">
        <ele>404</ele>
        <time>2013-11-02T07:56:29.591Z</time>
      </trkpt>
      <trkpt lat="47.32283" lon="4.95229">
        <ele>404</ele>
        <time>2013-11-02T07:56:34.592Z</time>
      </trkpt>
      <trkpt lat="47.32285" lon="4.95232">
        <ele>404</ele>
        <time>2013-11-02T07:56:36.592Z</time>
      </trkpt>
      <trkpt lat="47.32292" lon="4.95239">
        <ele>404</ele>
        <time>2013-11-02T07:56:41.585Z</time>
      </trkpt>
      <trkpt lat="47.32296" lon="4.95243">
        <ele>404</ele>
        <time>2013-11-02T07:56:44.599Z</time>
      </trkpt>
      <trkpt lat="47.323" lon="4.95247">
        <ele>404</ele>
        <time>2013-11-02T07:56:47.619Z</time>
      </trkpt>
      <trkpt lat="47.32304" lon="4.95251">
        <ele>404</ele>
        <time>2013-11-02T07:56:50.605Z</time>
      </trkpt>
      <trkpt lat="47.32308" lon="4.95255">
        <ele>404</ele>
        <time>2013-11-02T07:56:53.613Z</time>
      </trkpt>
      <trkpt lat="47.32312" lon="4.95259">
        <ele>404</ele>
        <time>2013-11-02T07:56:56.616Z</time>
      </trkpt>
      <trkpt lat="47.32316" lon="4.95263">
        <ele>404</ele>
        <time>2013-11-02T07:56:59.590Z</time>
      </trkpt>
      <trkpt lat="47.3232" lon="4.95267">
        <ele>404</ele>
        <time>2013-11-02T07:57:02.589Z</time>
      </trkpt>
      <trkpt lat="47.32326" lon="4.95274">
        <ele>404</ele>
        <time>2013-11-02T07:57:07.598Z</time>
      </trkpt>
      <trkpt lat="47.32329" lon="4.95277">
        <ele>404</ele>
        <time>2013-11-02T07:57:09.613Z</time>
      </trkpt>
      <trkpt lat="47.32332" lon="4.95281">
        <ele>404</ele>
        <time>2013-11-02T07:57:12.602Z</time>
      </trkpt>
      <trkpt lat="47.32336" lon="4.95285">
        <ele>404</ele>
        <time>2013-11-02T07:57:15.570Z</time>
      </trkpt>
      <trkpt lat="47.32341" lon="4.95291">
        <ele>404</ele>
        <time>2013-11-02T07:57:19.602Z</time>
      </trkpt>
      <trkpt lat="47.32344" lon="4.95295">
        <ele>404</ele>
        <time>2013-11-02T07:57:22.589Z</time>
      </trkpt>
      <trkpt lat="47.32351" lon="4.95301">
        <ele>404</ele>
        <time>2013-11-02T07:57:27.599Z</time>
      </trkpt>
      <trkpt lat="47.32353" lon="4.95303">
        <ele>404</ele>
        <time>2013-11-02T07:57:29.599Z</time>
      </trkpt>
      <trkpt lat="47.32357" lon="4.95306">
        <ele>404</ele>
        <time>2013-11-02T07:57:32.593Z</time>
      </trkpt>
      <trkpt lat="47.32362" lon="4.9531">
        <ele>404</ele>
        <time>2013-11-02T07:57:35.532Z</time>
      </trkpt>
      <trkpt lat="47.32367" lon="4.95315">
        <ele>404</ele>
        <time>2013-11-02T07:57:39.567Z</time>
      </trkpt>
      <trkpt lat="47.32369" lon="4.95318">
        <ele>404</ele>
        <time>2013-11-02T07:57:41.569Z</time>
      </trkpt>
      <trkpt lat="47.32373" lon="4.95321">
        <ele>404</ele>
        <time>2013-11-02T07:57:44.570Z</time>
      </trkpt>
      <trkpt lat="47.32377" lon="4.95325">
        <ele>404</ele>
        <time>2013-11-02T07:57:47.772Z</time>
      </trkpt>
      <trkpt lat="47.32383" lon="4.9533">
        <ele>404</ele>
        <time>2013-11-02T07:57:51.826Z</time>
      </trkpt>
      <trkpt lat="47.32386" lon="4.95333">
        <ele>404</ele>
        <time>2013-11-02T07:57:53.842Z</time>
      </trkpt>
      <trkpt lat="47.3239" lon="4.95336">
        <ele>405</ele>
        <time>2013-11-02T07:57:56.823Z</time>
      </trkpt>
      <trkpt lat="47.32393" lon="4.9534">
        <ele>404</ele>
        <time>2013-11-02T07:57:59.838Z</time>
      </trkpt>
      <trkpt lat="47.32397" lon="4.95344">
        <ele>404</ele>
        <time>2013-11-02T07:58:02.807Z</time>
      </trkpt>
      <trkpt lat="47.32401" lon="4.95348">
        <ele>404</ele>
        <time>2013-11-02T07:58:05.801Z</time>
      </trkpt>
      <trkpt lat="47.32405" lon="4.95352">
        <ele>404</ele>
        <time>2013-11-02T07:58:08.829Z</time>
      </trkpt>
      <trkpt lat="47.32409" lon="4.95356">
        <ele>404</ele>
        <time>2013-11-02T07:58:11.798Z</time>
      </trkpt>
      <trkpt lat="47.32415" lon="4.95361">
        <ele>405</ele>
        <time>2013-11-02T07:58:15.808Z</time>
      </trkpt>
      <trkpt lat="47.32418" lon="4.95364">
        <ele>404</ele>
        <time>2013-11-02T07:58:17.812Z</time>
      </trkpt>
      <trkpt lat="47.32424" lon="4.9537">
        <ele>403</ele>
        <time>2013-11-02T07:58:22.813Z</time>
      </trkpt>
      <trkpt lat="47.32425" lon="4.95372">
        <ele>403</ele>
        <time>2013-11-02T07:58:23.805Z</time>
      </trkpt>
      <trkpt lat="47.32433" lon="4.95379">
        <ele>403</ele>
        <time>2013-11-02T07:58:29.806Z</time>
      </trkpt>
      <trkpt lat="47.32437" lon="4.95382">
        <ele>403</ele>
        <time>2013-11-02T07:58:32.817Z</time>
      </trkpt>
      <trkpt lat="47.32444" lon="4.95388">
        <ele>403</ele>
        <time>2013-11-02T07:58:37.791Z</time>
      </trkpt>
      <trkpt lat="47.32446" lon="4.95391">
        <ele>403</ele>
        <time>2013-11-02T07:58:39.798Z</time>
      </trkpt>
      <trkpt lat="47.32453" lon="4.95397">
        <ele>403</ele>
        <time>2013-11-02T07:58:44.820Z</time>
      </trkpt>
      <trkpt lat="47.32457" lon="4.954">
        <ele>403</ele>
        <time>2013-11-02T07:58:47.807Z</time>
      </trkpt>
      <trkpt lat="47.32463" lon="4.95406">
        <ele>403</ele>
        <time>2013-11-02T07:58:52.805Z</time>
      </trkpt>
      <trkpt lat="47.32466" lon="4.95408">
        <ele>403</ele>
        <time>2013-11-02T07:58:54.805Z</time>
      </trkpt>
      <trkpt lat="47.32473" lon="4.95414">
        <ele>403</ele>
        <time>2013-11-02T07:58:59.801Z</time>
      </trkpt>
      <trkpt lat="47.32477" lon="4.95418">
        <ele>403</ele>
        <time>2013-11-02T07:59:02.806Z</time>
      </trkpt>
      <trkpt lat="47.32484" lon="4.95423">
        <ele>403</ele>
        <time>2013-11-02T07:59:07.803Z</time>
      </trkpt>
      <trkpt lat="47.32488" lon="4.95426">
        <ele>403</ele>
        <time>2013-11-02T07:59:10.802Z</time>
      </trkpt>
      <trkpt lat="47.32495" lon="4.95433">
        <ele>403</ele>
        <time>2013-11-02T07:59:15.794Z</time>
      </trkpt>
      <trkpt lat="47.32498" lon="4.95436">
        <ele>403</ele>
        <time>2013-11-02T07:59:17.806Z</time>
      </trkpt>
      <trkpt lat="47.32504" lon="4.95441">
        <ele>402</ele>
        <time>2013-11-02T07:59:21.811Z</time>
      </trkpt>
      <trkpt lat="47.32507" lon="4.95443">
        <ele>402</ele>
        <time>2013-11-02T07:59:23.818Z</time>
      </trkpt>
      <trkpt lat="47.32511" lon="4.95447">
        <ele>402</ele>
        <time>2013-11-02T07:59:26.869Z</time>
      </trkpt>
      <trkpt lat="47.32515" lon="4.9545">
        <ele>402</ele>
        <time>2013-11-02T07:59:29.817Z</time>
      </trkpt>
      <trkpt lat="47.32519" lon="4.95454">
        <ele>402</ele>
        <time>2013-11-02T07:59:32.801Z</time>
      </trkpt>
      <trkpt lat="47.32523" lon="4.95457">
        <ele>402</ele>
        <time>2013-11-02T07:59:34.815Z</time>
      </trkpt>
      <trkpt lat="47.32528" lon="4.95462">
        <ele>402</ele>
        <time>2013-11-02T07:59:38.868Z</time>
      </trkpt>
      <trkpt lat="47.32532" lon="4.95467">
        <ele>402</ele>
        <time>2013-11-02T07:59:41.864Z</time>
      </trkpt>
      <trkpt lat="47.32539" lon="4.95474">
        <ele>402</ele>
        <time>2013-11-02T07:59:46.865Z</time>
      </trkpt>
      <trkpt lat="47.32541" lon="4.95476">
        <ele>402</ele>
        <time>2013-11-02T07:59:48.874Z</time>
      </trkpt>
      <trkpt lat="47.32547" lon="4.95484">
        <ele>402</ele>
        <time>2013-11-02T07:59:53.880Z</time>
      </trkpt>
      <trkpt lat="47.3255" lon="4.95486">
        <ele>402</ele>
        <time>2013-11-02T07:59:55.887Z</time>
      </trkpt>
      <trkpt lat="47.32556" lon="4.95493">
        <ele>402</ele>
        <time>2013-11-02T08:00:00.911Z</time>
      </trkpt>
      <trkpt lat="47.3256" lon="4.95497">
        <ele>402</ele>
        <time>2013-11-02T08:00:04.525Z</time>
      </trkpt>
      <trkpt lat="47.32565" lon="4.95502">
        <ele>402</ele>
        <time>2013-11-02T08:00:08.597Z</time>
      </trkpt>
      <trkpt lat="47.32569" lon="4.95506">
        <ele>402</ele>
        <time>2013-11-02T08:00:11.568Z</time>
      </trkpt>
      <trkpt lat="47.32574" lon="4.9551">
        <ele>402</ele>
        <time>2013-11-02T08:00:15.574Z</time>
      </trkpt>
      <trkpt lat="47.32579" lon="4.95513">
        <ele>402</ele>
        <time>2013-11-02T08:00:18.568Z</time>
      </trkpt>
      <trkpt lat="47.32586" lon="4.95517">
        <ele>402</ele>
        <time>2013-11-02T08:00:23.573Z</time>
      </trkpt>
      <trkpt lat="47.3259" lon="4.95519">
        <ele>402</ele>
        <time>2013-11-02T08:00:25.582Z</time>
      </trkpt>
      <trkpt lat="47.32594" lon="4.95521">
        <ele>402</ele>
        <time>2013-11-02T08:00:28.582Z</time>
      </trkpt>
      <trkpt lat="47.32599" lon="4.95523">
        <ele>401</ele>
        <time>2013-11-02T08:00:31.584Z</time>
      </trkpt>
      <trkpt lat="47.32604" lon="4.95526">
        <ele>401</ele>
        <time>2013-11-02T08:00:34.580Z</time>
      </trkpt>
      <trkpt lat="47.32608" lon="4.95528">
        <ele>401</ele>
        <time>2013-11-02T08:00:37.561Z</time>
      </trkpt>
      <trkpt lat="47.32611" lon="4.9554">
        <ele>401</ele>
        <time>2013-11-02T08:00:46.587Z</time>
      </trkpt>
      <trkpt lat="47.3261" lon="4.95544">
        <ele>401</ele>
        <time>2013-11-02T08:00:48.608Z</time>
      </trkpt>
      <trkpt lat="47.32608" lon="4.95555">
        <ele>401</ele>
        <time>2013-11-02T08:00:53.577Z</time>
      </trkpt>
      <trkpt lat="47.32608" lon="4.95559">
        <ele>402</ele>
        <time>2013-11-02T08:00:55.582Z</time>
      </trkpt>
      <trkpt lat="47.32606" lon="4.9557">
        <ele>402</ele>
        <time>2013-11-02T08:01:01.453Z</time>
      </trkpt>
      <trkpt lat="47.32606" lon="4.95574">
        <ele>402</ele>
        <time>2013-11-02T08:01:03.459Z</time>
      </trkpt>
      <trkpt lat="47.32603" lon="4.95586">
        <ele>402</ele>
        <time>2013-11-02T08:01:10.453Z</time>
      </trkpt>
      <trkpt lat="47.32603" lon="4.95591">
        <ele>402</ele>
        <time>2013-11-02T08:01:12.466Z</time>
      </trkpt>
      <trkpt lat="47.32601" lon="4.95601">
        <ele>403</ele>
        <time>2013-11-02T08:01:17.476Z</time>
      </trkpt>
      <trkpt lat="47.32601" lon="4.95605">
        <ele>403</ele>
        <time>2013-11-02T08:01:19.479Z</time>
      </trkpt>
      <trkpt lat="47.32598" lon="4.95617">
        <ele>403</ele>
        <time>2013-11-02T08:01:25.471Z</time>
      </trkpt>
      <trkpt lat="47.32597" lon="4.95624">
        <ele>403</ele>
        <time>2013-11-02T08:01:28.473Z</time>
      </trkpt>
      <trkpt lat="47.32595" lon="4.95635">
        <ele>403</ele>
        <time>2013-11-02T08:01:33.469Z</time>
      </trkpt>
      <trkpt lat="47.32594" lon="4.95641">
        <ele>403</ele>
        <time>2013-11-02T08:01:36.457Z</time>
      </trkpt>
      <trkpt lat="47.32593" lon="4.95652">
        <ele>404</ele>
        <time>2013-11-02T08:01:41.452Z</time>
      </trkpt>
      <trkpt lat="47.32592" lon="4.95657">
        <ele>404</ele>
        <time>2013-11-02T08:01:43.460Z</time>
      </trkpt>
      <trkpt lat="47.3259" lon="4.95668">
        <ele>405</ele>
        <time>2013-11-02T08:01:48.476Z</time>
      </trkpt>
      <trkpt lat="47.32589" lon="4.95675">
        <ele>405</ele>
        <time>2013-11-02T08:01:51.489Z</time>
      </trkpt>
      <trkpt lat="47.32588" lon="4.95682">
        <ele>404</ele>
        <time>2013-11-02T08:01:54.480Z</time>
      </trkpt>
      <trkpt lat="47.32587" lon="4.95689">
        <ele>404</ele>
        <time>2013-11-02T08:01:57.510Z</time>
      </trkpt>
      <trkpt lat="47.32584" lon="4.957">
        <ele>404</ele>
        <time>2013-11-02T08:02:02.483Z</time>
      </trkpt>
      <trkpt lat="47.32583" lon="4.95707">
        <ele>405</ele>
        <time>2013-11-02T08:02:05.460Z</time>
      </trkpt>
      <trkpt lat="47.32582" lon="4.95717">
        <ele>405</ele>
        <time>2013-11-02T08:02:09.484Z</time>
      </trkpt>
      <trkpt lat="47.32581" lon="4.95721">
        <ele>405</ele>
        <time>2013-11-02T08:02:11.483Z</time>
      </trkpt>
      <trkpt lat="47.32579" lon="4.95733">
        <ele>405</ele>
        <time>2013-11-02T08:02:15.815Z</time>
      </trkpt>
      <trkpt lat="47.32578" lon="4.95739">
        <ele>405</ele>
        <time>2013-11-02T08:02:18.813Z</time>
      </trkpt>
      <trkpt lat="47.32576" lon="4.95749">
        <ele>405</ele>
        <time>2013-11-02T08:02:22.816Z</time>
      </trkpt>
      <trkpt lat="47.32575" lon="4.95756">
        <ele>405</ele>
        <time>2013-11-02T08:02:25.848Z</time>
      </trkpt>
      <trkpt lat="47.32574" lon="4.95762">
        <ele>405</ele>
        <time>2013-11-02T08:02:28.809Z</time>
      </trkpt>
      <trkpt lat="47.32573" lon="4.95769">
        <ele>405</ele>
        <time>2013-11-02T08:02:31.819Z</time>
      </trkpt>
      <trkpt lat="47.32571" lon="4.9578">
        <ele>405</ele>
        <time>2013-11-02T08:02:36.799Z</time>
      </trkpt>
      <trkpt lat="47.3257" lon="4.95785">
        <ele>405</ele>
        <time>2013-11-02T08:02:38.799Z</time>
      </trkpt>
      <trkpt lat="47.32568" lon="4.95796">
        <ele>405</ele>
        <time>2013-11-02T08:02:43.790Z</time>
      </trkpt>
      <trkpt lat="47.32567" lon="4.95803">
        <ele>405</ele>
        <time>2013-11-02T08:02:46.818Z</time>
      </trkpt>
      <trkpt lat="47.32564" lon="4.95816">
        <ele>405</ele>
        <time>2013-11-02T08:02:52.815Z</time>
      </trkpt>
      <trkpt lat="47.32563" lon="4.9582">
        <ele>405</ele>
        <time>2013-11-02T08:02:54.815Z</time>
      </trkpt>
      <trkpt lat="47.3256" lon="4.95831">
        <ele>405</ele>
        <time>2013-11-02T08:03:00.787Z</time>
      </trkpt>
      <trkpt lat="47.3256" lon="4.95834">
        <ele>405</ele>
        <time>2013-11-02T08:03:02.788Z</time>
      </trkpt>
      <trkpt lat="47.32556" lon="4.95841">
        <ele>404</ele>
        <time>2013-11-02T08:03:11.781Z</time>
      </trkpt>
      <trkpt lat="47.32556" lon="4.95841">
        <ele>404</ele>
        <time>2013-11-02T08:03:13.788Z</time>
      </trkpt>
      <trkpt lat="47.32557" lon="4.95841">
        <ele>404</ele>
        <time>2013-11-02T08:04:58.795Z</time>
      </trkpt>
      <trkpt lat="47.32554" lon="4.95837">
        <ele>404</ele>
        <time>2013-11-02T08:05:01.800Z</time>
      </trkpt>
      <trkpt lat="47.32554" lon="4.95837">
        <ele>404</ele>
        <time>2013-11-02T08:05:04.791Z</time>
      </trkpt>
      <trkpt lat="47.32554" lon="4.9584">
        <ele>404</ele>
        <time>2013-11-02T08:05:06.797Z</time>
      </trkpt>
      <trkpt lat="47.32552" lon="4.95849">
        <ele>404</ele>
        <time>2013-11-02T08:05:11.783Z</time>
      </trkpt>
      <trkpt lat="47.3255" lon="4.95852">
        <ele>404</ele>
        <time>2013-11-02T08:05:13.801Z</time>
      </trkpt>
      <trkpt lat="47.32544" lon="4.95857">
        <ele>404</ele>
        <time>2013-11-02T08:05:18.803Z</time>
      </trkpt>
      <trkpt lat="47.32542" lon="4.95859">
        <ele>404</ele>
        <time>2013-11-02T08:05:20.822Z</time>
      </trkpt>
      <trkpt lat="47.32535" lon="4.95863">
        <ele>404</ele>
        <time>2013-11-02T08:05:26.847Z</time>
      </trkpt>
      <trkpt lat="47.32533" lon="4.95866">
        <ele>404</ele>
        <time>2013-11-02T08:05:29.813Z</time>
      </trkpt>
      <trkpt lat="47.32527" lon="4.95869">
        <ele>404</ele>
        <time>2013-11-02T08:05:34.797Z</time>
      </trkpt>
      <trkpt lat="47.32523" lon="4.95871">
        <ele>404</ele>
        <time>2013-11-02T08:05:37.802Z</time>
      </trkpt>
      <trkpt lat="47.32516" lon="4.95874">
        <ele>404</ele>
        <time>2013-11-02T08:05:42.812Z</time>
      </trkpt>
      <trkpt lat="47.32514" lon="4.95875">
        <ele>404</ele>
        <time>2013-11-02T08:05:44.851Z</time>
      </trkpt>
      <trkpt lat="47.32507" lon="4.95879">
        <ele>404</ele>
        <time>2013-11-02T08:05:49.893Z</time>
      </trkpt>
      <trkpt lat="47.32503" lon="4.95881">
        <ele>404</ele>
        <time>2013-11-02T08:05:52.830Z</time>
      </trkpt>
      <trkpt lat="47.32495" lon="4.95885">
        <ele>405</ele>
        <time>2013-11-02T08:05:58.804Z</time>
      </trkpt>
      <trkpt lat="47.3249" lon="4.95887">
        <ele>405</ele>
        <time>2013-11-02T08:06:01.790Z</time>
      </trkpt>
      <trkpt lat="47.32486" lon="4.95889">
        <ele>405</ele>
        <time>2013-11-02T08:06:04.805Z</time>
      </trkpt>
      <trkpt lat="47.32482" lon="4.95891">
        <ele>405</ele>
        <time>2013-11-02T08:06:07.804Z</time>
      </trkpt>
      <trkpt lat="47.32475" lon="4.95895">
        <ele>405</ele>
        <time>2013-11-02T08:06:12.789Z</time>
      </trkpt>
      <trkpt lat="47.32472" lon="4.95896">
        <ele>405</ele>
        <time>2013-11-02T08:06:14.865Z</time>
      </trkpt>
      <trkpt lat="47.32464" lon="4.95899">
        <ele>405</ele>
        <time>2013-11-02T08:06:19.863Z</time>
      </trkpt>
      <trkpt lat="47.32461" lon="4.95901">
        <ele>405</ele>
        <time>2013-11-02T08:06:22.823Z</time>
      </trkpt>
      <trkpt lat="47.32454" lon="4.95905">
        <ele>405</ele>
        <time>2013-11-02T08:06:27.815Z</time>
      </trkpt>
      <trkpt lat="47.3245" lon="4.95908">
        <ele>405</ele>
        <time>2013-11-02T08:06:30.781Z</time>
      </trkpt>
      <trkpt lat="47.32444" lon="4.9591">
        <ele>405</ele>
        <time>2013-11-02T08:06:34.794Z</time>
      </trkpt>
      <trkpt lat="47.3244" lon="4.95911">
        <ele>406</ele>
        <time>2013-11-02T08:06:37.788Z</time>
      </trkpt>
      <trkpt lat="47.32432" lon="4.95914">
        <ele>406</ele>
        <time>2013-11-02T08:06:43.792Z</time>
      </trkpt>
      <trkpt lat="47.32429" lon="4.95915">
        <ele>406</ele>
        <time>2013-11-02T08:06:45.817Z</time>
      </trkpt>
      <trkpt lat="47.32422" lon="4.95918">
        <ele>406</ele>
        <time>2013-11-02T08:06:51.702Z</time>
      </trkpt>
      <trkpt lat="47.32419" lon="4.95919">
        <ele>406</ele>
        <time>2013-11-02T08:06:53.703Z</time>
      </trkpt>
      <trkpt lat="47.32412" lon="4.95921">
        <ele>406</ele>
        <time>2013-11-02T08:06:58.729Z</time>
      </trkpt>
      <trkpt lat="47.32408" lon="4.95922">
        <ele>406</ele>
        <time>2013-11-02T08:07:01.711Z</time>
      </trkpt>
      <trkpt lat="47.32402" lon="4.95924">
        <ele>405</ele>
        <time>2013-11-02T08:07:05.725Z</time>
      </trkpt>
      <trkpt lat="47.32398" lon="4.95926">
        <ele>405</ele>
        <time>2013-11-02T08:07:08.725Z</time>
      </trkpt>
      <trkpt lat="47.32391" lon="4.95927">
        <ele>405</ele>
        <time>2013-11-02T08:07:13.901Z</time>
      </trkpt>
      <trkpt lat="47.32388" lon="4.95928">
        <ele>405</ele>
        <time>2013-11-02T08:07:16.006Z</time>
      </trkpt>
      <trkpt lat="47.32379" lon="4.9593">
        <ele>405</ele>
        <time>2013-11-02T08:07:21.932Z</time>
      </trkpt>
      <trkpt lat="47.32376" lon="4.95931">
        <ele>405</ele>
        <time>2013-11-02T08:07:23.920Z</time>
      </trkpt>
      <trkpt lat="47.32369" lon="4.95933">
        <ele>405</ele>
        <time>2013-11-02T08:07:28.936Z</time>
      </trkpt>
      <trkpt lat="47.32364" lon="4.95933">
        <ele>405</ele>
        <time>2013-11-02T08:07:31.890Z</time>
      </trkpt>
      <trkpt lat="47.32356" lon="4.95937">
        <ele>405</ele>
        <time>2013-11-02T08:07:37.905Z</time>
      </trkpt>
      <trkpt lat="47.32352" lon="4.95938">
        <ele>405</ele>
        <time>2013-11-02T08:07:40.914Z</time>
      </trkpt>
      <trkpt lat="47.32345" lon="4.9594">
        <ele>405</ele>
        <time>2013-11-02T08:07:45.965Z</time>
      </trkpt>
      <trkpt lat="47.3234" lon="4.95941">
        <ele>405</ele>
        <time>2013-11-02T08:07:48.937Z</time>
      </trkpt>
      <trkpt lat="47.32332" lon="4.95943">
        <ele>404</ele>
        <time>2013-11-02T08:07:53.928Z</time>
      </trkpt>
      <trkpt lat="47.32329" lon="4.95943">
        <ele>404</ele>
        <time>2013-11-02T08:07:55.972Z</time>
      </trkpt>
      <trkpt lat="47.32325" lon="4.95945">
        <ele>404</ele>
        <time>2013-11-02T08:07:58.939Z</time>
      </trkpt>
      <trkpt lat="47.3232" lon="4.95947">
        <ele>403</ele>
        <time>2013-11-02T08:08:01.894Z</time>
      </trkpt>
      <trkpt lat="47.32313" lon="4.9595">
        <ele>403</ele>
        <time>2013-11-02T08:08:05.932Z</time>
      </trkpt>
      <trkpt lat="47.32309" lon="4.95952">
        <ele>403</ele>
        <time>2013-11-02T08:08:08.926Z</time>
      </trkpt>
      <trkpt lat="47.32302" lon="4.95954">
        <ele>403</ele>
        <time>2013-11-02T08:08:13.899Z</time>
      </trkpt>
      <trkpt lat="47.32298" lon="4.95955">
        <ele>403</ele>
        <time>2013-11-02T08:08:15.967Z</time>
      </trkpt>
      <trkpt lat="47.32291" lon="4.95958">
        <ele>403</ele>
        <time>2013-11-02T08:08:20.926Z</time>
      </trkpt>
      <trkpt lat="47.32288" lon="4.95959">
        <ele>403</ele>
        <time>2013-11-02T08:08:22.933Z</time>
      </trkpt>
      <trkpt lat="47.32284" lon="4.95961">
        <ele>403</ele>
        <time>2013-11-02T08:08:25.995Z</time>
      </trkpt>
      <trkpt lat="47.32279" lon="4.95963">
        <ele>402</ele>
        <time>2013-11-02T08:08:28.941Z</time>
      </trkpt>
      <trkpt lat="47.32273" lon="4.95965">
        <ele>402</ele>
        <time>2013-11-02T08:08:33.889Z</time>
      </trkpt>
      <trkpt lat="47.3227" lon="4.95966">
        <ele>402</ele>
        <time>2013-11-02T08:08:35.895Z</time>
      </trkpt>
      <trkpt lat="47.32263" lon="4.95968">
        <ele>402</ele>
        <time>2013-11-02T08:08:40.681Z</time>
      </trkpt>
      <trkpt lat="47.32258" lon="4.9597">
        <ele>402</ele>
        <time>2013-11-02T08:08:43.678Z</time>
      </trkpt>
      <trkpt lat="47.3225" lon="4.95971">
        <ele>402</ele>
        <time>2013-11-02T08:08:48.711Z</time>
      </trkpt>
      <trkpt lat="47.32247" lon="4.95971">
        <ele>398</ele>
        <time>2013-11-02T08:08:50.774Z</time>
      </trkpt>
      <trkpt lat="47.32238" lon="4.95969">
        <ele>398</ele>
        <time>2013-11-02T08:08:56.736Z</time>
      </trkpt>
      <trkpt lat="47.32234" lon="4.95966">
        <ele>397</ele>
        <time>2013-11-02T08:08:59.722Z</time>
      </trkpt>
      <trkpt lat="47.32227" lon="4.95958">
        <ele>397</ele>
        <time>2013-11-02T08:09:05.733Z</time>
      </trkpt>
      <trkpt lat="47.32224" lon="4.95954">
        <ele>397</ele>
        <time>2013-11-02T08:09:08.758Z</time>
      </trkpt>
      <trkpt lat="47.3222" lon="4.95945">
        <ele>397</ele>
        <time>2013-11-02T08:09:13.713Z</time>
      </trkpt>
      <trkpt lat="47.32218" lon="4.95941">
        <ele>397</ele>
        <time>2013-11-02T08:09:15.789Z</time>
      </trkpt>
      <trkpt lat="47.32216" lon="4.95935">
        <ele>397</ele>
        <time>2013-11-02T08:09:18.744Z</time>
      </trkpt>
      <trkpt lat="47.32215" lon="4.95929">
        <ele>397</ele>
        <time>2013-11-02T08:09:21.741Z</time>
      </trkpt>
      <trkpt lat="47.32212" lon="4.95919">
        <ele>397</ele>
        <time>2013-11-02T08:09:26.746Z</time>
      </trkpt>
      <trkpt lat="47.32209" lon="4.95914">
        <ele>398</ele>
        <time>2013-11-02T08:09:29.742Z</time>
      </trkpt>
      <trkpt lat="47.32206" lon="4.95902">
        <ele>398</ele>
        <time>2013-11-02T08:09:35.708Z</time>
      </trkpt>
      <trkpt lat="47.32205" lon="4.95898">
        <ele>398</ele>
        <time>2013-11-02T08:09:37.720Z</time>
      </trkpt>
      <trkpt lat="47.32202" lon="4.95889">
        <ele>398</ele>
        <time>2013-11-02T08:09:42.710Z</time>
      </trkpt>
      <trkpt lat="47.32201" lon="4.95885">
        <ele>398</ele>
        <time>2013-11-02T08:09:44.713Z</time>
      </trkpt>
      <trkpt lat="47.32198" lon="4.95877">
        <ele>398</ele>
        <time>2013-11-02T08:09:49.741Z</time>
      </trkpt>
      <trkpt lat="47.32197" lon="4.95873">
        <ele>398</ele>
        <time>2013-11-02T08:09:51.749Z</time>
      </trkpt>
      <trkpt lat="47.32193" lon="4.95862">
        <ele>398</ele>
        <time>2013-11-02T08:09:57.743Z</time>
      </trkpt>
      <trkpt lat="47.32192" lon="4.95856">
        <ele>398</ele>
        <time>2013-11-02T08:10:00.719Z</time>
      </trkpt>
      <trkpt lat="47.32189" lon="4.95846">
        <ele>398</ele>
        <time>2013-11-02T08:10:05.727Z</time>
      </trkpt>
      <trkpt lat="47.32187" lon="4.9584">
        <ele>398</ele>
        <time>2013-11-02T08:10:08.711Z</time>
      </trkpt>
      <trkpt lat="47.32184" lon="4.95831">
        <ele>399</ele>
        <time>2013-11-02T08:10:13.710Z</time>
      </trkpt>
      <trkpt lat="47.32182" lon="4.95827">
        <ele>399</ele>
        <time>2013-11-02T08:10:15.733Z</time>
      </trkpt>
      <trkpt lat="47.3218" lon="4.9582">
        <ele>399</ele>
        <time>2013-11-02T08:10:19.751Z</time>
      </trkpt>
      <trkpt lat="47.32178" lon="4.95814">
        <ele>399</ele>
        <time>2013-11-02T08:10:22.743Z</time>
      </trkpt>
      <trkpt lat="47.32173" lon="4.95803">
        <ele>400</ele>
        <time>2013-11-02T08:10:28.740Z</time>
      </trkpt>
      <trkpt lat="47.32171" lon="4.95797">
        <ele>400</ele>
        <time>2013-11-02T08:10:31.711Z</time>
      </trkpt>
      <trkpt lat="47.32168" lon="4.95788">
        <ele>400</ele>
        <time>2013-11-02T08:10:36.707Z</time>
      </trkpt>
      <trkpt lat="47.32167" lon="4.95784">
        <ele>400</ele>
        <time>2013-11-02T08:10:38.726Z</time>
      </trkpt>
      <trkpt lat="47.32164" lon="4.95775">
        <ele>396</ele>
        <time>2013-11-02T08:10:43.723Z</time>
      </trkpt>
      <trkpt lat="47.32162" lon="4.95771">
        <ele>396</ele>
        <time>2013-11-02T08:10:45.780Z</time>
      </trkpt>
      <trkpt lat="47.3216" lon="4.95765">
        <ele>397</ele>
        <time>2013-11-02T08:10:48.742Z</time>
      </trkpt>
      <trkpt lat="47.32158" lon="4.95759">
        <ele>397</ele>
        <time>2013-11-02T08:10:51.726Z</time>
      </trkpt>
      <trkpt lat="47.32155" lon="4.95751">
        <ele>397</ele>
        <time>2013-11-02T08:10:55.763Z</time>
      </trkpt>
      <trkpt lat="47.32153" lon="4.95746">
        <ele>398</ele>
        <time>2013-11-02T08:10:58.727Z</time>
      </trkpt>
      <trkpt lat="47.3215" lon="4.95736">
        <ele>398</ele>
        <time>2013-11-02T08:11:03.707Z</time>
      </trkpt>
      <trkpt lat="47.32149" lon="4.95733">
        <ele>398</ele>
        <time>2013-11-02T08:11:05.728Z</time>
      </trkpt>
      <trkpt lat="47.32144" lon="4.95721">
        <ele>398</ele>
        <time>2013-11-02T08:11:11.694Z</time>
      </trkpt>
      <trkpt lat="47.32143" lon="4.95717">
        <ele>398</ele>
        <time>2013-11-02T08:11:13.711Z</time>
      </trkpt>
      <trkpt lat="47.3214" lon="4.95708">
        <ele>398</ele>
        <time>2013-11-02T08:11:18.741Z</time>
      </trkpt>
      <trkpt lat="47.32139" lon="4.95704">
        <ele>398</ele>
        <time>2013-11-02T08:11:20.755Z</time>
      </trkpt>
      <trkpt lat="47.32134" lon="4.95692">
        <ele>398</ele>
        <time>2013-11-02T08:11:26.757Z</time>
      </trkpt>
      <trkpt lat="47.32132" lon="4.95686">
        <ele>398</ele>
        <time>2013-11-02T08:11:29.726Z</time>
      </trkpt>
      <trkpt lat="47.32128" lon="4.95675">
        <ele>398</ele>
        <time>2013-11-02T08:11:35.705Z</time>
      </trkpt>
      <trkpt lat="47.32127" lon="4.95672">
        <ele>397</ele>
        <time>2013-11-02T08:11:37.711Z</time>
      </trkpt>
      <trkpt lat="47.32123" lon="4.95662">
        <ele>400</ele>
        <time>2013-11-02T08:11:42.717Z</time>
      </trkpt>
      <trkpt lat="47.32122" lon="4.95658">
        <ele>399</ele>
        <time>2013-11-02T08:11:44.716Z</time>
      </trkpt>
      <trkpt lat="47.32118" lon="4.95647">
        <ele>399</ele>
        <time>2013-11-02T08:11:50.749Z</time>
      </trkpt>
      <trkpt lat="47.32116" lon="4.95642">
        <ele>400</ele>
        <time>2013-11-02T08:11:53.726Z</time>
      </trkpt>
      <trkpt lat="47.32114" lon="4.95636">
        <ele>400</ele>
        <time>2013-11-02T08:11:56.739Z</time>
      </trkpt>
      <trkpt lat="47.32113" lon="4.9563">
        <ele>400</ele>
        <time>2013-11-02T08:11:59.728Z</time>
      </trkpt>
      <trkpt lat="47.32108" lon="4.95618">
        <ele>400</ele>
        <time>2013-11-02T08:12:05.713Z</time>
      </trkpt>
      <trkpt lat="47.32106" lon="4.95613">
        <ele>400</ele>
        <time>2013-11-02T08:12:08.711Z</time>
      </trkpt>
      <trkpt lat="47.32103" lon="4.95603">
        <ele>400</ele>
        <time>2013-11-02T08:12:13.719Z</time>
      </trkpt>
      <trkpt lat="47.32101" lon="4.956">
        <ele>400</ele>
        <time>2013-11-02T08:12:15.724Z</time>
      </trkpt>
      <trkpt lat="47.32098" lon="4.9559">
        <ele>400</ele>
        <time>2013-11-02T08:12:20.735Z</time>
      </trkpt>
      <trkpt lat="47.32096" lon="4.95586">
        <ele>400</ele>
        <time>2013-11-02T08:12:22.743Z</time>
      </trkpt>
      <trkpt lat="47.32093" lon="4.95577">
        <ele>401</ele>
        <time>2013-11-02T08:12:27.732Z</time>
      </trkpt>
      <trkpt lat="47.32092" lon="4.95573">
        <ele>401</ele>
        <time>2013-11-02T08:12:29.755Z</time>
      </trkpt>
      <trkpt lat="47.32087" lon="4.95562">
        <ele>402</ele>
        <time>2013-11-02T08:12:35.726Z</time>
      </trkpt>
      <trkpt lat="47.32085" lon="4.95557">
        <ele>402</ele>
        <time>2013-11-02T08:12:38.717Z</time>
      </trkpt>
      <trkpt lat="47.32081" lon="4.95547">
        <ele>400</ele>
        <time>2013-11-02T08:12:43.711Z</time>
      </trkpt>
      <trkpt lat="47.3208" lon="4.95544">
        <ele>400</ele>
        <time>2013-11-02T08:12:45.802Z</time>
      </trkpt>
      <trkpt lat="47.32076" lon="4.95535">
        <ele>400</ele>
        <time>2013-11-02T08:12:50.782Z</time>
      </trkpt>
      <trkpt lat="47.32074" lon="4.9553">
        <ele>401</ele>
        <time>2013-11-02T08:12:53.726Z</time>
      </trkpt>
      <trkpt lat="47.32071" lon="4.95523">
        <ele>401</ele>
        <time>2013-11-02T08:12:57.735Z</time>
      </trkpt>
      <trkpt lat="47.32069" lon="4.95517">
        <ele>401</ele>
        <time>2013-11-02T08:13:00.716Z</time>
      </trkpt>
      <trkpt lat="47.32065" lon="4.95509">
        <ele>401</ele>
        <time>2013-11-02T08:13:05.710Z</time>
      </trkpt>
      <trkpt lat="47.32063" lon="4.95505">
        <ele>401</ele>
        <time>2013-11-02T08:13:07.712Z</time>
      </trkpt>
      <trkpt lat="47.32058" lon="4.95495">
        <ele>403</ele>
        <time>2013-11-02T08:13:13.728Z</time>
      </trkpt>
      <trkpt lat="47.32056" lon="4.95491">
        <ele>403</ele>
        <time>2013-11-02T08:13:15.781Z</time>
      </trkpt>
      <trkpt lat="47.32052" lon="4.95483">
        <ele>403</ele>
        <time>2013-11-02T08:13:20.732Z</time>
      </trkpt>
      <trkpt lat="47.32051" lon="4.9548">
        <ele>403</ele>
        <time>2013-11-02T08:13:22.738Z</time>
      </trkpt>
      <trkpt lat="47.32046" lon="4.95469">
        <ele>403</ele>
        <time>2013-11-02T08:13:28.724Z</time>
      </trkpt>
      <trkpt lat="47.32044" lon="4.95465">
        <ele>403</ele>
        <time>2013-11-02T08:13:31.705Z</time>
      </trkpt>
      <trkpt lat="47.32039" lon="4.95455">
        <ele>403</ele>
        <time>2013-11-02T08:13:37.723Z</time>
      </trkpt>
      <trkpt lat="47.32036" lon="4.9545">
        <ele>403</ele>
        <time>2013-11-02T08:13:40.704Z</time>
      </trkpt>
      <trkpt lat="47.32032" lon="4.95442">
        <ele>403</ele>
        <time>2013-11-02T08:13:45.760Z</time>
      </trkpt>
      <trkpt lat="47.3203" lon="4.95437">
        <ele>403</ele>
        <time>2013-11-02T08:13:48.735Z</time>
      </trkpt>
      <trkpt lat="47.32026" lon="4.95429">
        <ele>403</ele>
        <time>2013-11-02T08:13:53.726Z</time>
      </trkpt>
      <trkpt lat="47.32024" lon="4.95425">
        <ele>403</ele>
        <time>2013-11-02T08:13:55.779Z</time>
      </trkpt>
      <trkpt lat="47.3202" lon="4.95416">
        <ele>405</ele>
        <time>2013-11-02T08:14:01.704Z</time>
      </trkpt>
      <trkpt lat="47.32018" lon="4.95413">
        <ele>405</ele>
        <time>2013-11-02T08:14:03.707Z</time>
      </trkpt>
      <trkpt lat="47.32014" lon="4.95405">
        <ele>405</ele>
        <time>2013-11-02T08:14:08.723Z</time>
      </trkpt>
      <trkpt lat="47.32012" lon="4.954">
        <ele>405</ele>
        <time>2013-11-02T08:14:11.710Z</time>
      </trkpt>
      <trkpt lat="47.32009" lon="4.95394">
        <ele>405</ele>
        <time>2013-11-02T08:14:15.760Z</time>
      </trkpt>
      <trkpt lat="47.32007" lon="4.95389">
        <ele>405</ele>
        <time>2013-11-02T08:14:18.748Z</time>
      </trkpt>
      <trkpt lat="47.32003" lon="4.95381">
        <ele>406</ele>
        <time>2013-11-02T08:14:23.734Z</time>
      </trkpt>
      <trkpt lat="47.32001" lon="4.95377">
        <ele>406</ele>
        <time>2013-11-02T08:14:25.756Z</time>
      </trkpt>
      <trkpt lat="47.31997" lon="4.95369">
        <ele>405</ele>
        <time>2013-11-02T08:14:30.730Z</time>
      </trkpt>
      <trkpt lat="47.31995" lon="4.95364">
        <ele>405</ele>
        <time>2013-11-02T08:14:33.703Z</time>
      </trkpt>
      <trkpt lat="47.31991" lon="4.95356">
        <ele>406</ele>
        <time>2013-11-02T08:14:38.718Z</time>
      </trkpt>
      <trkpt lat="47.31988" lon="4.95351">
        <ele>406</ele>
        <time>2013-11-02T08:14:41.709Z</time>
      </trkpt>
      <trkpt lat="47.31985" lon="4.95344">
        <ele>406</ele>
        <time>2013-11-02T08:14:45.760Z</time>
      </trkpt>
      <trkpt lat="47.31983" lon="4.95339">
        <ele>406</ele>
        <time>2013-11-02T08:14:48.732Z</time>
      </trkpt>
      <trkpt lat="47.31978" lon="4.95331">
        <ele>407</ele>
        <time>2013-11-02T08:14:53.729Z</time>
      </trkpt>
      <trkpt lat="47.31977" lon="4.95328">
        <ele>407</ele>
        <time>2013-11-02T08:14:55.754Z</time>
      </trkpt>
      <trkpt lat="47.31972" lon="4.95318">
        <ele>407</ele>
        <time>2013-11-02T08:15:01.698Z</time>
      </trkpt>
      <trkpt lat="47.31969" lon="4.95313">
        <ele>407</ele>
        <time>2013-11-02T08:15:04.706Z</time>
      </trkpt>
      <trkpt lat="47.31964" lon="4.95305">
        <ele>407</ele>
        <time>2013-11-02T08:15:09.703Z</time>
      </trkpt>
      <trkpt lat="47.31962" lon="4.95302">
        <ele>407</ele>
        <time>2013-11-02T08:15:11.709Z</time>
      </trkpt>
      <trkpt lat="47.31957" lon="4.95291">
        <ele>407</ele>
        <time>2013-11-02T08:15:18.731Z</time>
      </trkpt>
      <trkpt lat="47.31955" lon="4.95288">
        <ele>407</ele>
        <time>2013-11-02T08:15:20.784Z</time>
      </trkpt>
      <trkpt lat="47.31951" lon="4.95281">
        <ele>407</ele>
        <time>2013-11-02T08:15:25.785Z</time>
      </trkpt>
      <trkpt lat="47.31949" lon="4.95277">
        <ele>407</ele>
        <time>2013-11-02T08:15:28.776Z</time>
      </trkpt>
      <trkpt lat="47.31945" lon="4.95269">
        <ele>407</ele>
        <time>2013-11-02T08:15:33.707Z</time>
      </trkpt>
      <trkpt lat="47.31943" lon="4.95266">
        <ele>407</ele>
        <time>2013-11-02T08:15:35.714Z</time>
      </trkpt>
      <trkpt lat="47.31938" lon="4.95258">
        <ele>407</ele>
        <time>2013-11-02T08:15:40.728Z</time>
      </trkpt>
      <trkpt lat="47.31936" lon="4.95254">
        <ele>407</ele>
        <time>2013-11-02T08:15:43.714Z</time>
      </trkpt>
      <trkpt lat="47.3193" lon="4.95247">
        <ele>408</ele>
        <time>2013-11-02T08:15:48.731Z</time>
      </trkpt>
      <trkpt lat="47.31928" lon="4.95243">
        <ele>408</ele>
        <time>2013-11-02T08:15:50.773Z</time>
      </trkpt>
      <trkpt lat="47.31923" lon="4.95235">
        <ele>408</ele>
        <time>2013-11-02T08:15:55.776Z</time>
      </trkpt>
      <trkpt lat="47.3192" lon="4.95231">
        <ele>408</ele>
        <time>2013-11-02T08:15:58.717Z</time>
      </trkpt>
      <trkpt lat="47.31915" lon="4.95223">
        <ele>409</ele>
        <time>2013-11-02T08:16:03.707Z</time>
      </trkpt>
      <trkpt lat="47.31912" lon="4.95219">
        <ele>409</ele>
        <time>2013-11-02T08:16:06.705Z</time>
      </trkpt>
      <trkpt lat="47.31907" lon="4.95211">
        <ele>409</ele>
        <time>2013-11-02T08:16:11.703Z</time>
      </trkpt>
      <trkpt lat="47.31905" lon="4.95209">
        <ele>409</ele>
        <time>2013-11-02T08:16:13.705Z</time>
      </trkpt>
      <trkpt lat="47.31899" lon="4.95199">
        <ele>409</ele>
        <time>2013-11-02T08:16:20.739Z</time>
      </trkpt>
      <trkpt lat="47.31896" lon="4.95195">
        <ele>409</ele>
        <time>2013-11-02T08:16:23.709Z</time>
      </trkpt>
      <trkpt lat="47.31891" lon="4.95188">
        <ele>410</ele>
        <time>2013-11-02T08:16:28.736Z</time>
      </trkpt>
      <trkpt lat="47.31888" lon="4.95184">
        <ele>410</ele>
        <time>2013-11-02T08:16:31.719Z</time>
      </trkpt>
      <trkpt lat="47.31883" lon="4.95177">
        <ele>410</ele>
        <time>2013-11-02T08:16:37.722Z</time>
      </trkpt>
      <trkpt lat="47.3188" lon="4.95174">
        <ele>410</ele>
        <time>2013-11-02T08:16:40.719Z</time>
      </trkpt>
      <trkpt lat="47.31874" lon="4.95175">
        <ele>410</ele>
        <time>2013-11-02T08:16:45.792Z</time>
      </trkpt>
      <trkpt lat="47.3187" lon="4.95177">
        <ele>410</ele>
        <time>2013-11-02T08:16:48.732Z</time>
      </trkpt>
      <trkpt lat="47.31866" lon="4.95185">
        <ele>410</ele>
        <time>2013-11-02T08:16:53.737Z</time>
      </trkpt>
      <trkpt lat="47.31865" lon="4.95189">
        <ele>410</ele>
        <time>2013-11-02T08:16:55.775Z</time>
      </trkpt>
      <trkpt lat="47.3186" lon="4.95196">
        <ele>410</ele>
        <time>2013-11-02T08:17:01.708Z</time>
      </trkpt>
      <trkpt lat="47.31857" lon="4.952">
        <ele>410</ele>
        <time>2013-11-02T08:17:04.712Z</time>
      </trkpt>
      <trkpt lat="47.31854" lon="4.95206">
        <ele>410</ele>
        <time>2013-11-02T08:17:08.758Z</time>
      </trkpt>
      <trkpt lat="47.31851" lon="4.95211">
        <ele>410</ele>
        <time>2013-11-02T08:17:11.708Z</time>
      </trkpt>
      <trkpt lat="47.31848" lon="4.95218">
        <ele>410</ele>
        <time>2013-11-02T08:17:15.774Z</time>
      </trkpt>
      <trkpt lat="47.31846" lon="4.95224">
        <ele>410</ele>
        <time>2013-11-02T08:17:18.729Z</time>
      </trkpt>
      <trkpt lat="47.31843" lon="4.95232">
        <ele>410</ele>
        <time>2013-11-02T08:17:23.740Z</time>
      </trkpt>
      <trkpt lat="47.31841" lon="4.95237">
        <ele>410</ele>
        <time>2013-11-02T08:17:26.754Z</time>
      </trkpt>
      <trkpt lat="47.31837" lon="4.95248">
        <ele>411</ele>
        <time>2013-11-02T08:17:32.657Z</time>
      </trkpt>
      <trkpt lat="47.31835" lon="4.95253">
        <ele>411</ele>
        <time>2013-11-02T08:17:35.589Z</time>
      </trkpt>
      <trkpt lat="47.31831" lon="4.95263">
        <ele>411</ele>
        <time>2013-11-02T08:17:41.631Z</time>
      </trkpt>
      <trkpt lat="47.3183" lon="4.95267">
        <ele>411</ele>
        <time>2013-11-02T08:17:43.631Z</time>
      </trkpt>
      <trkpt lat="47.31826" lon="4.95275">
        <ele>411</ele>
        <time>2013-11-02T08:17:48.649Z</time>
      </trkpt>
      <trkpt lat="47.31824" lon="4.95281">
        <ele>411</ele>
        <time>2013-11-02T08:17:51.630Z</time>
      </trkpt>
      <trkpt lat="47.31821" lon="4.95288">
        <ele>411</ele>
        <time>2013-11-02T08:17:55.754Z</time>
      </trkpt>
      <trkpt lat="47.31819" lon="4.95294">
        <ele>411</ele>
        <time>2013-11-02T08:17:58.702Z</time>
      </trkpt>
      <trkpt lat="47.31817" lon="4.953">
        <ele>411</ele>
        <time>2013-11-02T08:18:01.663Z</time>
      </trkpt>
      <trkpt lat="47.31815" lon="4.95306">
        <ele>411</ele>
        <time>2013-11-02T08:18:04.727Z</time>
      </trkpt>
      <trkpt lat="47.31813" lon="4.95314">
        <ele>411</ele>
        <time>2013-11-02T08:18:08.753Z</time>
      </trkpt>
      <trkpt lat="47.31811" lon="4.9532">
        <ele>411</ele>
        <time>2013-11-02T08:18:11.735Z</time>
      </trkpt>
      <trkpt lat="47.31808" lon="4.95331">
        <ele>411</ele>
        <time>2013-11-02T08:18:17.764Z</time>
      </trkpt>
      <trkpt lat="47.31806" lon="4.95337">
        <ele>411</ele>
        <time>2013-11-02T08:18:20.746Z</time>
      </trkpt>
      <trkpt lat="47.31803" lon="4.95347">
        <ele>411</ele>
        <time>2013-11-02T08:18:25.750Z</time>
      </trkpt>
      <trkpt lat="47.31802" lon="4.95351">
        <ele>411</ele>
        <time>2013-11-02T08:18:27.751Z</time>
      </trkpt>
      <trkpt lat="47.31799" lon="4.9536">
        <ele>411</ele>
        <time>2013-11-02T08:18:32.751Z</time>
      </trkpt>
      <trkpt lat="47.31797" lon="4.95366">
        <ele>411</ele>
        <time>2013-11-02T08:18:35.740Z</time>
      </trkpt>
      <trkpt lat="47.31794" lon="4.95374">
        <ele>411</ele>
        <time>2013-11-02T08:18:39.755Z</time>
      </trkpt>
      <trkpt lat="47.31792" lon="4.95379">
        <ele>411</ele>
        <time>2013-11-02T08:18:42.747Z</time>
      </trkpt>
      <trkpt lat="47.31789" lon="4.95387">
        <ele>411</ele>
        <time>2013-11-02T08:18:46.765Z</time>
      </trkpt>
      <trkpt lat="47.31786" lon="4.95392">
        <ele>411</ele>
        <time>2013-11-02T08:18:49.765Z</time>
      </trkpt>
      <trkpt lat="47.31782" lon="4.95403">
        <ele>411</ele>
        <time>2013-11-02T08:18:55.730Z</time>
      </trkpt>
      <trkpt lat="47.31781" lon="4.95407">
        <ele>411</ele>
        <time>2013-11-02T08:18:57.385Z</time>
      </trkpt>
      <trkpt lat="47.31778" lon="4.95415">
        <ele>411</ele>
        <time>2013-11-02T08:19:01.408Z</time>
      </trkpt>
      <trkpt lat="47.31776" lon="4.95419">
        <ele>411</ele>
        <time>2013-11-02T08:19:03.409Z</time>
      </trkpt>
      <trkpt lat="47.31772" lon="4.9543">
        <ele>411</ele>
        <time>2013-11-02T08:19:08.438Z</time>
      </trkpt>
      <trkpt lat="47.3177" lon="4.95436">
        <ele>411</ele>
        <time>2013-11-02T08:19:11.426Z</time>
      </trkpt>
      <trkpt lat="47.31767" lon="4.95445">
        <ele>411</ele>
        <time>2013-11-02T08:19:16.416Z</time>
      </trkpt>
      <trkpt lat="47.31766" lon="4.95449">
        <ele>411</ele>
        <time>2013-11-02T08:19:18.423Z</time>
      </trkpt>
      <trkpt lat="47.31762" lon="4.95459">
        <ele>411</ele>
        <time>2013-11-02T08:19:23.445Z</time>
      </trkpt>
      <trkpt lat="47.31759" lon="4.95465">
        <ele>411</ele>
        <time>2013-11-02T08:19:26.446Z</time>
      </trkpt>
      <trkpt lat="47.31756" lon="4.95475">
        <ele>411</ele>
        <time>2013-11-02T08:19:31.414Z</time>
      </trkpt>
      <trkpt lat="47.31755" lon="4.9548">
        <ele>411</ele>
        <time>2013-11-02T08:19:33.416Z</time>
      </trkpt>
      <trkpt lat="47.31751" lon="4.9549">
        <ele>411</ele>
        <time>2013-11-02T08:19:38.434Z</time>
      </trkpt>
      <trkpt lat="47.31749" lon="4.95495">
        <ele>412</ele>
        <time>2013-11-02T08:19:41.397Z</time>
      </trkpt>
      <trkpt lat="47.31746" lon="4.95507">
        <ele>412</ele>
        <time>2013-11-02T08:19:47.437Z</time>
      </trkpt>
      <trkpt lat="47.31744" lon="4.95513">
        <ele>412</ele>
        <time>2013-11-02T08:19:50.431Z</time>
      </trkpt>
      <trkpt lat="47.31741" lon="4.95523">
        <ele>413</ele>
        <time>2013-11-02T08:19:55.498Z</time>
      </trkpt>
      <trkpt lat="47.31739" lon="4.95529">
        <ele>413</ele>
        <time>2013-11-02T08:19:58.460Z</time>
      </trkpt>
      <trkpt lat="47.31736" lon="4.95539">
        <ele>413</ele>
        <time>2013-11-02T08:20:03.410Z</time>
      </trkpt>
      <trkpt lat="47.31734" lon="4.95543">
        <ele>413</ele>
        <time>2013-11-02T08:20:05.411Z</time>
      </trkpt>
      <trkpt lat="47.31731" lon="4.95554">
        <ele>413</ele>
        <time>2013-11-02T08:20:10.411Z</time>
      </trkpt>
      <trkpt lat="47.3173" lon="4.95558">
        <ele>413</ele>
        <time>2013-11-02T08:20:12.419Z</time>
      </trkpt>
      <trkpt lat="47.31726" lon="4.95569">
        <ele>413</ele>
        <time>2013-11-02T08:20:17.424Z</time>
      </trkpt>
      <trkpt lat="47.31724" lon="4.95575">
        <ele>413</ele>
        <time>2013-11-02T08:20:20.469Z</time>
      </trkpt>
      <trkpt lat="47.31721" lon="4.95585">
        <ele>414</ele>
        <time>2013-11-02T08:20:25.484Z</time>
      </trkpt>
      <trkpt lat="47.31719" lon="4.95592">
        <ele>414</ele>
        <time>2013-11-02T08:20:28.459Z</time>
      </trkpt>
      <trkpt lat="47.31717" lon="4.95598">
        <ele>414</ele>
        <time>2013-11-02T08:20:31.418Z</time>
      </trkpt>
      <trkpt lat="47.31714" lon="4.95604">
        <ele>414</ele>
        <time>2013-11-02T08:20:34.424Z</time>
      </trkpt>
      <trkpt lat="47.31712" lon="4.9561">
        <ele>414</ele>
        <time>2013-11-02T08:20:37.430Z</time>
      </trkpt>
      <trkpt lat="47.31709" lon="4.95617">
        <ele>415</ele>
        <time>2013-11-02T08:20:40.419Z</time>
      </trkpt>
      <trkpt lat="47.31705" lon="4.95625">
        <ele>415</ele>
        <time>2013-11-02T08:20:44.440Z</time>
      </trkpt>
      <trkpt lat="47.31703" lon="4.95631">
        <ele>415</ele>
        <time>2013-11-02T08:20:47.464Z</time>
      </trkpt>
      <trkpt lat="47.31698" lon="4.95642">
        <ele>415</ele>
        <time>2013-11-02T08:20:53.432Z</time>
      </trkpt>
      <trkpt lat="47.31697" lon="4.95646">
        <ele>415</ele>
        <time>2013-11-02T08:20:55.435Z</time>
      </trkpt>
      <trkpt lat="47.31693" lon="4.95654">
        <ele>416</ele>
        <time>2013-11-02T08:20:59.460Z</time>
      </trkpt>
      <trkpt lat="47.31691" lon="4.9566">
        <ele>416</ele>
        <time>2013-11-02T08:21:02.428Z</time>
      </trkpt>
      <trkpt lat="47.31688" lon="4.95667">
        <ele>416</ele>
        <time>2013-11-02T08:21:05.428Z</time>
      </trkpt>
      <trkpt lat="47.31685" lon="4.95673">
        <ele>416</ele>
        <time>2013-11-02T08:21:08.541Z</time>
      </trkpt>
      <trkpt lat="47.3168" lon="4.95683">
        <ele>416</ele>
        <time>2013-11-02T08:21:13.665Z</time>
      </trkpt>
      <trkpt lat="47.31678" lon="4.95689">
        <ele>416</ele>
        <time>2013-11-02T08:21:16.620Z</time>
      </trkpt>
      <trkpt lat="47.31675" lon="4.95694">
        <ele>416</ele>
        <time>2013-11-02T08:21:19.601Z</time>
      </trkpt>
      <trkpt lat="47.31672" lon="4.957">
        <ele>416</ele>
        <time>2013-11-02T08:21:22.618Z</time>
      </trkpt>
      <trkpt lat="47.31667" lon="4.9571">
        <ele>416</ele>
        <time>2013-11-02T08:21:28.627Z</time>
      </trkpt>
      <trkpt lat="47.31665" lon="4.95715">
        <ele>419</ele>
        <time>2013-11-02T08:21:31.577Z</time>
      </trkpt>
      <trkpt lat="47.31661" lon="4.95722">
        <ele>419</ele>
        <time>2013-11-02T08:21:35.592Z</time>
      </trkpt>
      <trkpt lat="47.31658" lon="4.95726">
        <ele>419</ele>
        <time>2013-11-02T08:21:38.611Z</time>
      </trkpt>
      <trkpt lat="47.31651" lon="4.95733">
        <ele>419</ele>
        <time>2013-11-02T08:21:48.615Z</time>
      </trkpt>
      <trkpt lat="47.31652" lon="4.95733">
        <ele>419</ele>
        <time>2013-11-02T08:21:51.586Z</time>
      </trkpt>
      <trkpt lat="47.31652" lon="4.95733">
        <ele>419</ele>
        <time>2013-11-02T08:23:55.600Z</time>
      </trkpt>
      <trkpt lat="47.31652" lon="4.95731">
        <ele>419</ele>
        <time>2013-11-02T08:23:57.601Z</time>
      </trkpt>
      <trkpt lat="47.31652" lon="4.95731">
        <ele>419</ele>
        <time>2013-11-02T08:23:59.618Z</time>
      </trkpt>
      <trkpt lat="47.31651" lon="4.95731">
        <ele>419</ele>
        <time>2013-11-02T08:24:02.608Z</time>
      </trkpt>
      <trkpt lat="47.31651" lon="4.95731">
        <ele>419</ele>
        <time>2013-11-02T08:25:29.593Z</time>
      </trkpt>
      <trkpt lat="47.3165" lon="4.95726">
        <ele>419</ele>
        <time>2013-11-02T08:25:32.617Z</time>
      </trkpt>
      <trkpt lat="47.31651" lon="4.95717">
        <ele>419</ele>
        <time>2013-11-02T08:25:37.603Z</time>
      </trkpt>
      <trkpt lat="47.31652" lon="4.95712">
        <ele>419</ele>
        <time>2013-11-02T08:25:40.605Z</time>
      </trkpt>
      <trkpt lat="47.31652" lon="4.95699">
        <ele>419</ele>
        <time>2013-11-02T08:25:49.591Z</time>
      </trkpt>
      <trkpt lat="47.31651" lon="4.95696">
        <ele>419</ele>
        <time>2013-11-02T08:25:51.602Z</time>
      </trkpt>
      <trkpt lat="47.31647" lon="4.95685">
        <ele>419</ele>
        <time>2013-11-02T08:25:59.579Z</time>
      </trkpt>
      <trkpt lat="47.31645" lon="4.95684">
        <ele>419</ele>
        <time>2013-11-02T08:26:01.589Z</time>
      </trkpt>
      <trkpt lat="47.31638" lon="4.95679">
        <ele>419</ele>
        <time>2013-11-02T08:26:07.598Z</time>
      </trkpt>
      <trkpt lat="47.31635" lon="4.95677">
        <ele>419</ele>
        <time>2013-11-02T08:26:10.586Z</time>
      </trkpt>
      <trkpt lat="47.31628" lon="4.95676">
        <ele>419</ele>
        <time>2013-11-02T08:26:15.606Z</time>
      </trkpt>
      <trkpt lat="47.31626" lon="4.95675">
        <ele>419</ele>
        <time>2013-11-02T08:26:17.620Z</time>
      </trkpt>
      <trkpt lat="47.31618" lon="4.95672">
        <ele>420</ele>
        <time>2013-11-02T08:26:23.599Z</time>
      </trkpt>
      <trkpt lat="47.31616" lon="4.9567">
        <ele>420</ele>
        <time>2013-11-02T08:26:25.604Z</time>
      </trkpt>
      <trkpt lat="47.31608" lon="4.95666">
        <ele>420</ele>
        <time>2013-11-02T08:26:32.605Z</time>
      </trkpt>
      <trkpt lat="47.31605" lon="4.95664">
        <ele>420</ele>
        <time>2013-11-02T08:26:35.589Z</time>
      </trkpt>
      <trkpt lat="47.31597" lon="4.9566">
        <ele>420</ele>
        <time>2013-11-02T08:26:40.594Z</time>
      </trkpt>
      <trkpt lat="47.31593" lon="4.95658">
        <ele>420</ele>
        <time>2013-11-02T08:26:43.588Z</time>
      </trkpt>
      <trkpt lat="47.31587" lon="4.95656">
        <ele>420</ele>
        <time>2013-11-02T08:26:47.628Z</time>
      </trkpt>
      <trkpt lat="47.31583" lon="4.95655">
        <ele>422</ele>
        <time>2013-11-02T08:26:50.607Z</time>
      </trkpt>
      <trkpt lat="47.31576" lon="4.95654">
        <ele>422</ele>
        <time>2013-11-02T08:26:55.600Z</time>
      </trkpt>
      <trkpt lat="47.3157" lon="4.95653">
        <ele>422</ele>
        <time>2013-11-02T08:26:58.584Z</time>
      </trkpt>
      <trkpt lat="47.31562" lon="4.95655">
        <ele>422</ele>
        <time>2013-11-02T08:27:05.588Z</time>
      </trkpt>
      <trkpt lat="47.31561" lon="4.95658">
        <ele>422</ele>
        <time>2013-11-02T08:27:07.588Z</time>
      </trkpt>
      <trkpt lat="47.31558" lon="4.95669">
        <ele>422</ele>
        <time>2013-11-02T08:27:15.607Z</time>
      </trkpt>
      <trkpt lat="47.31556" lon="4.95674">
        <ele>422</ele>
        <time>2013-11-02T08:27:18.599Z</time>
      </trkpt>
      <trkpt lat="47.31552" lon="4.95685">
        <ele>422</ele>
        <time>2013-11-02T08:27:25.596Z</time>
      </trkpt>
      <trkpt lat="47.3155" lon="4.95688">
        <ele>422</ele>
        <time>2013-11-02T08:27:27.603Z</time>
      </trkpt>
      <trkpt lat="47.31545" lon="4.95695">
        <ele>422</ele>
        <time>2013-11-02T08:27:32.605Z</time>
      </trkpt>
      <trkpt lat="47.31542" lon="4.95699">
        <ele>422</ele>
        <time>2013-11-02T08:27:35.591Z</time>
      </trkpt>
      <trkpt lat="47.31539" lon="4.95706">
        <ele>422</ele>
        <time>2013-11-02T08:27:41.585Z</time>
      </trkpt>
      <trkpt lat="47.31536" lon="4.9571">
        <ele>422</ele>
        <time>2013-11-02T08:27:44.600Z</time>
      </trkpt>
      <trkpt lat="47.31532" lon="4.95718">
        <ele>422</ele>
        <time>2013-11-02T08:27:49.594Z</time>
      </trkpt>
      <trkpt lat="47.3153" lon="4.95723">
        <ele>422</ele>
        <time>2013-11-02T08:27:52.609Z</time>
      </trkpt>
      <trkpt lat="47.31526" lon="4.95731">
        <ele>423</ele>
        <time>2013-11-02T08:27:57.591Z</time>
      </trkpt>
      <trkpt lat="47.31524" lon="4.95735">
        <ele>423</ele>
        <time>2013-11-02T08:27:59.600Z</time>
      </trkpt>
      <trkpt lat="47.31521" lon="4.95745">
        <ele>423</ele>
        <time>2013-11-02T08:28:05.596Z</time>
      </trkpt>
      <trkpt lat="47.31519" lon="4.95749">
        <ele>423</ele>
        <time>2013-11-02T08:28:08.598Z</time>
      </trkpt>
      <trkpt lat="47.31516" lon="4.9576">
        <ele>422</ele>
        <time>2013-11-02T08:28:15.590Z</time>
      </trkpt>
      <trkpt lat="47.31515" lon="4.95763">
        <ele>422</ele>
        <time>2013-11-02T08:28:17.598Z</time>
      </trkpt>
      <trkpt lat="47.3151" lon="4.95773">
        <ele>422</ele>
        <time>2013-11-02T08:28:23.591Z</time>
      </trkpt>
      <trkpt lat="47.31508" lon="4.95777">
        <ele>422</ele>
        <time>2013-11-02T08:28:26.619Z</time>
      </trkpt>
      <trkpt lat="47.31506" lon="4.9579">
        <ele>422</ele>
        <time>2013-11-02T08:28:32.592Z</time>
      </trkpt>
      <trkpt lat="47.31504" lon="4.95793">
        <ele>422</ele>
        <time>2013-11-02T08:28:34.593Z</time>
      </trkpt>
      <trkpt lat="47.31501" lon="4.95803">
        <ele>421</ele>
        <time>2013-11-02T08:28:40.592Z</time>
      </trkpt>
      <trkpt lat="47.315" lon="4.95806">
        <ele>422</ele>
        <time>2013-11-02T08:28:42.593Z</time>
      </trkpt>
      <trkpt lat="47.31497" lon="4.95818">
        <ele>422</ele>
        <time>2013-11-02T08:28:50.630Z</time>
      </trkpt>
      <trkpt lat="47.31497" lon="4.95819">
        <ele>422</ele>
        <time>2013-11-02T08:28:53.587Z</time>
      </trkpt>
      <trkpt lat="47.31497" lon="4.95819">
        <ele>422</ele>
        <time>2013-11-02T08:28:55.602Z</time>
      </trkpt>
      <trkpt lat="47.31497" lon="4.95819">
        <ele>422</ele>
        <time>2013-11-02T08:29:19.594Z</time>
      </trkpt>
      <trkpt lat="47.31495" lon="4.95824">
        <ele>422</ele>
        <time>2013-11-02T08:29:21.600Z</time>
      </trkpt>
      <trkpt lat="47.315" lon="4.95833">
        <ele>421</ele>
        <time>2013-11-02T08:29:29.598Z</time>
      </trkpt>
      <trkpt lat="47.31503" lon="4.95835">
        <ele>421</ele>
        <time>2013-11-02T08:29:32.593Z</time>
      </trkpt>
      <trkpt lat="47.3151" lon="4.95841">
        <ele>421</ele>
        <time>2013-11-02T08:29:38.618Z</time>
      </trkpt>
      <trkpt lat="47.31513" lon="4.95844">
        <ele>420</ele>
        <time>2013-11-02T08:29:41.570Z</time>
      </trkpt>
      <trkpt lat="47.3152" lon="4.95851">
        <ele>420</ele>
        <time>2013-11-02T08:29:47.599Z</time>
      </trkpt>
      <trkpt lat="47.31524" lon="4.95854">
        <ele>420</ele>
        <time>2013-11-02T08:29:50.599Z</time>
      </trkpt>
      <trkpt lat="47.31531" lon="4.95861">
        <ele>420</ele>
        <time>2013-11-02T08:29:56.602Z</time>
      </trkpt>
      <trkpt lat="47.31535" lon="4.95864">
        <ele>420</ele>
        <time>2013-11-02T08:29:59.657Z</time>
      </trkpt>
      <trkpt lat="47.31538" lon="4.95868">
        <ele>420</ele>
        <time>2013-11-02T08:30:02.597Z</time>
      </trkpt>
      <trkpt lat="47.31542" lon="4.95871">
        <ele>420</ele>
        <time>2013-11-02T08:30:05.578Z</time>
      </trkpt>
      <trkpt lat="47.3155" lon="4.95878">
        <ele>420</ele>
        <time>2013-11-02T08:30:11.558Z</time>
      </trkpt>
      <trkpt lat="47.31552" lon="4.95881">
        <ele>420</ele>
        <time>2013-11-02T08:30:13.564Z</time>
      </trkpt>
      <trkpt lat="47.31556" lon="4.95888">
        <ele>419</ele>
        <time>2013-11-02T08:30:17.588Z</time>
      </trkpt>
      <trkpt lat="47.31559" lon="4.95892">
        <ele>419</ele>
        <time>2013-11-02T08:30:20.598Z</time>
      </trkpt>
      <trkpt lat="47.31564" lon="4.95899">
        <ele>419</ele>
        <time>2013-11-02T08:30:25.605Z</time>
      </trkpt>
      <trkpt lat="47.31567" lon="4.95903">
        <ele>419</ele>
        <time>2013-11-02T08:30:28.592Z</time>
      </trkpt>
      <trkpt lat="47.31573" lon="4.95912">
        <ele>419</ele>
        <time>2013-11-02T08:30:33.580Z</time>
      </trkpt>
      <trkpt lat="47.31575" lon="4.95916">
        <ele>419</ele>
        <time>2013-11-02T08:30:35.582Z</time>
      </trkpt>
      <trkpt lat="47.31579" lon="4.95923">
        <ele>418</ele>
        <time>2013-11-02T08:30:39.596Z</time>
      </trkpt>
      <trkpt lat="47.31583" lon="4.95928">
        <ele>418</ele>
        <time>2013-11-02T08:30:42.586Z</time>
      </trkpt>
      <trkpt lat="47.31589" lon="4.95935">
        <ele>418</ele>
        <time>2013-11-02T08:30:46.599Z</time>
      </trkpt>
      <trkpt lat="47.31592" lon="4.95939">
        <ele>418</ele>
        <time>2013-11-02T08:30:48.599Z</time>
      </trkpt>
      <trkpt lat="47.31598" lon="4.95947">
        <ele>418</ele>
        <time>2013-11-02T08:30:53.592Z</time>
      </trkpt>
      <trkpt lat="47.31602" lon="4.95951">
        <ele>418</ele>
        <time>2013-11-02T08:30:56.628Z</time>
      </trkpt>
      <trkpt lat="47.31607" lon="4.9596">
        <ele>418</ele>
        <time>2013-11-02T08:31:02.562Z</time>
      </trkpt>
      <trkpt lat="47.31609" lon="4.95963">
        <ele>418</ele>
        <time>2013-11-02T08:31:04.591Z</time>
      </trkpt>
      <trkpt lat="47.31614" lon="4.95971">
        <ele>418</ele>
        <time>2013-11-02T08:31:09.586Z</time>
      </trkpt>
      <trkpt lat="47.31616" lon="4.95973">
        <ele>418</ele>
        <time>2013-11-02T08:31:11.590Z</time>
      </trkpt>
      <trkpt lat="47.31622" lon="4.95976">
        <ele>418</ele>
        <time>2013-11-02T08:31:15.616Z</time>
      </trkpt>
      <trkpt lat="47.31625" lon="4.95976">
        <ele>418</ele>
        <time>2013-11-02T08:31:18.599Z</time>
      </trkpt>
      <trkpt lat="47.31631" lon="4.95969">
        <ele>418</ele>
        <time>2013-11-02T08:31:32.632Z</time>
      </trkpt>
      <trkpt lat="47.31632" lon="4.95965">
        <ele>418</ele>
        <time>2013-11-02T08:31:35.588Z</time>
      </trkpt>
      <trkpt lat="47.31633" lon="4.95953">
        <ele>418</ele>
        <time>2013-11-02T08:31:43.584Z</time>
      </trkpt>
      <trkpt lat="47.31634" lon="4.9595">
        <ele>418</ele>
        <time>2013-11-02T08:31:45.625Z</time>
      </trkpt>
      <trkpt lat="47.31637" lon="4.95942">
        <ele>419</ele>
        <time>2013-11-02T08:31:50.634Z</time>
      </trkpt>
      <trkpt lat="47.31639" lon="4.95936">
        <ele>419</ele>
        <time>2013-11-02T08:31:53.610Z</time>
      </trkpt>
      <trkpt lat="47.31641" lon="4.95925">
        <ele>419</ele>
        <time>2013-11-02T08:31:59.609Z</time>
      </trkpt>
      <trkpt lat="47.31642" lon="4.9592">
        <ele>419</ele>
        <time>2013-11-02T08:32:02.595Z</time>
      </trkpt>
      <trkpt lat="47.31643" lon="4.9591">
        <ele>420</ele>
        <time>2013-11-02T08:32:07.580Z</time>
      </trkpt>
      <trkpt lat="47.31644" lon="4.95906">
        <ele>420</ele>
        <time>2013-11-02T08:32:09.584Z</time>
      </trkpt>
      <trkpt lat="47.31645" lon="4.95896">
        <ele>420</ele>
        <time>2013-11-02T08:32:14.601Z</time>
      </trkpt>
      <trkpt lat="47.31646" lon="4.95892">
        <ele>420</ele>
        <time>2013-11-02T08:32:16.601Z</time>
      </trkpt>
      <trkpt lat="47.31647" lon="4.95885">
        <ele>420</ele>
        <time>2013-11-02T08:32:19.609Z</time>
      </trkpt>
      <trkpt lat="47.31649" lon="4.95879">
        <ele>420</ele>
        <time>2013-11-02T08:32:22.609Z</time>
      </trkpt>
      <trkpt lat="47.31651" lon="4.9587">
        <ele>420</ele>
        <time>2013-11-02T08:32:27.600Z</time>
      </trkpt>
      <trkpt lat="47.31653" lon="4.95865">
        <ele>420</ele>
        <time>2013-11-02T08:32:30.589Z</time>
      </trkpt>
      <trkpt lat="47.31656" lon="4.95856">
        <ele>420</ele>
        <time>2013-11-02T08:32:35.597Z</time>
      </trkpt>
      <trkpt lat="47.31656" lon="4.95849">
        <ele>420</ele>
        <time>2013-11-02T08:32:38.605Z</time>
      </trkpt>
      <trkpt lat="47.31655" lon="4.95839">
        <ele>420</ele>
        <time>2013-11-02T08:32:43.586Z</time>
      </trkpt>
      <trkpt lat="47.31655" lon="4.95834">
        <ele>420</ele>
        <time>2013-11-02T08:32:45.609Z</time>
      </trkpt>
      <trkpt lat="47.31658" lon="4.95823">
        <ele>420</ele>
        <time>2013-11-02T08:32:50.624Z</time>
      </trkpt>
      <trkpt lat="47.31659" lon="4.95817">
        <ele>420</ele>
        <time>2013-11-02T08:32:53.596Z</time>
      </trkpt>
      <trkpt lat="47.31661" lon="4.95809">
        <ele>420</ele>
        <time>2013-11-02T08:32:57.605Z</time>
      </trkpt>
      <trkpt lat="47.31662" lon="4.95803">
        <ele>420</ele>
        <time>2013-11-02T08:33:00.592Z</time>
      </trkpt>
      <trkpt lat="47.31663" lon="4.95793">
        <ele>420</ele>
        <time>2013-11-02T08:33:05.588Z</time>
      </trkpt>
      <trkpt lat="47.31663" lon="4.95788">
        <ele>420</ele>
        <time>2013-11-02T08:33:08.593Z</time>
      </trkpt>
      <trkpt lat="47.31663" lon="4.95777">
        <ele>420</ele>
        <time>2013-11-02T08:33:15.594Z</time>
      </trkpt>
      <trkpt lat="47.31663" lon="4.95773">
        <ele>419</ele>
        <time>2013-11-02T08:33:17.597Z</time>
      </trkpt>
      <trkpt lat="47.31662" lon="4.95761">
        <ele>419</ele>
        <time>2013-11-02T08:33:23.581Z</time>
      </trkpt>
      <trkpt lat="47.31663" lon="4.95757">
        <ele>419</ele>
        <time>2013-11-02T08:33:25.596Z</time>
      </trkpt>
      <trkpt lat="47.31664" lon="4.95746">
        <ele>419</ele>
        <time>2013-11-02T08:33:30.578Z</time>
      </trkpt>
      <trkpt lat="47.31666" lon="4.95742">
        <ele>419</ele>
        <time>2013-11-02T08:33:32.599Z</time>
      </trkpt>
      <trkpt lat="47.3167" lon="4.95733">
        <ele>417</ele>
        <time>2013-11-02T08:33:39.592Z</time>
      </trkpt>
      <trkpt lat="47.31672" lon="4.9573">
        <ele>417</ele>
        <time>2013-11-02T08:33:42.594Z</time>
      </trkpt>
      <trkpt lat="47.31675" lon="4.95724">
        <ele>416</ele>
        <time>2013-11-02T08:33:49.597Z</time>
      </trkpt>
      <trkpt lat="47.31675" lon="4.95725">
        <ele>417</ele>
        <time>2013-11-02T08:33:51.596Z</time>
      </trkpt>
      <trkpt lat="47.31675" lon="4.95725">
        <ele>417</ele>
        <time>2013-11-02T08:34:25.520Z</time>
      </trkpt>
      <trkpt lat="47.31673" lon="4.9572">
        <ele>416</ele>
        <time>2013-11-02T08:34:27.529Z</time>
      </trkpt>
      <trkpt lat="47.31672" lon="4.95718">
        <ele>416</ele>
        <time>2013-11-02T08:34:29.538Z</time>
      </trkpt>
      <trkpt lat="47.31672" lon="4.95718">
        <ele>416</ele>
        <time>2013-11-02T08:34:32.524Z</time>
      </trkpt>
      <trkpt lat="47.31672" lon="4.95719">
        <ele>416</ele>
        <time>2013-11-02T08:35:11.458Z</time>
      </trkpt>
      <trkpt lat="47.3167" lon="4.95718">
        <ele>416</ele>
        <time>2013-11-02T08:35:13.458Z</time>
      </trkpt>
      <trkpt lat="47.3167" lon="4.95718">
        <ele>416</ele>
        <time>2013-11-02T08:35:16.455Z</time>
      </trkpt>
      <trkpt lat="47.3167" lon="4.95718">
        <ele>416</ele>
        <time>2013-11-02T08:35:18.499Z</time>
      </trkpt>
      <trkpt lat="47.3167" lon="4.95718">
        <ele>416</ele>
        <time>2013-11-02T08:35:53.455Z</time>
      </trkpt>
      <trkpt lat="47.31671" lon="4.95714">
        <ele>416</ele>
        <time>2013-11-02T08:35:55.459Z</time>
      </trkpt>
      <trkpt lat="47.31674" lon="4.95704">
        <ele>416</ele>
        <time>2013-11-02T08:35:58.451Z</time>
      </trkpt>
      <trkpt lat="47.31675" lon="4.957">
        <ele>416</ele>
        <time>2013-11-02T08:36:00.452Z</time>
      </trkpt>
      <trkpt lat="47.31678" lon="4.95689">
        <ele>416</ele>
        <time>2013-11-02T08:36:05.453Z</time>
      </trkpt>
      <trkpt lat="47.3168" lon="4.95686">
        <ele>416</ele>
        <time>2013-11-02T08:36:07.457Z</time>
      </trkpt>
      <trkpt lat="47.31684" lon="4.95675">
        <ele>416</ele>
        <time>2013-11-02T08:36:12.455Z</time>
      </trkpt>
      <trkpt lat="47.31685" lon="4.95672">
        <ele>416</ele>
        <time>2013-11-02T08:36:14.491Z</time>
      </trkpt>
      <trkpt lat="47.31689" lon="4.95663">
        <ele>416</ele>
        <time>2013-11-02T08:36:19.485Z</time>
      </trkpt>
      <trkpt lat="47.31691" lon="4.95657">
        <ele>416</ele>
        <time>2013-11-02T08:36:22.450Z</time>
      </trkpt>
      <trkpt lat="47.31694" lon="4.95651">
        <ele>416</ele>
        <time>2013-11-02T08:36:26.489Z</time>
      </trkpt>
      <trkpt lat="47.31696" lon="4.95645">
        <ele>415</ele>
        <time>2013-11-02T08:36:29.481Z</time>
      </trkpt>
      <trkpt lat="47.317" lon="4.95634">
        <ele>415</ele>
        <time>2013-11-02T08:36:35.477Z</time>
      </trkpt>
      <trkpt lat="47.31702" lon="4.95629">
        <ele>415</ele>
        <time>2013-11-02T08:36:38.150Z</time>
      </trkpt>
      <trkpt lat="47.31706" lon="4.95619">
        <ele>415</ele>
        <time>2013-11-02T08:36:43.289Z</time>
      </trkpt>
      <trkpt lat="47.31708" lon="4.95613">
        <ele>415</ele>
        <time>2013-11-02T08:36:46.203Z</time>
      </trkpt>
      <trkpt lat="47.31712" lon="4.95603">
        <ele>414</ele>
        <time>2013-11-02T08:36:51.205Z</time>
      </trkpt>
      <trkpt lat="47.31714" lon="4.95597">
        <ele>414</ele>
        <time>2013-11-02T08:36:54.197Z</time>
      </trkpt>
      <trkpt lat="47.31717" lon="4.95587">
        <ele>414</ele>
        <time>2013-11-02T08:36:59.187Z</time>
      </trkpt>
      <trkpt lat="47.31719" lon="4.95581">
        <ele>413</ele>
        <time>2013-11-02T08:37:02.111Z</time>
      </trkpt>
      <trkpt lat="47.31721" lon="4.95573">
        <ele>413</ele>
        <time>2013-11-02T08:37:06.123Z</time>
      </trkpt>
      <trkpt lat="47.31723" lon="4.95567">
        <ele>413</ele>
        <time>2013-11-02T08:37:09.119Z</time>
      </trkpt>
      <trkpt lat="47.31726" lon="4.95556">
        <ele>413</ele>
        <time>2013-11-02T08:37:14.122Z</time>
      </trkpt>
      <trkpt lat="47.31728" lon="4.9555">
        <ele>413</ele>
        <time>2013-11-02T08:37:17.124Z</time>
      </trkpt>
      <trkpt lat="47.3173" lon="4.95542">
        <ele>413</ele>
        <time>2013-11-02T08:37:21.133Z</time>
      </trkpt>
      <trkpt lat="47.31731" lon="4.95538">
        <ele>413</ele>
        <time>2013-11-02T08:37:23.119Z</time>
      </trkpt>
      <trkpt lat="47.31734" lon="4.95527">
        <ele>413</ele>
        <time>2013-11-02T08:37:28.132Z</time>
      </trkpt>
      <trkpt lat="47.31736" lon="4.95522">
        <ele>413</ele>
        <time>2013-11-02T08:37:31.116Z</time>
      </trkpt>
      <trkpt lat="47.31739" lon="4.95512">
        <ele>412</ele>
        <time>2013-11-02T08:37:36.118Z</time>
      </trkpt>
      <trkpt lat="47.3174" lon="4.95508">
        <ele>412</ele>
        <time>2013-11-02T08:37:38.124Z</time>
      </trkpt>
      <trkpt lat="47.31744" lon="4.95499">
        <ele>412</ele>
        <time>2013-11-02T08:37:43.112Z</time>
      </trkpt>
      <trkpt lat="47.31745" lon="4.95495">
        <ele>412</ele>
        <time>2013-11-02T08:37:45.118Z</time>
      </trkpt>
      <trkpt lat="47.3175" lon="4.95484">
        <ele>411</ele>
        <time>2013-11-02T08:37:51.131Z</time>
      </trkpt>
      <trkpt lat="47.31752" lon="4.95481">
        <ele>411</ele>
        <time>2013-11-02T08:37:53.139Z</time>
      </trkpt>
      <trkpt lat="47.31754" lon="4.95475">
        <ele>411</ele>
        <time>2013-11-02T08:37:56.149Z</time>
      </trkpt>
      <trkpt lat="47.31756" lon="4.95469">
        <ele>411</ele>
        <time>2013-11-02T08:37:59.117Z</time>
      </trkpt>
      <trkpt lat="47.31758" lon="4.95463">
        <ele>411</ele>
        <time>2013-11-02T08:38:02.147Z</time>
      </trkpt>
      <trkpt lat="47.31761" lon="4.95457">
        <ele>411</ele>
        <time>2013-11-02T08:38:05.112Z</time>
      </trkpt>
      <trkpt lat="47.31764" lon="4.95449">
        <ele>411</ele>
        <time>2013-11-02T08:38:09.133Z</time>
      </trkpt>
      <trkpt lat="47.31765" lon="4.95443">
        <ele>411</ele>
        <time>2013-11-02T08:38:12.113Z</time>
      </trkpt>
      <trkpt lat="47.31769" lon="4.95433">
        <ele>411</ele>
        <time>2013-11-02T08:38:17.119Z</time>
      </trkpt>
      <trkpt lat="47.31771" lon="4.95429">
        <ele>411</ele>
        <time>2013-11-02T08:38:19.122Z</time>
      </trkpt>
      <trkpt lat="47.31773" lon="4.95422">
        <ele>411</ele>
        <time>2013-11-02T08:38:23.154Z</time>
      </trkpt>
      <trkpt lat="47.31775" lon="4.95416">
        <ele>411</ele>
        <time>2013-11-02T08:38:26.149Z</time>
      </trkpt>
      <trkpt lat="47.31779" lon="4.95408">
        <ele>411</ele>
        <time>2013-11-02T08:38:31.137Z</time>
      </trkpt>
      <trkpt lat="47.31781" lon="4.95402">
        <ele>411</ele>
        <time>2013-11-02T08:38:34.126Z</time>
      </trkpt>
      <trkpt lat="47.31784" lon="4.95392">
        <ele>411</ele>
        <time>2013-11-02T08:38:39.118Z</time>
      </trkpt>
      <trkpt lat="47.31786" lon="4.95386">
        <ele>411</ele>
        <time>2013-11-02T08:38:42.113Z</time>
      </trkpt>
      <trkpt lat="47.3179" lon="4.95377">
        <ele>411</ele>
        <time>2013-11-02T08:38:47.135Z</time>
      </trkpt>
      <trkpt lat="47.31792" lon="4.95371">
        <ele>411</ele>
        <time>2013-11-02T08:38:50.140Z</time>
      </trkpt>
      <trkpt lat="47.31795" lon="4.95361">
        <ele>411</ele>
        <time>2013-11-02T08:38:55.120Z</time>
      </trkpt>
      <trkpt lat="47.31796" lon="4.95357">
        <ele>411</ele>
        <time>2013-11-02T08:38:57.164Z</time>
      </trkpt>
      <trkpt lat="47.318" lon="4.95349">
        <ele>411</ele>
        <time>2013-11-02T08:39:02.130Z</time>
      </trkpt>
      <trkpt lat="47.31802" lon="4.95343">
        <ele>411</ele>
        <time>2013-11-02T08:39:05.118Z</time>
      </trkpt>
      <trkpt lat="47.31805" lon="4.95335">
        <ele>411</ele>
        <time>2013-11-02T08:39:09.122Z</time>
      </trkpt>
      <trkpt lat="47.31807" lon="4.95331">
        <ele>411</ele>
        <time>2013-11-02T08:39:11.124Z</time>
      </trkpt>
      <trkpt lat="47.31809" lon="4.95325">
        <ele>411</ele>
        <time>2013-11-02T08:39:14.146Z</time>
      </trkpt>
      <trkpt lat="47.31811" lon="4.95319">
        <ele>411</ele>
        <time>2013-11-02T08:39:17.127Z</time>
      </trkpt>
      <trkpt lat="47.31814" lon="4.95311">
        <ele>411</ele>
        <time>2013-11-02T08:39:21.141Z</time>
      </trkpt>
      <trkpt lat="47.31815" lon="4.95307">
        <ele>411</ele>
        <time>2013-11-02T08:39:23.139Z</time>
      </trkpt>
      <trkpt lat="47.31819" lon="4.95297">
        <ele>411</ele>
        <time>2013-11-02T08:39:28.133Z</time>
      </trkpt>
      <trkpt lat="47.31821" lon="4.95292">
        <ele>411</ele>
        <time>2013-11-02T08:39:31.115Z</time>
      </trkpt>
      <trkpt lat="47.31823" lon="4.95283">
        <ele>411</ele>
        <time>2013-11-02T08:39:35.127Z</time>
      </trkpt>
      <trkpt lat="47.31825" lon="4.9528">
        <ele>411</ele>
        <time>2013-11-02T08:39:37.128Z</time>
      </trkpt>
      <trkpt lat="47.31829" lon="4.95268">
        <ele>411</ele>
        <time>2013-11-02T08:39:43.107Z</time>
      </trkpt>
      <trkpt lat="47.3183" lon="4.95264">
        <ele>411</ele>
        <time>2013-11-02T08:39:45.131Z</time>
      </trkpt>
      <trkpt lat="47.31833" lon="4.95254">
        <ele>411</ele>
        <time>2013-11-02T08:39:50.140Z</time>
      </trkpt>
      <trkpt lat="47.31835" lon="4.95249">
        <ele>411</ele>
        <time>2013-11-02T08:39:53.126Z</time>
      </trkpt>
      <trkpt lat="47.31837" lon="4.95241">
        <ele>411</ele>
        <time>2013-11-02T08:39:57.139Z</time>
      </trkpt>
      <trkpt lat="47.31839" lon="4.95235">
        <ele>410</ele>
        <time>2013-11-02T08:40:00.134Z</time>
      </trkpt>
      <trkpt lat="47.31842" lon="4.95225">
        <ele>410</ele>
        <time>2013-11-02T08:40:05.451Z</time>
      </trkpt>
      <trkpt lat="47.31844" lon="4.9522">
        <ele>410</ele>
        <time>2013-11-02T08:40:08.453Z</time>
      </trkpt>
      <trkpt lat="47.31849" lon="4.95209">
        <ele>410</ele>
        <time>2013-11-02T08:40:14.458Z</time>
      </trkpt>
      <trkpt lat="47.3185" lon="4.95205">
        <ele>410</ele>
        <time>2013-11-02T08:40:16.459Z</time>
      </trkpt>
      <trkpt lat="47.31854" lon="4.95194">
        <ele>410</ele>
        <time>2013-11-02T08:40:22.470Z</time>
      </trkpt>
      <trkpt lat="47.31855" lon="4.95192">
        <ele>410</ele>
        <time>2013-11-02T08:40:23.447Z</time>
      </trkpt>
      <trkpt lat="47.31859" lon="4.95181">
        <ele>410</ele>
        <time>2013-11-02T08:40:29.470Z</time>
      </trkpt>
      <trkpt lat="47.31861" lon="4.95176">
        <ele>410</ele>
        <time>2013-11-02T08:40:32.450Z</time>
      </trkpt>
      <trkpt lat="47.31864" lon="4.95166">
        <ele>412</ele>
        <time>2013-11-02T08:40:37.444Z</time>
      </trkpt>
      <trkpt lat="47.31865" lon="4.95162">
        <ele>412</ele>
        <time>2013-11-02T08:40:39.446Z</time>
      </trkpt>
      <trkpt lat="47.31868" lon="4.95152">
        <ele>412</ele>
        <time>2013-11-02T08:40:44.462Z</time>
      </trkpt>
      <trkpt lat="47.31869" lon="4.95149">
        <ele>412</ele>
        <time>2013-11-02T08:40:46.465Z</time>
      </trkpt>
      <trkpt lat="47.31875" lon="4.95138">
        <ele>412</ele>
        <time>2013-11-02T08:40:53.472Z</time>
      </trkpt>
      <trkpt lat="47.31876" lon="4.95135">
        <ele>412</ele>
        <time>2013-11-02T08:40:56.479Z</time>
      </trkpt>
      <trkpt lat="47.31881" lon="4.95126">
        <ele>412</ele>
        <time>2013-11-02T08:41:03.469Z</time>
      </trkpt>
      <trkpt lat="47.31883" lon="4.95123">
        <ele>412</ele>
        <time>2013-11-02T08:41:05.479Z</time>
      </trkpt>
      <trkpt lat="47.31889" lon="4.95115">
        <ele>412</ele>
        <time>2013-11-02T08:41:11.479Z</time>
      </trkpt>
      <trkpt lat="47.31892" lon="4.9511">
        <ele>412</ele>
        <time>2013-11-02T08:41:14.481Z</time>
      </trkpt>
      <trkpt lat="47.31897" lon="4.95103">
        <ele>412</ele>
        <time>2013-11-02T08:41:19.504Z</time>
      </trkpt>
      <trkpt lat="47.319" lon="4.95098">
        <ele>411</ele>
        <time>2013-11-02T08:41:22.487Z</time>
      </trkpt>
      <trkpt lat="47.31906" lon="4.95088">
        <ele>411</ele>
        <time>2013-11-02T08:41:28.486Z</time>
      </trkpt>
      <trkpt lat="47.31909" lon="4.95082">
        <ele>412</ele>
        <time>2013-11-02T08:41:31.481Z</time>
      </trkpt>
      <trkpt lat="47.31912" lon="4.95075">
        <ele>412</ele>
        <time>2013-11-02T08:41:35.484Z</time>
      </trkpt>
      <trkpt lat="47.31914" lon="4.95072">
        <ele>412</ele>
        <time>2013-11-02T08:41:37.486Z</time>
      </trkpt>
      <trkpt lat="47.31919" lon="4.95063">
        <ele>411</ele>
        <time>2013-11-02T08:41:42.480Z</time>
      </trkpt>
      <trkpt lat="47.31921" lon="4.9506">
        <ele>411</ele>
        <time>2013-11-02T08:41:44.498Z</time>
      </trkpt>
      <trkpt lat="47.31925" lon="4.95054">
        <ele>411</ele>
        <time>2013-11-02T08:41:48.528Z</time>
      </trkpt>
      <trkpt lat="47.31928" lon="4.95049">
        <ele>411</ele>
        <time>2013-11-02T08:41:51.521Z</time>
      </trkpt>
      <trkpt lat="47.31932" lon="4.95043">
        <ele>411</ele>
        <time>2013-11-02T08:41:55.568Z</time>
      </trkpt>
      <trkpt lat="47.31935" lon="4.95039">
        <ele>411</ele>
        <time>2013-11-02T08:41:58.521Z</time>
      </trkpt>
      <trkpt lat="47.3194" lon="4.9503">
        <ele>411</ele>
        <time>2013-11-02T08:42:04.481Z</time>
      </trkpt>
      <trkpt lat="47.31943" lon="4.95026">
        <ele>411</ele>
        <time>2013-11-02T08:42:07.483Z</time>
      </trkpt>
      <trkpt lat="47.31949" lon="4.95019">
        <ele>410</ele>
        <time>2013-11-02T08:42:12.162Z</time>
      </trkpt>
      <trkpt lat="47.31953" lon="4.95014">
        <ele>410</ele>
        <time>2013-11-02T08:42:15.210Z</time>
      </trkpt>
      <trkpt lat="47.31958" lon="4.95007">
        <ele>410</ele>
        <time>2013-11-02T08:42:20.177Z</time>
      </trkpt>
      <trkpt lat="47.31961" lon="4.95002">
        <ele>410</ele>
        <time>2013-11-02T08:42:23.185Z</time>
      </trkpt>
      <trkpt lat="47.31965" lon="4.94997">
        <ele>410</ele>
        <time>2013-11-02T08:42:27.231Z</time>
      </trkpt>
      <trkpt lat="47.31969" lon="4.94993">
        <ele>410</ele>
        <time>2013-11-02T08:42:30.601Z</time>
      </trkpt>
      <trkpt lat="47.31975" lon="4.94987">
        <ele>409</ele>
        <time>2013-11-02T08:42:35.595Z</time>
      </trkpt>
      <trkpt lat="47.31977" lon="4.94985">
        <ele>409</ele>
        <time>2013-11-02T08:42:37.600Z</time>
      </trkpt>
      <trkpt lat="47.31984" lon="4.94979">
        <ele>409</ele>
        <time>2013-11-02T08:42:42.585Z</time>
      </trkpt>
      <trkpt lat="47.31986" lon="4.94977">
        <ele>409</ele>
        <time>2013-11-02T08:42:44.600Z</time>
      </trkpt>
      <trkpt lat="47.3199" lon="4.94971">
        <ele>409</ele>
        <time>2013-11-02T08:42:48.635Z</time>
      </trkpt>
      <trkpt lat="47.31992" lon="4.94965">
        <ele>409</ele>
        <time>2013-11-02T08:42:51.649Z</time>
      </trkpt>
      <trkpt lat="47.31994" lon="4.94953">
        <ele>409</ele>
        <time>2013-11-02T08:42:57.639Z</time>
      </trkpt>
      <trkpt lat="47.31993" lon="4.94949">
        <ele>409</ele>
        <time>2013-11-02T08:42:59.663Z</time>
      </trkpt>
      <trkpt lat="47.31987" lon="4.94938">
        <ele>409</ele>
        <time>2013-11-02T08:43:05.655Z</time>
      </trkpt>
      <trkpt lat="47.31984" lon="4.94934">
        <ele>409</ele>
        <time>2013-11-02T08:43:08.675Z</time>
      </trkpt>
      <trkpt lat="47.31979" lon="4.94926">
        <ele>409</ele>
        <time>2013-11-02T08:43:13.641Z</time>
      </trkpt>
      <trkpt lat="47.31977" lon="4.94923">
        <ele>409</ele>
        <time>2013-11-02T08:43:15.671Z</time>
      </trkpt>
      <trkpt lat="47.31973" lon="4.94918">
        <ele>409</ele>
        <time>2013-11-02T08:43:19.683Z</time>
      </trkpt>
      <trkpt lat="47.31969" lon="4.94914">
        <ele>408</ele>
        <time>2013-11-02T08:43:22.681Z</time>
      </trkpt>
      <trkpt lat="47.31963" lon="4.94904">
        <ele>409</ele>
        <time>2013-11-02T08:43:28.672Z</time>
      </trkpt>
      <trkpt lat="47.3196" lon="4.949">
        <ele>409</ele>
        <time>2013-11-02T08:43:31.638Z</time>
      </trkpt>
      <trkpt lat="47.31955" lon="4.94893">
        <ele>409</ele>
        <time>2013-11-02T08:43:36.663Z</time>
      </trkpt>
      <trkpt lat="47.31952" lon="4.94888">
        <ele>409</ele>
        <time>2013-11-02T08:43:39.645Z</time>
      </trkpt>
      <trkpt lat="47.31947" lon="4.94879">
        <ele>409</ele>
        <time>2013-11-02T08:43:44.652Z</time>
      </trkpt>
      <trkpt lat="47.31945" lon="4.94876">
        <ele>409</ele>
        <time>2013-11-02T08:43:46.681Z</time>
      </trkpt>
      <trkpt lat="47.31941" lon="4.94869">
        <ele>409</ele>
        <time>2013-11-02T08:43:50.742Z</time>
      </trkpt>
      <trkpt lat="47.31938" lon="4.94863">
        <ele>409</ele>
        <time>2013-11-02T08:43:53.636Z</time>
      </trkpt>
      <trkpt lat="47.31934" lon="4.94855">
        <ele>410</ele>
        <time>2013-11-02T08:43:58.692Z</time>
      </trkpt>
      <trkpt lat="47.31932" lon="4.9485">
        <ele>410</ele>
        <time>2013-11-02T08:44:01.627Z</time>
      </trkpt>
      <trkpt lat="47.31927" lon="4.94839">
        <ele>411</ele>
        <time>2013-11-02T08:44:07.641Z</time>
      </trkpt>
      <trkpt lat="47.31926" lon="4.94835">
        <ele>412</ele>
        <time>2013-11-02T08:44:09.672Z</time>
      </trkpt>
      <trkpt lat="47.31922" lon="4.94827">
        <ele>411</ele>
        <time>2013-11-02T08:44:14.657Z</time>
      </trkpt>
      <trkpt lat="47.31921" lon="4.94823">
        <ele>411</ele>
        <time>2013-11-02T08:44:16.673Z</time>
      </trkpt>
      <trkpt lat="47.31918" lon="4.94814">
        <ele>409</ele>
        <time>2013-11-02T08:44:21.662Z</time>
      </trkpt>
      <trkpt lat="47.31917" lon="4.9481">
        <ele>413</ele>
        <time>2013-11-02T08:44:23.626Z</time>
      </trkpt>
      <trkpt lat="47.31913" lon="4.94799">
        <ele>413</ele>
        <time>2013-11-02T08:44:29.656Z</time>
      </trkpt>
      <trkpt lat="47.31912" lon="4.94794">
        <ele>413</ele>
        <time>2013-11-02T08:44:32.650Z</time>
      </trkpt>
      <trkpt lat="47.31909" lon="4.94785">
        <ele>412</ele>
        <time>2013-11-02T08:44:37.739Z</time>
      </trkpt>
      <trkpt lat="47.31908" lon="4.94779">
        <ele>412</ele>
        <time>2013-11-02T08:44:40.288Z</time>
      </trkpt>
      <trkpt lat="47.31906" lon="4.94771">
        <ele>412</ele>
        <time>2013-11-02T08:44:44.374Z</time>
      </trkpt>
      <trkpt lat="47.31905" lon="4.94766">
        <ele>412</ele>
        <time>2013-11-02T08:44:47.339Z</time>
      </trkpt>
      <trkpt lat="47.31902" lon="4.94754">
        <ele>412</ele>
        <time>2013-11-02T08:44:53.371Z</time>
      </trkpt>
      <trkpt lat="47.319" lon="4.94747">
        <ele>412</ele>
        <time>2013-11-02T08:44:56.372Z</time>
      </trkpt>
      <trkpt lat="47.31897" lon="4.94737">
        <ele>412</ele>
        <time>2013-11-02T08:45:01.346Z</time>
      </trkpt>
      <trkpt lat="47.31896" lon="4.94731">
        <ele>413</ele>
        <time>2013-11-02T08:45:04.348Z</time>
      </trkpt>
      <trkpt lat="47.31893" lon="4.94723">
        <ele>413</ele>
        <time>2013-11-02T08:45:08.356Z</time>
      </trkpt>
      <trkpt lat="47.31892" lon="4.94719">
        <ele>413</ele>
        <time>2013-11-02T08:45:10.375Z</time>
      </trkpt>
      <trkpt lat="47.31888" lon="4.9471">
        <ele>413</ele>
        <time>2013-11-02T08:45:15.360Z</time>
      </trkpt>
      <trkpt lat="47.31887" lon="4.94706">
        <ele>413</ele>
        <time>2013-11-02T08:45:17.371Z</time>
      </trkpt>
      <trkpt lat="47.31883" lon="4.94695">
        <ele>413</ele>
        <time>2013-11-02T08:45:23.358Z</time>
      </trkpt>
      <trkpt lat="47.31882" lon="4.94691">
        <ele>413</ele>
        <time>2013-11-02T08:45:25.358Z</time>
      </trkpt>
      <trkpt lat="47.31879" lon="4.94684">
        <ele>413</ele>
        <time>2013-11-02T08:45:29.367Z</time>
      </trkpt>
      <trkpt lat="47.31877" lon="4.94678">
        <ele>413</ele>
        <time>2013-11-02T08:45:32.372Z</time>
      </trkpt>
      <trkpt lat="47.31873" lon="4.94666">
        <ele>413</ele>
        <time>2013-11-02T08:45:38.383Z</time>
      </trkpt>
      <trkpt lat="47.31871" lon="4.94661">
        <ele>413</ele>
        <time>2013-11-02T08:45:41.362Z</time>
      </trkpt>
      <trkpt lat="47.31868" lon="4.94654">
        <ele>413</ele>
        <time>2013-11-02T08:45:45.459Z</time>
      </trkpt>
      <trkpt lat="47.31865" lon="4.94648">
        <ele>413</ele>
        <time>2013-11-02T08:45:48.403Z</time>
      </trkpt>
      <trkpt lat="47.31862" lon="4.9464">
        <ele>413</ele>
        <time>2013-11-02T08:45:53.400Z</time>
      </trkpt>
      <trkpt lat="47.3186" lon="4.94636">
        <ele>413</ele>
        <time>2013-11-02T08:45:55.405Z</time>
      </trkpt>
      <trkpt lat="47.31856" lon="4.9463">
        <ele>413</ele>
        <time>2013-11-02T08:45:59.413Z</time>
      </trkpt>
      <trkpt lat="47.31854" lon="4.94625">
        <ele>412</ele>
        <time>2013-11-02T08:46:02.375Z</time>
      </trkpt>
      <trkpt lat="47.3185" lon="4.94616">
        <ele>412</ele>
        <time>2013-11-02T08:46:07.361Z</time>
      </trkpt>
      <trkpt lat="47.31848" lon="4.94613">
        <ele>412</ele>
        <time>2013-11-02T08:46:09.361Z</time>
      </trkpt>
      <trkpt lat="47.31844" lon="4.94604">
        <ele>412</ele>
        <time>2013-11-02T08:46:14.371Z</time>
      </trkpt>
      <trkpt lat="47.31841" lon="4.94599">
        <ele>412</ele>
        <time>2013-11-02T08:46:17.378Z</time>
      </trkpt>
      <trkpt lat="47.31836" lon="4.94589">
        <ele>412</ele>
        <time>2013-11-02T08:46:23.377Z</time>
      </trkpt>
      <trkpt lat="47.31833" lon="4.94584">
        <ele>412</ele>
        <time>2013-11-02T08:46:26.368Z</time>
      </trkpt>
      <trkpt lat="47.31828" lon="4.94574">
        <ele>413</ele>
        <time>2013-11-02T08:46:32.930Z</time>
      </trkpt>
      <trkpt lat="47.31825" lon="4.9457">
        <ele>413</ele>
        <time>2013-11-02T08:46:35.912Z</time>
      </trkpt>
      <trkpt lat="47.3182" lon="4.94562">
        <ele>414</ele>
        <time>2013-11-02T08:46:40.908Z</time>
      </trkpt>
      <trkpt lat="47.31817" lon="4.94557">
        <ele>414</ele>
        <time>2013-11-02T08:46:43.917Z</time>
      </trkpt>
      <trkpt lat="47.31812" lon="4.94548">
        <ele>414</ele>
        <time>2013-11-02T08:46:49.918Z</time>
      </trkpt>
      <trkpt lat="47.3181" lon="4.94545">
        <ele>414</ele>
        <time>2013-11-02T08:46:51.941Z</time>
      </trkpt>
      <trkpt lat="47.31804" lon="4.94536">
        <ele>415</ele>
        <time>2013-11-02T08:46:57.975Z</time>
      </trkpt>
      <trkpt lat="47.31802" lon="4.94533">
        <ele>415</ele>
        <time>2013-11-02T08:46:59.982Z</time>
      </trkpt>
      <trkpt lat="47.31796" lon="4.94523">
        <ele>415</ele>
        <time>2013-11-02T08:47:05.901Z</time>
      </trkpt>
      <trkpt lat="47.31793" lon="4.94519">
        <ele>415</ele>
        <time>2013-11-02T08:47:08.903Z</time>
      </trkpt>
      <trkpt lat="47.31788" lon="4.94511">
        <ele>415</ele>
        <time>2013-11-02T08:47:13.890Z</time>
      </trkpt>
      <trkpt lat="47.31786" lon="4.94508">
        <ele>415</ele>
        <time>2013-11-02T08:47:15.910Z</time>
      </trkpt>
      <trkpt lat="47.31782" lon="4.94502">
        <ele>415</ele>
        <time>2013-11-02T08:47:20.925Z</time>
      </trkpt>
      <trkpt lat="47.31779" lon="4.94497">
        <ele>416</ele>
        <time>2013-11-02T08:47:23.894Z</time>
      </trkpt>
      <trkpt lat="47.31776" lon="4.94491">
        <ele>416</ele>
        <time>2013-11-02T08:47:27.910Z</time>
      </trkpt>
      <trkpt lat="47.31773" lon="4.94486">
        <ele>416</ele>
        <time>2013-11-02T08:47:30.885Z</time>
      </trkpt>
      <trkpt lat="47.31768" lon="4.94479">
        <ele>417</ele>
        <time>2013-11-02T08:47:35.895Z</time>
      </trkpt>
      <trkpt lat="47.31766" lon="4.94474">
        <ele>417</ele>
        <time>2013-11-02T08:47:38.915Z</time>
      </trkpt>
      <trkpt lat="47.31761" lon="4.94466">
        <ele>417</ele>
        <time>2013-11-02T08:47:43.898Z</time>
      </trkpt>
      <trkpt lat="47.31759" lon="4.94463">
        <ele>417</ele>
        <time>2013-11-02T08:47:45.927Z</time>
      </trkpt>
      <trkpt lat="47.31755" lon="4.94454">
        <ele>417</ele>
        <time>2013-11-02T08:47:50.920Z</time>
      </trkpt>
      <trkpt lat="47.31753" lon="4.94451">
        <ele>417</ele>
        <time>2013-11-02T08:47:52.923Z</time>
      </trkpt>
      <trkpt lat="47.31749" lon="4.94441">
        <ele>418</ele>
        <time>2013-11-02T08:47:57.955Z</time>
      </trkpt>
      <trkpt lat="47.31746" lon="4.94436">
        <ele>418</ele>
        <time>2013-11-02T08:48:00.908Z</time>
      </trkpt>
      <trkpt lat="47.31742" lon="4.94426">
        <ele>418</ele>
        <time>2013-11-02T08:48:05.897Z</time>
      </trkpt>
      <trkpt lat="47.3174" lon="4.94421">
        <ele>418</ele>
        <time>2013-11-02T08:48:08.903Z</time>
      </trkpt>
      <trkpt lat="47.31736" lon="4.94412">
        <ele>419</ele>
        <time>2013-11-02T08:48:13.891Z</time>
      </trkpt>
      <trkpt lat="47.31734" lon="4.94409">
        <ele>419</ele>
        <time>2013-11-02T08:48:15.895Z</time>
      </trkpt>
      <trkpt lat="47.3173" lon="4.944">
        <ele>419</ele>
        <time>2013-11-02T08:48:20.925Z</time>
      </trkpt>
      <trkpt lat="47.31727" lon="4.94395">
        <ele>419</ele>
        <time>2013-11-02T08:48:23.905Z</time>
      </trkpt>
      <trkpt lat="47.31722" lon="4.94387">
        <ele>419</ele>
        <time>2013-11-02T08:48:28.912Z</time>
      </trkpt>
      <trkpt lat="47.31719" lon="4.94382">
        <ele>419</ele>
        <time>2013-11-02T08:48:31.901Z</time>
      </trkpt>
      <trkpt lat="47.31714" lon="4.94374">
        <ele>419</ele>
        <time>2013-11-02T08:48:36.892Z</time>
      </trkpt>
      <trkpt lat="47.31712" lon="4.94371">
        <ele>419</ele>
        <time>2013-11-02T08:48:38.933Z</time>
      </trkpt>
      <trkpt lat="47.31709" lon="4.94366">
        <ele>419</ele>
        <time>2013-11-02T08:48:41.891Z</time>
      </trkpt>
      <trkpt lat="47.31706" lon="4.94361">
        <ele>419</ele>
        <time>2013-11-02T08:48:44.912Z</time>
      </trkpt>
      <trkpt lat="47.317" lon="4.94351">
        <ele>420</ele>
        <time>2013-11-02T08:48:50.699Z</time>
      </trkpt>
      <trkpt lat="47.31699" lon="4.94348">
        <ele>420</ele>
        <time>2013-11-02T08:48:52.709Z</time>
      </trkpt>
      <trkpt lat="47.31694" lon="4.9434">
        <ele>420</ele>
        <time>2013-11-02T08:48:57.662Z</time>
      </trkpt>
      <trkpt lat="47.31693" lon="4.94337">
        <ele>420</ele>
        <time>2013-11-02T08:48:59.670Z</time>
      </trkpt>
      <trkpt lat="47.31688" lon="4.94328">
        <ele>421</ele>
        <time>2013-11-02T08:49:04.642Z</time>
      </trkpt>
      <trkpt lat="47.31687" lon="4.94325">
        <ele>421</ele>
        <time>2013-11-02T08:49:06.647Z</time>
      </trkpt>
      <trkpt lat="47.31682" lon="4.94318">
        <ele>421</ele>
        <time>2013-11-02T08:49:11.658Z</time>
      </trkpt>
      <trkpt lat="47.3168" lon="4.94313">
        <ele>421</ele>
        <time>2013-11-02T08:49:14.669Z</time>
      </trkpt>
      <trkpt lat="47.31677" lon="4.94306">
        <ele>421</ele>
        <time>2013-11-02T08:49:18.690Z</time>
      </trkpt>
      <trkpt lat="47.31674" lon="4.94301">
        <ele>421</ele>
        <time>2013-11-02T08:49:21.622Z</time>
      </trkpt>
      <trkpt lat="47.31671" lon="4.94294">
        <ele>421</ele>
        <time>2013-11-02T08:49:25.737Z</time>
      </trkpt>
      <trkpt lat="47.31668" lon="4.94289">
        <ele>421</ele>
        <time>2013-11-02T08:49:28.685Z</time>
      </trkpt>
      <trkpt lat="47.31665" lon="4.94279">
        <ele>421</ele>
        <time>2013-11-02T08:49:33.655Z</time>
      </trkpt>
      <trkpt lat="47.31662" lon="4.94274">
        <ele>421</ele>
        <time>2013-11-02T08:49:36.644Z</time>
      </trkpt>
      <trkpt lat="47.31658" lon="4.94265">
        <ele>421</ele>
        <time>2013-11-02T08:49:41.645Z</time>
      </trkpt>
      <trkpt lat="47.31655" lon="4.9426">
        <ele>421</ele>
        <time>2013-11-02T08:49:44.656Z</time>
      </trkpt>
      <trkpt lat="47.3165" lon="4.9425">
        <ele>421</ele>
        <time>2013-11-02T08:49:50.679Z</time>
      </trkpt>
      <trkpt lat="47.31647" lon="4.94245">
        <ele>421</ele>
        <time>2013-11-02T08:49:53.652Z</time>
      </trkpt>
      <trkpt lat="47.3164" lon="4.94236">
        <ele>421</ele>
        <time>2013-11-02T08:49:59.661Z</time>
      </trkpt>
      <trkpt lat="47.31638" lon="4.94233">
        <ele>421</ele>
        <time>2013-11-02T08:50:01.664Z</time>
      </trkpt>
      <trkpt lat="47.31633" lon="4.94223">
        <ele>421</ele>
        <time>2013-11-02T08:50:07.691Z</time>
      </trkpt>
      <trkpt lat="47.31629" lon="4.94218">
        <ele>421</ele>
        <time>2013-11-02T08:50:10.671Z</time>
      </trkpt>
      <trkpt lat="47.31623" lon="4.94209">
        <ele>421</ele>
        <time>2013-11-02T08:50:16.698Z</time>
      </trkpt>
      <trkpt lat="47.31621" lon="4.94206">
        <ele>421</ele>
        <time>2013-11-02T08:50:18.708Z</time>
      </trkpt>
      <trkpt lat="47.31616" lon="4.94199">
        <ele>421</ele>
        <time>2013-11-02T08:50:23.690Z</time>
      </trkpt>
      <trkpt lat="47.31613" lon="4.94194">
        <ele>421</ele>
        <time>2013-11-02T08:50:26.705Z</time>
      </trkpt>
      <trkpt lat="47.31607" lon="4.94185">
        <ele>421</ele>
        <time>2013-11-02T08:50:32.684Z</time>
      </trkpt>
      <trkpt lat="47.31604" lon="4.9418">
        <ele>421</ele>
        <time>2013-11-02T08:50:35.680Z</time>
      </trkpt>
      <trkpt lat="47.31599" lon="4.9417">
        <ele>422</ele>
        <time>2013-11-02T08:50:41.634Z</time>
      </trkpt>
      <trkpt lat="47.31597" lon="4.94167">
        <ele>422</ele>
        <time>2013-11-02T08:50:43.792Z</time>
      </trkpt>
      <trkpt lat="47.31593" lon="4.94158">
        <ele>421</ele>
        <time>2013-11-02T08:50:48.814Z</time>
      </trkpt>
      <trkpt lat="47.31592" lon="4.94155">
        <ele>421</ele>
        <time>2013-11-02T08:50:50.813Z</time>
      </trkpt>
      <trkpt lat="47.31587" lon="4.94145">
        <ele>421</ele>
        <time>2013-11-02T08:50:58.277Z</time>
      </trkpt>
      <trkpt lat="47.31586" lon="4.9414">
        <ele>421</ele>
        <time>2013-11-02T08:51:00.313Z</time>
      </trkpt>
      <trkpt lat="47.31581" lon="4.94131">
        <ele>422</ele>
        <time>2013-11-02T08:51:05.286Z</time>
      </trkpt>
      <trkpt lat="47.3158" lon="4.94128">
        <ele>422</ele>
        <time>2013-11-02T08:51:07.293Z</time>
      </trkpt>
      <trkpt lat="47.31576" lon="4.94118">
        <ele>422</ele>
        <time>2013-11-02T08:51:12.277Z</time>
      </trkpt>
      <trkpt lat="47.31575" lon="4.94114">
        <ele>422</ele>
        <time>2013-11-02T08:51:14.305Z</time>
      </trkpt>
      <trkpt lat="47.31572" lon="4.94106">
        <ele>422</ele>
        <time>2013-11-02T08:51:18.343Z</time>
      </trkpt>
      <trkpt lat="47.3157" lon="4.941">
        <ele>422</ele>
        <time>2013-11-02T08:51:21.302Z</time>
      </trkpt>
      <trkpt lat="47.31568" lon="4.94092">
        <ele>422</ele>
        <time>2013-11-02T08:51:25.315Z</time>
      </trkpt>
      <trkpt lat="47.31566" lon="4.94087">
        <ele>422</ele>
        <time>2013-11-02T08:51:28.306Z</time>
      </trkpt>
      <trkpt lat="47.31562" lon="4.94076">
        <ele>422</ele>
        <time>2013-11-02T08:51:34.300Z</time>
      </trkpt>
      <trkpt lat="47.3156" lon="4.9407">
        <ele>422</ele>
        <time>2013-11-02T08:51:37.284Z</time>
      </trkpt>
      <trkpt lat="47.31556" lon="4.94061">
        <ele>421</ele>
        <time>2013-11-02T08:51:42.280Z</time>
      </trkpt>
      <trkpt lat="47.31555" lon="4.94057">
        <ele>421</ele>
        <time>2013-11-02T08:51:44.294Z</time>
      </trkpt>
      <trkpt lat="47.31551" lon="4.94047">
        <ele>421</ele>
        <time>2013-11-02T08:51:49.296Z</time>
      </trkpt>
      <trkpt lat="47.31549" lon="4.94043">
        <ele>421</ele>
        <time>2013-11-02T08:51:51.297Z</time>
      </trkpt>
      <trkpt lat="47.31545" lon="4.94034">
        <ele>421</ele>
        <time>2013-11-02T08:51:56.317Z</time>
      </trkpt>
      <trkpt lat="47.31543" lon="4.94028">
        <ele>421</ele>
        <time>2013-11-02T08:51:59.323Z</time>
      </trkpt>
      <trkpt lat="47.31541" lon="4.94023">
        <ele>421</ele>
        <time>2013-11-02T08:52:02.301Z</time>
      </trkpt>
      <trkpt lat="47.31539" lon="4.94016">
        <ele>421</ele>
        <time>2013-11-02T08:52:05.289Z</time>
      </trkpt>
      <trkpt lat="47.31536" lon="4.94008">
        <ele>421</ele>
        <time>2013-11-02T08:52:09.297Z</time>
      </trkpt>
      <trkpt lat="47.31533" lon="4.94002">
        <ele>421</ele>
        <time>2013-11-02T08:52:12.287Z</time>
      </trkpt>
      <trkpt lat="47.3153" lon="4.93992">
        <ele>420</ele>
        <time>2013-11-02T08:52:17.299Z</time>
      </trkpt>
      <trkpt lat="47.31528" lon="4.93989">
        <ele>420</ele>
        <time>2013-11-02T08:52:19.304Z</time>
      </trkpt>
      <trkpt lat="47.31524" lon="4.93977">
        <ele>420</ele>
        <time>2013-11-02T08:52:25.302Z</time>
      </trkpt>
      <trkpt lat="47.31523" lon="4.93973">
        <ele>420</ele>
        <time>2013-11-02T08:52:27.315Z</time>
      </trkpt>
      <trkpt lat="47.3152" lon="4.93962">
        <ele>420</ele>
        <time>2013-11-02T08:52:32.303Z</time>
      </trkpt>
      <trkpt lat="47.31518" lon="4.93957">
        <ele>420</ele>
        <time>2013-11-02T08:52:35.297Z</time>
      </trkpt>
      <trkpt lat="47.31514" lon="4.93945">
        <ele>420</ele>
        <time>2013-11-02T08:52:41.285Z</time>
      </trkpt>
      <trkpt lat="47.31513" lon="4.93941">
        <ele>420</ele>
        <time>2013-11-02T08:52:43.286Z</time>
      </trkpt>
      <trkpt lat="47.31511" lon="4.93929">
        <ele>420</ele>
        <time>2013-11-02T08:52:49.309Z</time>
      </trkpt>
      <trkpt lat="47.3151" lon="4.93925">
        <ele>420</ele>
        <time>2013-11-02T08:52:51.313Z</time>
      </trkpt>
      <trkpt lat="47.31508" lon="4.93915">
        <ele>419</ele>
        <time>2013-11-02T08:52:56.324Z</time>
      </trkpt>
      <trkpt lat="47.31506" lon="4.9391">
        <ele>419</ele>
        <time>2013-11-02T08:52:59.312Z</time>
      </trkpt>
      <trkpt lat="47.31504" lon="4.93903">
        <ele>419</ele>
        <time>2013-11-02T08:53:02.291Z</time>
      </trkpt>
      <trkpt lat="47.31503" lon="4.93897">
        <ele>419</ele>
        <time>2013-11-02T08:53:05.286Z</time>
      </trkpt>
      <trkpt lat="47.31501" lon="4.93887">
        <ele>419</ele>
        <time>2013-11-02T08:53:10.290Z</time>
      </trkpt>
      <trkpt lat="47.315" lon="4.93883">
        <ele>421</ele>
        <time>2013-11-02T08:53:12.294Z</time>
      </trkpt>
      <trkpt lat="47.31498" lon="4.93875">
        <ele>421</ele>
        <time>2013-11-02T08:53:16.311Z</time>
      </trkpt>
      <trkpt lat="47.31496" lon="4.93869">
        <ele>421</ele>
        <time>2013-11-02T08:53:19.300Z</time>
      </trkpt>
      <trkpt lat="47.31493" lon="4.93857">
        <ele>421</ele>
        <time>2013-11-02T08:53:25.316Z</time>
      </trkpt>
      <trkpt lat="47.31492" lon="4.93853">
        <ele>421</ele>
        <time>2013-11-02T08:53:27.325Z</time>
      </trkpt>
      <trkpt lat="47.31489" lon="4.93843">
        <ele>420</ele>
        <time>2013-11-02T08:53:32.308Z</time>
      </trkpt>
      <trkpt lat="47.31488" lon="4.93836">
        <ele>420</ele>
        <time>2013-11-02T08:53:35.303Z</time>
      </trkpt>
      <trkpt lat="47.31486" lon="4.9383">
        <ele>420</ele>
        <time>2013-11-02T08:53:38.309Z</time>
      </trkpt>
      <trkpt lat="47.31485" lon="4.93824">
        <ele>420</ele>
        <time>2013-11-02T08:53:41.285Z</time>
      </trkpt>
      <trkpt lat="47.31483" lon="4.93815">
        <ele>420</ele>
        <time>2013-11-02T08:53:45.310Z</time>
      </trkpt>
      <trkpt lat="47.31482" lon="4.93809">
        <ele>420</ele>
        <time>2013-11-02T08:53:48.304Z</time>
      </trkpt>
      <trkpt lat="47.31479" lon="4.93799">
        <ele>420</ele>
        <time>2013-11-02T08:53:53.301Z</time>
      </trkpt>
      <trkpt lat="47.31478" lon="4.93795">
        <ele>420</ele>
        <time>2013-11-02T08:53:55.310Z</time>
      </trkpt>
      <trkpt lat="47.31475" lon="4.93782">
        <ele>420</ele>
        <time>2013-11-02T08:54:01.285Z</time>
      </trkpt>
      <trkpt lat="47.31474" lon="4.93778">
        <ele>420</ele>
        <time>2013-11-02T08:54:03.295Z</time>
      </trkpt>
      <trkpt lat="47.31472" lon="4.93768">
        <ele>420</ele>
        <time>2013-11-02T08:54:08.312Z</time>
      </trkpt>
      <trkpt lat="47.31471" lon="4.93761">
        <ele>420</ele>
        <time>2013-11-02T08:54:11.292Z</time>
      </trkpt>
      <trkpt lat="47.31468" lon="4.93749">
        <ele>418</ele>
        <time>2013-11-02T08:54:17.323Z</time>
      </trkpt>
      <trkpt lat="47.31467" lon="4.93743">
        <ele>418</ele>
        <time>2013-11-02T08:54:20.337Z</time>
      </trkpt>
      <trkpt lat="47.31465" lon="4.93732">
        <ele>418</ele>
        <time>2013-11-02T08:54:25.305Z</time>
      </trkpt>
      <trkpt lat="47.31464" lon="4.93728">
        <ele>418</ele>
        <time>2013-11-02T08:54:27.312Z</time>
      </trkpt>
      <trkpt lat="47.31462" lon="4.93717">
        <ele>418</ele>
        <time>2013-11-02T08:54:32.321Z</time>
      </trkpt>
      <trkpt lat="47.31461" lon="4.93711">
        <ele>418</ele>
        <time>2013-11-02T08:54:35.291Z</time>
      </trkpt>
      <trkpt lat="47.31459" lon="4.93703">
        <ele>418</ele>
        <time>2013-11-02T08:54:39.298Z</time>
      </trkpt>
      <trkpt lat="47.31457" lon="4.93697">
        <ele>418</ele>
        <time>2013-11-02T08:54:42.295Z</time>
      </trkpt>
      <trkpt lat="47.31456" lon="4.93688">
        <ele>418</ele>
        <time>2013-11-02T08:54:46.313Z</time>
      </trkpt>
      <trkpt lat="47.31455" lon="4.93684">
        <ele>418</ele>
        <time>2013-11-02T08:54:48.334Z</time>
      </trkpt>
      <trkpt lat="47.31453" lon="4.93674">
        <ele>418</ele>
        <time>2013-11-02T08:54:53.335Z</time>
      </trkpt>
      <trkpt lat="47.31452" lon="4.93668">
        <ele>418</ele>
        <time>2013-11-02T08:54:56.335Z</time>
      </trkpt>
      <trkpt lat="47.31448" lon="4.93658">
        <ele>416</ele>
        <time>2013-11-02T08:55:02.308Z</time>
      </trkpt>
      <trkpt lat="47.31446" lon="4.93654">
        <ele>416</ele>
        <time>2013-11-02T08:55:05.293Z</time>
      </trkpt>
      <trkpt lat="47.31443" lon="4.93648">
        <ele>416</ele>
        <time>2013-11-02T08:55:09.306Z</time>
      </trkpt>
      <trkpt lat="47.3144" lon="4.93644">
        <ele>416</ele>
        <time>2013-11-02T08:55:12.292Z</time>
      </trkpt>
      <trkpt lat="47.31435" lon="4.93637">
        <ele>416</ele>
        <time>2013-11-02T08:55:17.302Z</time>
      </trkpt>
      <trkpt lat="47.31433" lon="4.93634">
        <ele>416</ele>
        <time>2013-11-02T08:55:19.306Z</time>
      </trkpt>
      <trkpt lat="47.31426" lon="4.93627">
        <ele>416</ele>
        <time>2013-11-02T08:55:26.315Z</time>
      </trkpt>
      <trkpt lat="47.31424" lon="4.93624">
        <ele>416</ele>
        <time>2013-11-02T08:55:29.299Z</time>
      </trkpt>
      <trkpt lat="47.31416" lon="4.93619">
        <ele>419</ele>
        <time>2013-11-02T08:55:35.290Z</time>
      </trkpt>
      <trkpt lat="47.31413" lon="4.93616">
        <ele>419</ele>
        <time>2013-11-02T08:55:38.304Z</time>
      </trkpt>
      <trkpt lat="47.31408" lon="4.93608">
        <ele>419</ele>
        <time>2013-11-02T08:55:45.292Z</time>
      </trkpt>
      <trkpt lat="47.31405" lon="4.93607">
        <ele>419</ele>
        <time>2013-11-02T08:55:47.305Z</time>
      </trkpt>
      <trkpt lat="47.31398" lon="4.93601">
        <ele>419</ele>
        <time>2013-11-02T08:55:56.309Z</time>
      </trkpt>
      <trkpt lat="47.31395" lon="4.93599">
        <ele>419</ele>
        <time>2013-11-02T08:55:59.307Z</time>
      </trkpt>
      <trkpt lat="47.31388" lon="4.93594">
        <ele>419</ele>
        <time>2013-11-02T08:56:05.285Z</time>
      </trkpt>
      <trkpt lat="47.31385" lon="4.93592">
        <ele>420</ele>
        <time>2013-11-02T08:56:08.300Z</time>
      </trkpt>
      <trkpt lat="47.31378" lon="4.93586">
        <ele>420</ele>
        <time>2013-11-02T08:56:20.314Z</time>
      </trkpt>
      <trkpt lat="47.31376" lon="4.93585">
        <ele>420</ele>
        <time>2013-11-02T08:56:23.303Z</time>
      </trkpt>
      <trkpt lat="47.3137" lon="4.9358">
        <ele>418</ele>
        <time>2013-11-02T08:56:28.289Z</time>
      </trkpt>
      <trkpt lat="47.31368" lon="4.93578">
        <ele>418</ele>
        <time>2013-11-02T08:56:31.279Z</time>
      </trkpt>
      <trkpt lat="47.31367" lon="4.93577">
        <ele>418</ele>
        <time>2013-11-02T08:56:33.280Z</time>
      </trkpt>
      <trkpt lat="47.31367" lon="4.93577">
        <ele>418</ele>
        <time>2013-11-02T08:56:35.282Z</time>
      </trkpt>
      <trkpt lat="47.31364" lon="4.93573">
        <ele>419</ele>
        <time>2013-11-02T08:56:37.283Z</time>
      </trkpt>
      <trkpt lat="47.31357" lon="4.93564">
        <ele>419</ele>
        <time>2013-11-02T08:56:44.291Z</time>
      </trkpt>
      <trkpt lat="47.31355" lon="4.93562">
        <ele>419</ele>
        <time>2013-11-02T08:56:46.307Z</time>
      </trkpt>
      <trkpt lat="47.31349" lon="4.93554">
        <ele>419</ele>
        <time>2013-11-02T08:56:53.296Z</time>
      </trkpt>
      <trkpt lat="47.31346" lon="4.93551">
        <ele>418</ele>
        <time>2013-11-02T08:56:56.302Z</time>
      </trkpt>
      <trkpt lat="47.3134" lon="4.93544">
        <ele>418</ele>
        <time>2013-11-02T08:57:02.291Z</time>
      </trkpt>
      <trkpt lat="47.31336" lon="4.93541">
        <ele>418</ele>
        <time>2013-11-02T08:57:05.288Z</time>
      </trkpt>
      <trkpt lat="47.3133" lon="4.93533">
        <ele>421</ele>
        <time>2013-11-02T08:57:11.282Z</time>
      </trkpt>
      <trkpt lat="47.31328" lon="4.93531">
        <ele>421</ele>
        <time>2013-11-02T08:57:13.290Z</time>
      </trkpt>
      <trkpt lat="47.31322" lon="4.93523">
        <ele>420</ele>
        <time>2013-11-02T08:57:19.297Z</time>
      </trkpt>
      <trkpt lat="47.31317" lon="4.93519">
        <ele>420</ele>
        <time>2013-11-02T08:57:22.301Z</time>
      </trkpt>
      <trkpt lat="47.31309" lon="4.93514">
        <ele>421</ele>
        <time>2013-11-02T08:57:26.303Z</time>
      </trkpt>
      <trkpt lat="47.31303" lon="4.93511">
        <ele>421</ele>
        <time>2013-11-02T08:57:29.284Z</time>
      </trkpt>
      <trkpt lat="47.31296" lon="4.93509">
        <ele>421</ele>
        <time>2013-11-02T08:57:33.295Z</time>
      </trkpt>
      <trkpt lat="47.31291" lon="4.93508">
        <ele>421</ele>
        <time>2013-11-02T08:57:36.281Z</time>
      </trkpt>
      <trkpt lat="47.31282" lon="4.93506">
        <ele>421</ele>
        <time>2013-11-02T08:57:41.277Z</time>
      </trkpt>
      <trkpt lat="47.31279" lon="4.93505">
        <ele>421</ele>
        <time>2013-11-02T08:57:43.277Z</time>
      </trkpt>
      <trkpt lat="47.31273" lon="4.93502">
        <ele>421</ele>
        <time>2013-11-02T08:57:47.298Z</time>
      </trkpt>
      <trkpt lat="47.31269" lon="4.935">
        <ele>420</ele>
        <time>2013-11-02T08:57:50.310Z</time>
      </trkpt>
      <trkpt lat="47.31261" lon="4.93495">
        <ele>420</ele>
        <time>2013-11-02T08:57:55.293Z</time>
      </trkpt>
      <trkpt lat="47.31257" lon="4.93491">
        <ele>420</ele>
        <time>2013-11-02T08:57:58.282Z</time>
      </trkpt>
      <trkpt lat="47.31251" lon="4.93486">
        <ele>420</ele>
        <time>2013-11-02T08:58:03.271Z</time>
      </trkpt>
      <trkpt lat="47.31248" lon="4.93483">
        <ele>422</ele>
        <time>2013-11-02T08:58:05.290Z</time>
      </trkpt>
      <trkpt lat="47.31245" lon="4.93478">
        <ele>422</ele>
        <time>2013-11-02T08:58:08.303Z</time>
      </trkpt>
      <trkpt lat="47.31245" lon="4.9347">
        <ele>422</ele>
        <time>2013-11-02T08:58:11.273Z</time>
      </trkpt>
      <trkpt lat="47.31245" lon="4.93464">
        <ele>422</ele>
        <time>2013-11-02T08:58:13.296Z</time>
      </trkpt>
      <trkpt lat="47.31243" lon="4.93456">
        <ele>421</ele>
        <time>2013-11-02T08:58:16.297Z</time>
      </trkpt>
      <trkpt lat="47.31242" lon="4.93448">
        <ele>421</ele>
        <time>2013-11-02T08:58:18.296Z</time>
      </trkpt>
      <trkpt lat="47.31241" lon="4.93441">
        <ele>421</ele>
        <time>2013-11-02T08:58:20.308Z</time>
      </trkpt>
      <trkpt lat="47.31238" lon="4.93432">
        <ele>420</ele>
        <time>2013-11-02T08:58:23.290Z</time>
      </trkpt>
      <trkpt lat="47.31236" lon="4.93426">
        <ele>420</ele>
        <time>2013-11-02T08:58:25.292Z</time>
      </trkpt>
      <trkpt lat="47.31233" lon="4.93417">
        <ele>420</ele>
        <time>2013-11-02T08:58:28.284Z</time>
      </trkpt>
      <trkpt lat="47.3123" lon="4.93409">
        <ele>418</ele>
        <time>2013-11-02T08:58:31.283Z</time>
      </trkpt>
      <trkpt lat="47.31227" lon="4.93402">
        <ele>418</ele>
        <time>2013-11-02T08:58:34.271Z</time>
      </trkpt>
      <trkpt lat="47.31225" lon="4.93396">
        <ele>418</ele>
        <time>2013-11-02T08:58:37.271Z</time>
      </trkpt>
      <trkpt lat="47.31223" lon="4.93385">
        <ele>418</ele>
        <time>2013-11-02T08:58:41.274Z</time>
      </trkpt>
      <trkpt lat="47.31222" lon="4.9338">
        <ele>418</ele>
        <time>2013-11-02T08:58:43.277Z</time>
      </trkpt>
      <trkpt lat="47.3122" lon="4.9337">
        <ele>418</ele>
        <time>2013-11-02T08:58:47.303Z</time>
      </trkpt>
      <trkpt lat="47.31219" lon="4.93363">
        <ele>417</ele>
        <time>2013-11-02T08:58:50.290Z</time>
      </trkpt>
      <trkpt lat="47.31216" lon="4.93352">
        <ele>417</ele>
        <time>2013-11-02T08:58:55.333Z</time>
      </trkpt>
      <trkpt lat="47.31214" lon="4.93345">
        <ele>417</ele>
        <time>2013-11-02T08:58:58.303Z</time>
      </trkpt>
      <trkpt lat="47.31212" lon="4.93339">
        <ele>417</ele>
        <time>2013-11-02T08:59:01.296Z</time>
      </trkpt>
      <trkpt lat="47.31211" lon="4.93332">
        <ele>415</ele>
        <time>2013-11-02T08:59:04.283Z</time>
      </trkpt>
      <trkpt lat="47.31208" lon="4.93323">
        <ele>415</ele>
        <time>2013-11-02T08:59:09.281Z</time>
      </trkpt>
      <trkpt lat="47.31206" lon="4.93319">
        <ele>415</ele>
        <time>2013-11-02T08:59:11.284Z</time>
      </trkpt>
      <trkpt lat="47.31204" lon="4.93312">
        <ele>415</ele>
        <time>2013-11-02T08:59:14.296Z</time>
      </trkpt>
      <trkpt lat="47.31201" lon="4.93306">
        <ele>415</ele>
        <time>2013-11-02T08:59:17.276Z</time>
      </trkpt>
      <trkpt lat="47.31198" lon="4.93297">
        <ele>415</ele>
        <time>2013-11-02T08:59:21.283Z</time>
      </trkpt>
      <trkpt lat="47.31197" lon="4.93292">
        <ele>415</ele>
        <time>2013-11-02T08:59:23.287Z</time>
      </trkpt>
      <trkpt lat="47.31194" lon="4.9328">
        <ele>415</ele>
        <time>2013-11-02T08:59:32.294Z</time>
      </trkpt>
      <trkpt lat="47.31194" lon="4.93281">
        <ele>415</ele>
        <time>2013-11-02T08:59:35.289Z</time>
      </trkpt>
      <trkpt lat="47.31194" lon="4.93281">
        <ele>415</ele>
        <time>2013-11-02T08:59:38.297Z</time>
      </trkpt>
      <trkpt lat="47.31193" lon="4.93273">
        <ele>415</ele>
        <time>2013-11-02T08:59:41.270Z</time>
      </trkpt>
      <trkpt lat="47.31193" lon="4.93274">
        <ele>415</ele>
        <time>2013-11-02T08:59:43.285Z</time>
      </trkpt>
      <trkpt lat="47.31193" lon="4.93274">
        <ele>415</ele>
        <time>2013-11-02T08:59:45.285Z</time>
      </trkpt>
      <trkpt lat="47.31193" lon="4.93274">
        <ele>415</ele>
        <time>2013-11-02T09:00:07.278Z</time>
      </trkpt>
      <trkpt lat="47.31194" lon="4.93273">
        <ele>415</ele>
        <time>2013-11-02T09:00:10.287Z</time>
      </trkpt>
      <trkpt lat="47.31199" lon="4.93266">
        <ele>414</ele>
        <time>2013-11-02T09:00:15.292Z</time>
      </trkpt>
      <trkpt lat="47.31203" lon="4.93263">
        <ele>414</ele>
        <time>2013-11-02T09:00:18.308Z</time>
      </trkpt>
      <trkpt lat="47.31209" lon="4.93256">
        <ele>414</ele>
        <time>2013-11-02T09:00:25.299Z</time>
      </trkpt>
      <trkpt lat="47.31212" lon="4.93253">
        <ele>413</ele>
        <time>2013-11-02T09:00:28.266Z</time>
      </trkpt>
      <trkpt lat="47.31219" lon="4.9325">
        <ele>411</ele>
        <time>2013-11-02T09:00:35.295Z</time>
      </trkpt>
      <trkpt lat="47.31222" lon="4.93248">
        <ele>411</ele>
        <time>2013-11-02T09:00:38.284Z</time>
      </trkpt>
      <trkpt lat="47.31229" lon="4.93246">
        <ele>410</ele>
        <time>2013-11-02T09:00:44.304Z</time>
      </trkpt>
      <trkpt lat="47.31233" lon="4.93244">
        <ele>410</ele>
        <time>2013-11-02T09:00:47.309Z</time>
      </trkpt>
      <trkpt lat="47.31239" lon="4.93242">
        <ele>409</ele>
        <time>2013-11-02T09:00:52.306Z</time>
      </trkpt>
      <trkpt lat="47.31242" lon="4.93241">
        <ele>409</ele>
        <time>2013-11-02T09:00:54.311Z</time>
      </trkpt>
      <trkpt lat="47.31251" lon="4.93239">
        <ele>405</ele>
        <time>2013-11-02T09:01:00.276Z</time>
      </trkpt>
      <trkpt lat="47.31254" lon="4.93238">
        <ele>405</ele>
        <time>2013-11-02T09:01:02.292Z</time>
      </trkpt>
      <trkpt lat="47.31261" lon="4.93236">
        <ele>404</ele>
        <time>2013-11-02T09:01:08.287Z</time>
      </trkpt>
      <trkpt lat="47.31265" lon="4.93236">
        <ele>403</ele>
        <time>2013-11-02T09:01:11.280Z</time>
      </trkpt>
      <trkpt lat="47.31272" lon="4.93233">
        <ele>402</ele>
        <time>2013-11-02T09:01:17.290Z</time>
      </trkpt>
      <trkpt lat="47.31274" lon="4.93232">
        <ele>402</ele>
        <time>2013-11-02T09:01:19.292Z</time>
      </trkpt>
      <trkpt lat="47.31282" lon="4.93229">
        <ele>401</ele>
        <time>2013-11-02T09:01:25.292Z</time>
      </trkpt>
      <trkpt lat="47.31285" lon="4.93227">
        <ele>400</ele>
        <time>2013-11-02T09:01:28.288Z</time>
      </trkpt>
      <trkpt lat="47.31293" lon="4.93222">
        <ele>400</ele>
        <time>2013-11-02T09:01:34.274Z</time>
      </trkpt>
      <trkpt lat="47.31295" lon="4.93219">
        <ele>399</ele>
        <time>2013-11-02T09:01:36.290Z</time>
      </trkpt>
      <trkpt lat="47.31298" lon="4.93215">
        <ele>399</ele>
        <time>2013-11-02T09:01:39.287Z</time>
      </trkpt>
      <trkpt lat="47.31302" lon="4.93212">
        <ele>399</ele>
        <time>2013-11-02T09:01:42.277Z</time>
      </trkpt>
      <trkpt lat="47.31307" lon="4.93206">
        <ele>398</ele>
        <time>2013-11-02T09:01:46.327Z</time>
      </trkpt>
      <trkpt lat="47.3131" lon="4.93201">
        <ele>398</ele>
        <time>2013-11-02T09:01:49.278Z</time>
      </trkpt>
      <trkpt lat="47.31312" lon="4.93193">
        <ele>398</ele>
        <time>2013-11-02T09:01:53.309Z</time>
      </trkpt>
      <trkpt lat="47.31313" lon="4.93188">
        <ele>398</ele>
        <time>2013-11-02T09:01:56.307Z</time>
      </trkpt>
      <trkpt lat="47.31313" lon="4.93175">
        <ele>397</ele>
        <time>2013-11-02T09:02:03.286Z</time>
      </trkpt>
      <trkpt lat="47.31313" lon="4.93171">
        <ele>397</ele>
        <time>2013-11-02T09:02:06.275Z</time>
      </trkpt>
      <trkpt lat="47.31311" lon="4.93162">
        <ele>397</ele>
        <time>2013-11-02T09:02:13.287Z</time>
      </trkpt>
      <trkpt lat="47.31311" lon="4.93162">
        <ele>397</ele>
        <time>2013-11-02T09:02:16.286Z</time>
      </trkpt>
      <trkpt lat="47.31311" lon="4.93162">
        <ele>397</ele>
        <time>2013-11-02T09:02:25.292Z</time>
      </trkpt>
      <trkpt lat="47.3131" lon="4.9316">
        <ele>397</ele>
        <time>2013-11-02T09:02:28.290Z</time>
      </trkpt>
      <trkpt lat="47.31306" lon="4.93149">
        <ele>397</ele>
        <time>2013-11-02T09:02:35.279Z</time>
      </trkpt>
      <trkpt lat="47.31306" lon="4.93144">
        <ele>397</ele>
        <time>2013-11-02T09:02:37.280Z</time>
      </trkpt>
      <trkpt lat="47.31307" lon="4.93133">
        <ele>397</ele>
        <time>2013-11-02T09:02:42.280Z</time>
      </trkpt>
      <trkpt lat="47.31306" lon="4.93128">
        <ele>397</ele>
        <time>2013-11-02T09:02:44.299Z</time>
      </trkpt>
      <trkpt lat="47.31307" lon="4.93118">
        <ele>397</ele>
        <time>2013-11-02T09:02:55.294Z</time>
      </trkpt>
      <trkpt lat="47.31307" lon="4.93113">
        <ele>397</ele>
        <time>2013-11-02T09:02:57.294Z</time>
      </trkpt>
      <trkpt lat="47.31309" lon="4.93101">
        <ele>396</ele>
        <time>2013-11-02T09:03:05.278Z</time>
      </trkpt>
      <trkpt lat="47.31309" lon="4.93098">
        <ele>396</ele>
        <time>2013-11-02T09:03:07.280Z</time>
      </trkpt>
      <trkpt lat="47.31307" lon="4.93087">
        <ele>396</ele>
        <time>2013-11-02T09:03:17.273Z</time>
      </trkpt>
      <trkpt lat="47.31307" lon="4.93084">
        <ele>396</ele>
        <time>2013-11-02T09:03:19.283Z</time>
      </trkpt>
      <trkpt lat="47.31307" lon="4.93074">
        <ele>392</ele>
        <time>2013-11-02T09:03:26.282Z</time>
      </trkpt>
      <trkpt lat="47.31308" lon="4.9307">
        <ele>392</ele>
        <time>2013-11-02T09:03:29.285Z</time>
      </trkpt>
      <trkpt lat="47.31302" lon="4.9306">
        <ele>392</ele>
        <time>2013-11-02T09:03:38.280Z</time>
      </trkpt>
      <trkpt lat="47.31299" lon="4.93059">
        <ele>392</ele>
        <time>2013-11-02T09:03:41.251Z</time>
      </trkpt>
      <trkpt lat="47.31291" lon="4.93054">
        <ele>392</ele>
        <time>2013-11-02T09:03:51.293Z</time>
      </trkpt>
      <trkpt lat="47.31289" lon="4.93053">
        <ele>392</ele>
        <time>2013-11-02T09:03:53.293Z</time>
      </trkpt>
      <trkpt lat="47.31281" lon="4.93049">
        <ele>392</ele>
        <time>2013-11-02T09:03:59.275Z</time>
      </trkpt>
      <trkpt lat="47.31277" lon="4.93048">
        <ele>392</ele>
        <time>2013-11-02T09:04:02.272Z</time>
      </trkpt>
      <trkpt lat="47.3127" lon="4.93042">
        <ele>392</ele>
        <time>2013-11-02T09:04:11.275Z</time>
      </trkpt>
      <trkpt lat="47.31269" lon="4.9304">
        <ele>392</ele>
        <time>2013-11-02T09:04:14.272Z</time>
      </trkpt>
      <trkpt lat="47.31261" lon="4.93036">
        <ele>391</ele>
        <time>2013-11-02T09:04:23.274Z</time>
      </trkpt>
      <trkpt lat="47.3126" lon="4.93035">
        <ele>391</ele>
        <time>2013-11-02T09:04:25.279Z</time>
      </trkpt>
      <trkpt lat="47.31257" lon="4.93024">
        <ele>390</ele>
        <time>2013-11-02T09:04:34.260Z</time>
      </trkpt>
      <trkpt lat="47.31256" lon="4.93022">
        <ele>390</ele>
        <time>2013-11-02T09:04:36.264Z</time>
      </trkpt>
      <trkpt lat="47.31256" lon="4.93011">
        <ele>389</ele>
        <time>2013-11-02T09:04:43.267Z</time>
      </trkpt>
      <trkpt lat="47.31257" lon="4.93006">
        <ele>389</ele>
        <time>2013-11-02T09:04:46.251Z</time>
      </trkpt>
      <trkpt lat="47.31255" lon="4.92995">
        <ele>386</ele>
        <time>2013-11-02T09:04:56.293Z</time>
      </trkpt>
      <trkpt lat="47.31256" lon="4.92992">
        <ele>386</ele>
        <time>2013-11-02T09:04:59.276Z</time>
      </trkpt>
      <trkpt lat="47.31258" lon="4.9298">
        <ele>384</ele>
        <time>2013-11-02T09:05:07.269Z</time>
      </trkpt>
      <trkpt lat="47.31259" lon="4.92976">
        <ele>384</ele>
        <time>2013-11-02T09:05:10.257Z</time>
      </trkpt>
      <trkpt lat="47.31263" lon="4.92964">
        <ele>383</ele>
        <time>2013-11-02T09:05:22.288Z</time>
      </trkpt>
      <trkpt lat="47.31262" lon="4.92961">
        <ele>382</ele>
        <time>2013-11-02T09:05:23.278Z</time>
      </trkpt>
      <trkpt lat="47.31263" lon="4.92952">
        <ele>382</ele>
        <time>2013-11-02T09:05:26.293Z</time>
      </trkpt>
      <trkpt lat="47.31266" lon="4.92943">
        <ele>381</ele>
        <time>2013-11-02T09:05:29.276Z</time>
      </trkpt>
      <trkpt lat="47.31267" lon="4.92935">
        <ele>380</ele>
        <time>2013-11-02T09:05:32.264Z</time>
      </trkpt>
      <trkpt lat="47.3127" lon="4.92926">
        <ele>380</ele>
        <time>2013-11-02T09:05:35.252Z</time>
      </trkpt>
      <trkpt lat="47.31275" lon="4.92918">
        <ele>380</ele>
        <time>2013-11-02T09:05:39.263Z</time>
      </trkpt>
      <trkpt lat="47.31278" lon="4.92912">
        <ele>373</ele>
        <time>2013-11-02T09:05:41.265Z</time>
      </trkpt>
      <trkpt lat="47.31281" lon="4.92904">
        <ele>373</ele>
        <time>2013-11-02T09:05:44.278Z</time>
      </trkpt>
      <trkpt lat="47.31286" lon="4.92896">
        <ele>372</ele>
        <time>2013-11-02T09:05:47.276Z</time>
      </trkpt>
      <trkpt lat="47.31291" lon="4.9289">
        <ele>372</ele>
        <time>2013-11-02T09:05:49.294Z</time>
      </trkpt>
      <trkpt lat="47.313" lon="4.9288">
        <ele>371</ele>
        <time>2013-11-02T09:05:52.275Z</time>
      </trkpt>
      <trkpt lat="47.31306" lon="4.92873">
        <ele>370</ele>
        <time>2013-11-02T09:05:55.270Z</time>
      </trkpt>
      <trkpt lat="47.31309" lon="4.92868">
        <ele>369</ele>
        <time>2013-11-02T09:05:57.284Z</time>
      </trkpt>
      <trkpt lat="47.31313" lon="4.92865">
        <ele>369</ele>
        <time>2013-11-02T09:05:59.288Z</time>
      </trkpt>
      <trkpt lat="47.31318" lon="4.9286">
        <ele>368</ele>
        <time>2013-11-02T09:06:02.276Z</time>
      </trkpt>
      <trkpt lat="47.31321" lon="4.92853">
        <ele>366</ele>
        <time>2013-11-02T09:06:05.258Z</time>
      </trkpt>
      <trkpt lat="47.31323" lon="4.92848">
        <ele>365</ele>
        <time>2013-11-02T09:06:07.262Z</time>
      </trkpt>
      <trkpt lat="47.31326" lon="4.92838">
        <ele>363</ele>
        <time>2013-11-02T09:06:11.264Z</time>
      </trkpt>
      <trkpt lat="47.31328" lon="4.92832">
        <ele>360</ele>
        <time>2013-11-02T09:06:14.273Z</time>
      </trkpt>
      <trkpt lat="47.31331" lon="4.92828">
        <ele>360</ele>
        <time>2013-11-02T09:06:16.285Z</time>
      </trkpt>
      <trkpt lat="47.31335" lon="4.92822">
        <ele>357</ele>
        <time>2013-11-02T09:06:19.273Z</time>
      </trkpt>
      <trkpt lat="47.31339" lon="4.92813">
        <ele>356</ele>
        <time>2013-11-02T09:06:23.271Z</time>
      </trkpt>
      <trkpt lat="47.31343" lon="4.92806">
        <ele>355</ele>
        <time>2013-11-02T09:06:26.296Z</time>
      </trkpt>
      <trkpt lat="47.31348" lon="4.92801">
        <ele>355</ele>
        <time>2013-11-02T09:06:29.276Z</time>
      </trkpt>
      <trkpt lat="47.31353" lon="4.92796">
        <ele>355</ele>
        <time>2013-11-02T09:06:32.293Z</time>
      </trkpt>
      <trkpt lat="47.31359" lon="4.92789">
        <ele>354</ele>
        <time>2013-11-02T09:06:37.273Z</time>
      </trkpt>
      <trkpt lat="47.31361" lon="4.92783">
        <ele>354</ele>
        <time>2013-11-02T09:06:40.273Z</time>
      </trkpt>
      <trkpt lat="47.31364" lon="4.92775">
        <ele>354</ele>
        <time>2013-11-02T09:06:45.270Z</time>
      </trkpt>
      <trkpt lat="47.31367" lon="4.92772">
        <ele>353</ele>
        <time>2013-11-02T09:06:47.276Z</time>
      </trkpt>
      <trkpt lat="47.31373" lon="4.92768">
        <ele>353</ele>
        <time>2013-11-02T09:06:54.271Z</time>
      </trkpt>
      <trkpt lat="47.31376" lon="4.92767">
        <ele>353</ele>
        <time>2013-11-02T09:06:56.287Z</time>
      </trkpt>
      <trkpt lat="47.31382" lon="4.92758">
        <ele>352</ele>
        <time>2013-11-02T09:07:03.269Z</time>
      </trkpt>
      <trkpt lat="47.31383" lon="4.92755">
        <ele>352</ele>
        <time>2013-11-02T09:07:06.272Z</time>
      </trkpt>
      <trkpt lat="47.31383" lon="4.92753">
        <ele>352</ele>
        <time>2013-11-02T09:07:11.261Z</time>
      </trkpt>
      <trkpt lat="47.31383" lon="4.92753">
        <ele>352</ele>
        <time>2013-11-02T09:07:13.264Z</time>
      </trkpt>
      <trkpt lat="47.31384" lon="4.92747">
        <ele>351</ele>
        <time>2013-11-02T09:07:15.363Z</time>
      </trkpt>
      <trkpt lat="47.3139" lon="4.92738">
        <ele>350</ele>
        <time>2013-11-02T09:07:20.333Z</time>
      </trkpt>
      <trkpt lat="47.31392" lon="4.92735">
        <ele>350</ele>
        <time>2013-11-02T09:07:23.305Z</time>
      </trkpt>
      <trkpt lat="47.31398" lon="4.92726">
        <ele>350</ele>
        <time>2013-11-02T09:07:33.284Z</time>
      </trkpt>
      <trkpt lat="47.31398" lon="4.92725">
        <ele>350</ele>
        <time>2013-11-02T09:07:36.285Z</time>
      </trkpt>
      <trkpt lat="47.31398" lon="4.92726">
        <ele>350</ele>
        <time>2013-11-02T09:07:38.295Z</time>
      </trkpt>
      <trkpt lat="47.31398" lon="4.92726">
        <ele>350</ele>
        <time>2013-11-02T09:07:41.276Z</time>
      </trkpt>
      <trkpt lat="47.31403" lon="4.9272">
        <ele>350</ele>
        <time>2013-11-02T09:07:44.293Z</time>
      </trkpt>
      <trkpt lat="47.31411" lon="4.92714">
        <ele>350</ele>
        <time>2013-11-02T09:07:56.321Z</time>
      </trkpt>
      <trkpt lat="47.31413" lon="4.92714">
        <ele>350</ele>
        <time>2013-11-02T09:07:59.298Z</time>
      </trkpt>
      <trkpt lat="47.31421" lon="4.92717">
        <ele>342</ele>
        <time>2013-11-02T09:08:07.271Z</time>
      </trkpt>
      <trkpt lat="47.31424" lon="4.92719">
        <ele>342</ele>
        <time>2013-11-02T09:08:10.269Z</time>
      </trkpt>
      <trkpt lat="47.31431" lon="4.9272">
        <ele>341</ele>
        <time>2013-11-02T09:08:15.327Z</time>
      </trkpt>
      <trkpt lat="47.31434" lon="4.9272">
        <ele>341</ele>
        <time>2013-11-02T09:08:18.297Z</time>
      </trkpt>
      <trkpt lat="47.31441" lon="4.92715">
        <ele>341</ele>
        <time>2013-11-02T09:08:28.306Z</time>
      </trkpt>
      <trkpt lat="47.31443" lon="4.92714">
        <ele>341</ele>
        <time>2013-11-02T09:08:31.269Z</time>
      </trkpt>
      <trkpt lat="47.31449" lon="4.92718">
        <ele>340</ele>
        <time>2013-11-02T09:08:37.274Z</time>
      </trkpt>
      <trkpt lat="47.31455" lon="4.92719">
        <ele>340</ele>
        <time>2013-11-02T09:08:40.268Z</time>
      </trkpt>
      <trkpt lat="47.31459" lon="4.92723">
        <ele>339</ele>
        <time>2013-11-02T09:08:48.310Z</time>
      </trkpt>
      <trkpt lat="47.31463" lon="4.92726">
        <ele>339</ele>
        <time>2013-11-02T09:08:50.338Z</time>
      </trkpt>
      <trkpt lat="47.31469" lon="4.92731">
        <ele>338</ele>
        <time>2013-11-02T09:08:55.334Z</time>
      </trkpt>
      <trkpt lat="47.31473" lon="4.92734">
        <ele>337</ele>
        <time>2013-11-02T09:08:58.300Z</time>
      </trkpt>
      <trkpt lat="47.31479" lon="4.92739">
        <ele>337</ele>
        <time>2013-11-02T09:09:03.262Z</time>
      </trkpt>
      <trkpt lat="47.31481" lon="4.9274">
        <ele>336</ele>
        <time>2013-11-02T09:09:05.270Z</time>
      </trkpt>
      <trkpt lat="47.31486" lon="4.9274">
        <ele>335</ele>
        <time>2013-11-02T09:09:12.277Z</time>
      </trkpt>
      <trkpt lat="47.31491" lon="4.92744">
        <ele>335</ele>
        <time>2013-11-02T09:09:14.280Z</time>
      </trkpt>
      <trkpt lat="47.31494" lon="4.92752">
        <ele>334</ele>
        <time>2013-11-02T09:09:18.314Z</time>
      </trkpt>
      <trkpt lat="47.31495" lon="4.92758">
        <ele>335</ele>
        <time>2013-11-02T09:09:20.319Z</time>
      </trkpt>
      <trkpt lat="47.31487" lon="4.92757">
        <ele>337</ele>
        <time>2013-11-02T09:09:38.285Z</time>
      </trkpt>
      <trkpt lat="47.31486" lon="4.92756">
        <ele>337</ele>
        <time>2013-11-02T09:09:41.266Z</time>
      </trkpt>
      <trkpt lat="47.31482" lon="4.92744">
        <ele>336</ele>
        <time>2013-11-02T09:09:56.312Z</time>
      </trkpt>
      <trkpt lat="47.31483" lon="4.92741">
        <ele>336</ele>
        <time>2013-11-02T09:09:59.301Z</time>
      </trkpt>
      <trkpt lat="47.31478" lon="4.92734">
        <ele>337</ele>
        <time>2013-11-02T09:10:13.273Z</time>
      </trkpt>
      <trkpt lat="47.31478" lon="4.92734">
        <ele>337</ele>
        <time>2013-11-02T09:10:15.328Z</time>
      </trkpt>
      <trkpt lat="47.31478" lon="4.92734">
        <ele>337</ele>
        <time>2013-11-02T09:10:18.295Z</time>
      </trkpt>
      <trkpt lat="47.31479" lon="4.92731">
        <ele>337</ele>
        <time>2013-11-02T09:10:20.307Z</time>
      </trkpt>
      <trkpt lat="47.31482" lon="4.92723">
        <ele>337</ele>
        <time>2013-11-02T09:10:25.350Z</time>
      </trkpt>
      <trkpt lat="47.31482" lon="4.92724">
        <ele>337</ele>
        <time>2013-11-02T09:10:28.312Z</time>
      </trkpt>
      <trkpt lat="47.31482" lon="4.92725">
        <ele>337</ele>
        <time>2013-11-02T09:10:31.270Z</time>
      </trkpt>
      <trkpt lat="47.31484" lon="4.92726">
        <ele>337</ele>
        <time>2013-11-02T09:10:34.269Z</time>
      </trkpt>
      <trkpt lat="47.31488" lon="4.92729">
        <ele>336</ele>
        <time>2013-11-02T09:10:38.283Z</time>
      </trkpt>
      <trkpt lat="47.31488" lon="4.92728">
        <ele>336</ele>
        <time>2013-11-02T09:10:41.249Z</time>
      </trkpt>
      <trkpt lat="47.31487" lon="4.92728">
        <ele>336</ele>
        <time>2013-11-02T09:10:45.368Z</time>
      </trkpt>
      <trkpt lat="47.31491" lon="4.92731">
        <ele>336</ele>
        <time>2013-11-02T09:10:48.299Z</time>
      </trkpt>
      <trkpt lat="47.31493" lon="4.92731">
        <ele>336</ele>
        <time>2013-11-02T09:10:52.304Z</time>
      </trkpt>
      <trkpt lat="47.31493" lon="4.92731">
        <ele>336</ele>
        <time>2013-11-02T09:10:55.332Z</time>
      </trkpt>
      <trkpt lat="47.31495" lon="4.9273">
        <ele>336</ele>
        <time>2013-11-02T09:10:58.306Z</time>
      </trkpt>
      <trkpt lat="47.315" lon="4.9273">
        <ele>335</ele>
        <time>2013-11-02T09:11:03.273Z</time>
      </trkpt>
      <trkpt lat="47.315" lon="4.92731">
        <ele>335</ele>
        <time>2013-11-02T09:11:05.273Z</time>
      </trkpt>
      <trkpt lat="47.315" lon="4.9273">
        <ele>335</ele>
        <time>2013-11-02T09:11:08.281Z</time>
      </trkpt>
      <trkpt lat="47.31503" lon="4.92732">
        <ele>327</ele>
        <time>2013-11-02T09:11:10.283Z</time>
      </trkpt>
      <trkpt lat="47.31507" lon="4.92735">
        <ele>327</ele>
        <time>2013-11-02T09:11:15.288Z</time>
      </trkpt>
      <trkpt lat="47.31506" lon="4.92735">
        <ele>327</ele>
        <time>2013-11-02T09:11:17.297Z</time>
      </trkpt>
      <trkpt lat="47.31506" lon="4.92734">
        <ele>327</ele>
        <time>2013-11-02T09:11:19.311Z</time>
      </trkpt>
      <trkpt lat="47.31509" lon="4.92734">
        <ele>327</ele>
        <time>2013-11-02T09:11:21.312Z</time>
      </trkpt>
      <trkpt lat="47.31513" lon="4.92732">
        <ele>326</ele>
        <time>2013-11-02T09:11:27.296Z</time>
      </trkpt>
      <trkpt lat="47.31512" lon="4.92732">
        <ele>326</ele>
        <time>2013-11-02T09:11:29.296Z</time>
      </trkpt>
      <trkpt lat="47.31517" lon="4.92732">
        <ele>326</ele>
        <time>2013-11-02T09:11:32.285Z</time>
      </trkpt>
      <trkpt lat="47.31519" lon="4.92732">
        <ele>326</ele>
        <time>2013-11-02T09:11:35.270Z</time>
      </trkpt>
      <trkpt lat="47.31518" lon="4.92732">
        <ele>326</ele>
        <time>2013-11-02T09:11:38.238Z</time>
      </trkpt>
      <trkpt lat="47.31518" lon="4.92732">
        <ele>326</ele>
        <time>2013-11-02T09:11:56.342Z</time>
      </trkpt>
      <trkpt lat="47.31521" lon="4.92736">
        <ele>325</ele>
        <time>2013-11-02T09:11:59.305Z</time>
      </trkpt>
      <trkpt lat="47.31523" lon="4.92739">
        <ele>325</ele>
        <time>2013-11-02T09:12:04.275Z</time>
      </trkpt>
      <trkpt lat="47.31523" lon="4.92738">
        <ele>325</ele>
        <time>2013-11-02T09:12:06.277Z</time>
      </trkpt>
      <trkpt lat="47.31522" lon="4.92738">
        <ele>325</ele>
        <time>2013-11-02T09:12:11.266Z</time>
      </trkpt>
      <trkpt lat="47.31524" lon="4.9274">
        <ele>325</ele>
        <time>2013-11-02T09:12:14.279Z</time>
      </trkpt>
      <trkpt lat="47.31531" lon="4.92746">
        <ele>324</ele>
        <time>2013-11-02T09:12:19.320Z</time>
      </trkpt>
      <trkpt lat="47.31533" lon="4.92745">
        <ele>324</ele>
        <time>2013-11-02T09:12:22.307Z</time>
      </trkpt>
      <trkpt lat="47.31539" lon="4.92748">
        <ele>323</ele>
        <time>2013-11-02T09:12:25.357Z</time>
      </trkpt>
      <trkpt lat="47.31541" lon="4.9275">
        <ele>326</ele>
        <time>2013-11-02T09:12:28.297Z</time>
      </trkpt>
      <trkpt lat="47.3154" lon="4.9275">
        <ele>326</ele>
        <time>2013-11-02T09:12:31.285Z</time>
      </trkpt>
      <trkpt lat="47.31545" lon="4.92753">
        <ele>325</ele>
        <time>2013-11-02T09:12:34.258Z</time>
      </trkpt>
      <trkpt lat="47.31547" lon="4.92754">
        <ele>325</ele>
        <time>2013-11-02T09:12:37.266Z</time>
      </trkpt>
      <trkpt lat="47.31547" lon="4.92753">
        <ele>325</ele>
        <time>2013-11-02T09:12:40.268Z</time>
      </trkpt>
      <trkpt lat="47.31547" lon="4.92753">
        <ele>325</ele>
        <time>2013-11-02T09:12:42.295Z</time>
      </trkpt>
      <trkpt lat="47.31551" lon="4.92752">
        <ele>324</ele>
        <time>2013-11-02T09:12:45.295Z</time>
      </trkpt>
      <trkpt lat="47.31551" lon="4.92751">
        <ele>324</ele>
        <time>2013-11-02T09:12:47.299Z</time>
      </trkpt>
      <trkpt lat="47.31551" lon="4.92751">
        <ele>324</ele>
        <time>2013-11-02T09:12:49.301Z</time>
      </trkpt>
      <trkpt lat="47.3155" lon="4.92751">
        <ele>324</ele>
        <time>2013-11-02T09:12:58.270Z</time>
      </trkpt>
      <trkpt lat="47.31551" lon="4.92745">
        <ele>321</ele>
        <time>2013-11-02T09:13:01.259Z</time>
      </trkpt>
      <trkpt lat="47.31551" lon="4.92745">
        <ele>321</ele>
        <time>2013-11-02T09:13:03.279Z</time>
      </trkpt>
      <trkpt lat="47.31551" lon="4.92745">
        <ele>321</ele>
        <time>2013-11-02T09:13:06.282Z</time>
      </trkpt>
      <trkpt lat="47.31553" lon="4.92746">
        <ele>321</ele>
        <time>2013-11-02T09:13:09.258Z</time>
      </trkpt>
      <trkpt lat="47.31559" lon="4.92747">
        <ele>319</ele>
        <time>2013-11-02T09:13:16.294Z</time>
      </trkpt>
      <trkpt lat="47.31559" lon="4.92747">
        <ele>320</ele>
        <time>2013-11-02T09:13:18.304Z</time>
      </trkpt>
      <trkpt lat="47.31559" lon="4.92747">
        <ele>320</ele>
        <time>2013-11-02T09:13:32.267Z</time>
      </trkpt>
      <trkpt lat="47.31564" lon="4.92745">
        <ele>319</ele>
        <time>2013-11-02T09:13:35.270Z</time>
      </trkpt>
      <trkpt lat="47.31564" lon="4.92744">
        <ele>319</ele>
        <time>2013-11-02T09:13:38.258Z</time>
      </trkpt>
      <trkpt lat="47.31564" lon="4.92744">
        <ele>319</ele>
        <time>2013-11-02T09:13:40.261Z</time>
      </trkpt>
      <trkpt lat="47.31564" lon="4.92745">
        <ele>319</ele>
        <time>2013-11-02T09:13:44.275Z</time>
      </trkpt>
      <trkpt lat="47.31565" lon="4.92743">
        <ele>319</ele>
        <time>2013-11-02T09:13:46.300Z</time>
      </trkpt>
      <trkpt lat="47.31569" lon="4.92738">
        <ele>318</ele>
        <time>2013-11-02T09:13:51.350Z</time>
      </trkpt>
      <trkpt lat="47.31568" lon="4.92739">
        <ele>318</ele>
        <time>2013-11-02T09:13:54.304Z</time>
      </trkpt>
      <trkpt lat="47.31568" lon="4.92739">
        <ele>318</ele>
        <time>2013-11-02T09:14:01.254Z</time>
      </trkpt>
      <trkpt lat="47.31568" lon="4.92741">
        <ele>318</ele>
        <time>2013-11-02T09:14:03.265Z</time>
      </trkpt>
      <trkpt lat="47.31575" lon="4.92748">
        <ele>316</ele>
        <time>2013-11-02T09:14:11.259Z</time>
      </trkpt>
      <trkpt lat="47.31578" lon="4.92747">
        <ele>316</ele>
        <time>2013-11-02T09:14:13.262Z</time>
      </trkpt>
      <trkpt lat="47.31578" lon="4.92748">
        <ele>316</ele>
        <time>2013-11-02T09:14:15.358Z</time>
      </trkpt>
      <trkpt lat="47.31578" lon="4.92748">
        <ele>316</ele>
        <time>2013-11-02T09:14:18.297Z</time>
      </trkpt>
      <trkpt lat="47.31577" lon="4.92748">
        <ele>316</ele>
        <time>2013-11-02T09:14:23.305Z</time>
      </trkpt>
      <trkpt lat="47.31579" lon="4.92743">
        <ele>316</ele>
        <time>2013-11-02T09:14:25.344Z</time>
      </trkpt>
      <trkpt lat="47.3158" lon="4.92739">
        <ele>317</ele>
        <time>2013-11-02T09:14:28.299Z</time>
      </trkpt>
      <trkpt lat="47.3158" lon="4.9274">
        <ele>317</ele>
        <time>2013-11-02T09:14:31.270Z</time>
      </trkpt>
      <trkpt lat="47.31579" lon="4.9274">
        <ele>317</ele>
        <time>2013-11-02T09:14:38.277Z</time>
      </trkpt>
      <trkpt lat="47.31583" lon="4.92743">
        <ele>316</ele>
        <time>2013-11-02T09:14:41.268Z</time>
      </trkpt>
      <trkpt lat="47.31589" lon="4.9275">
        <ele>312</ele>
        <time>2013-11-02T09:14:46.295Z</time>
      </trkpt>
      <trkpt lat="47.31588" lon="4.92749">
        <ele>313</ele>
        <time>2013-11-02T09:14:49.309Z</time>
      </trkpt>
      <trkpt lat="47.31589" lon="4.92744">
        <ele>312</ele>
        <time>2013-11-02T09:14:51.310Z</time>
      </trkpt>
      <trkpt lat="47.31591" lon="4.92741">
        <ele>311</ele>
        <time>2013-11-02T09:14:55.366Z</time>
      </trkpt>
      <trkpt lat="47.31591" lon="4.92742">
        <ele>311</ele>
        <time>2013-11-02T09:14:58.302Z</time>
      </trkpt>
      <trkpt lat="47.3159" lon="4.92742">
        <ele>311</ele>
        <time>2013-11-02T09:15:28.255Z</time>
      </trkpt>
      <trkpt lat="47.31594" lon="4.92739">
        <ele>310</ele>
        <time>2013-11-02T09:15:30.264Z</time>
      </trkpt>
      <trkpt lat="47.316" lon="4.92732">
        <ele>309</ele>
        <time>2013-11-02T09:15:38.290Z</time>
      </trkpt>
      <trkpt lat="47.31601" lon="4.92728">
        <ele>309</ele>
        <time>2013-11-02T09:15:41.283Z</time>
      </trkpt>
      <trkpt lat="47.31608" lon="4.92721">
        <ele>308</ele>
        <time>2013-11-02T09:15:48.307Z</time>
      </trkpt>
      <trkpt lat="47.31608" lon="4.92717">
        <ele>308</ele>
        <time>2013-11-02T09:15:50.334Z</time>
      </trkpt>
      <trkpt lat="47.31609" lon="4.92709">
        <ele>307</ele>
        <time>2013-11-02T09:16:01.264Z</time>
      </trkpt>
      <trkpt lat="47.31609" lon="4.92709">
        <ele>307</ele>
        <time>2013-11-02T09:16:03.267Z</time>
      </trkpt>
      <trkpt lat="47.31609" lon="4.92709">
        <ele>307</ele>
        <time>2013-11-02T09:16:05.267Z</time>
      </trkpt>
      <trkpt lat="47.31613" lon="4.92703">
        <ele>307</ele>
        <time>2013-11-02T09:16:08.280Z</time>
      </trkpt>
      <trkpt lat="47.31614" lon="4.927">
        <ele>307</ele>
        <time>2013-11-02T09:16:13.260Z</time>
      </trkpt>
      <trkpt lat="47.31614" lon="4.927">
        <ele>307</ele>
        <time>2013-11-02T09:16:15.351Z</time>
      </trkpt>
      <trkpt lat="47.31613" lon="4.92699">
        <ele>307</ele>
        <time>2013-11-02T09:16:18.309Z</time>
      </trkpt>
      <trkpt lat="47.3161" lon="4.9269">
        <ele>307</ele>
        <time>2013-11-02T09:16:37.264Z</time>
      </trkpt>
      <trkpt lat="47.3161" lon="4.92691">
        <ele>307</ele>
        <time>2013-11-02T09:16:40.259Z</time>
      </trkpt>
      <trkpt lat="47.3161" lon="4.92691">
        <ele>307</ele>
        <time>2013-11-02T09:16:44.268Z</time>
      </trkpt>
      <trkpt lat="47.31615" lon="4.92691">
        <ele>307</ele>
        <time>2013-11-02T09:16:46.288Z</time>
      </trkpt>
      <trkpt lat="47.31621" lon="4.9269">
        <ele>307</ele>
        <time>2013-11-02T09:16:49.283Z</time>
      </trkpt>
      <trkpt lat="47.31627" lon="4.9269">
        <ele>306</ele>
        <time>2013-11-02T09:16:52.298Z</time>
      </trkpt>
      <trkpt lat="47.31635" lon="4.92686">
        <ele>306</ele>
        <time>2013-11-02T09:16:57.270Z</time>
      </trkpt>
      <trkpt lat="47.31637" lon="4.92685">
        <ele>306</ele>
        <time>2013-11-02T09:16:59.281Z</time>
      </trkpt>
      <trkpt lat="47.31642" lon="4.9268">
        <ele>305</ele>
        <time>2013-11-02T09:17:08.278Z</time>
      </trkpt>
      <trkpt lat="47.31648" lon="4.92678">
        <ele>305</ele>
        <time>2013-11-02T09:17:11.265Z</time>
      </trkpt>
      <trkpt lat="47.31654" lon="4.92672">
        <ele>304</ele>
        <time>2013-11-02T09:17:15.270Z</time>
      </trkpt>
      <trkpt lat="47.31656" lon="4.9267">
        <ele>304</ele>
        <time>2013-11-02T09:17:17.292Z</time>
      </trkpt>
      <trkpt lat="47.31658" lon="4.92669">
        <ele>304</ele>
        <time>2013-11-02T09:17:20.274Z</time>
      </trkpt>
      <trkpt lat="47.31658" lon="4.92669">
        <ele>304</ele>
        <time>2013-11-02T09:17:22.281Z</time>
      </trkpt>
      <trkpt lat="47.31658" lon="4.92669">
        <ele>304</ele>
        <time>2013-11-02T09:17:32.277Z</time>
      </trkpt>
      <trkpt lat="47.31663" lon="4.92675">
        <ele>304</ele>
        <time>2013-11-02T09:17:35.271Z</time>
      </trkpt>
      <trkpt lat="47.31665" lon="4.92681">
        <ele>304</ele>
        <time>2013-11-02T09:17:39.284Z</time>
      </trkpt>
      <trkpt lat="47.31665" lon="4.9268">
        <ele>304</ele>
        <time>2013-11-02T09:17:42.269Z</time>
      </trkpt>
      <trkpt lat="47.31666" lon="4.9268">
        <ele>304</ele>
        <time>2013-11-02T09:17:44.297Z</time>
      </trkpt>
      <trkpt lat="47.31675" lon="4.9268">
        <ele>300</ele>
        <time>2013-11-02T09:17:54.295Z</time>
      </trkpt>
      <trkpt lat="47.31676" lon="4.9268">
        <ele>300</ele>
        <time>2013-11-02T09:17:56.297Z</time>
      </trkpt>
      <trkpt lat="47.31675" lon="4.9268">
        <ele>300</ele>
        <time>2013-11-02T09:17:59.304Z</time>
      </trkpt>
      <trkpt lat="47.31679" lon="4.92685">
        <ele>299</ele>
        <time>2013-11-02T09:18:02.282Z</time>
      </trkpt>
      <trkpt lat="47.31679" lon="4.92685">
        <ele>299</ele>
        <time>2013-11-02T09:18:05.276Z</time>
      </trkpt>
      <trkpt lat="47.31679" lon="4.92685">
        <ele>299</ele>
        <time>2013-11-02T09:18:07.289Z</time>
      </trkpt>
      <trkpt lat="47.31679" lon="4.92685">
        <ele>299</ele>
        <time>2013-11-02T09:18:13.292Z</time>
      </trkpt>
      <trkpt lat="47.31684" lon="4.92685">
        <ele>299</ele>
        <time>2013-11-02T09:18:16.296Z</time>
      </trkpt>
      <trkpt lat="47.31686" lon="4.92684">
        <ele>299</ele>
        <time>2013-11-02T09:18:19.287Z</time>
      </trkpt>
      <trkpt lat="47.31686" lon="4.92684">
        <ele>299</ele>
        <time>2013-11-02T09:18:21.309Z</time>
      </trkpt>
      <trkpt lat="47.31685" lon="4.92684">
        <ele>299</ele>
        <time>2013-11-02T09:18:37.287Z</time>
      </trkpt>
      <trkpt lat="47.31688" lon="4.92681">
        <ele>299</ele>
        <time>2013-11-02T09:18:39.291Z</time>
      </trkpt>
      <trkpt lat="47.31689" lon="4.92679">
        <ele>299</ele>
        <time>2013-11-02T09:18:42.272Z</time>
      </trkpt>
      <trkpt lat="47.31689" lon="4.9268">
        <ele>299</ele>
        <time>2013-11-02T09:18:44.285Z</time>
      </trkpt>
      <trkpt lat="47.31689" lon="4.9268">
        <ele>299</ele>
        <time>2013-11-02T09:19:02.287Z</time>
      </trkpt>
      <trkpt lat="47.31705" lon="4.92678">
        <ele>298</ele>
        <time>2013-11-02T09:19:05.275Z</time>
      </trkpt>
      <trkpt lat="47.31712" lon="4.92678">
        <ele>297</ele>
        <time>2013-11-02T09:19:07.279Z</time>
      </trkpt>
      <trkpt lat="47.31717" lon="4.92679">
        <ele>297</ele>
        <time>2013-11-02T09:19:10.273Z</time>
      </trkpt>
      <trkpt lat="47.31716" lon="4.92679">
        <ele>297</ele>
        <time>2013-11-02T09:19:13.281Z</time>
      </trkpt>
      <trkpt lat="47.31716" lon="4.92679">
        <ele>297</ele>
        <time>2013-11-02T09:19:26.316Z</time>
      </trkpt>
      <trkpt lat="47.31722" lon="4.92678">
        <ele>296</ele>
        <time>2013-11-02T09:19:29.296Z</time>
      </trkpt>
      <trkpt lat="47.31724" lon="4.92678">
        <ele>296</ele>
        <time>2013-11-02T09:19:32.287Z</time>
      </trkpt>
      <trkpt lat="47.31723" lon="4.92678">
        <ele>296</ele>
        <time>2013-11-02T09:19:35.273Z</time>
      </trkpt>
      <trkpt lat="47.31723" lon="4.92678">
        <ele>296</ele>
        <time>2013-11-02T09:19:47.286Z</time>
      </trkpt>
      <trkpt lat="47.31726" lon="4.92679">
        <ele>296</ele>
        <time>2013-11-02T09:19:50.333Z</time>
      </trkpt>
      <trkpt lat="47.31734" lon="4.92679">
        <ele>296</ele>
        <time>2013-11-02T09:19:55.317Z</time>
      </trkpt>
      <trkpt lat="47.31733" lon="4.92679">
        <ele>296</ele>
        <time>2013-11-02T09:19:58.282Z</time>
      </trkpt>
      <trkpt lat="47.31733" lon="4.92679">
        <ele>296</ele>
        <time>2013-11-02T09:20:01.257Z</time>
      </trkpt>
      <trkpt lat="47.31738" lon="4.92677">
        <ele>295</ele>
        <time>2013-11-02T09:20:03.284Z</time>
      </trkpt>
      <trkpt lat="47.31742" lon="4.92676">
        <ele>295</ele>
        <time>2013-11-02T09:20:05.291Z</time>
      </trkpt>
      <trkpt lat="47.31742" lon="4.92677">
        <ele>295</ele>
        <time>2013-11-02T09:20:08.298Z</time>
      </trkpt>
      <trkpt lat="47.31748" lon="4.92674">
        <ele>295</ele>
        <time>2013-11-02T09:20:11.291Z</time>
      </trkpt>
      <trkpt lat="47.31747" lon="4.92674">
        <ele>295</ele>
        <time>2013-11-02T09:20:13.295Z</time>
      </trkpt>
      <trkpt lat="47.31747" lon="4.92674">
        <ele>295</ele>
        <time>2013-11-02T09:20:15.303Z</time>
      </trkpt>
      <trkpt lat="47.31747" lon="4.92674">
        <ele>295</ele>
        <time>2013-11-02T09:20:28.299Z</time>
      </trkpt>
      <trkpt lat="47.31758" lon="4.9267">
        <ele>292</ele>
        <time>2013-11-02T09:20:31.281Z</time>
      </trkpt>
      <trkpt lat="47.31761" lon="4.9267">
        <ele>291</ele>
        <time>2013-11-02T09:20:34.269Z</time>
      </trkpt>
      <trkpt lat="47.3176" lon="4.9267">
        <ele>291</ele>
        <time>2013-11-02T09:20:36.268Z</time>
      </trkpt>
      <trkpt lat="47.3176" lon="4.9267">
        <ele>291</ele>
        <time>2013-11-02T09:20:45.286Z</time>
      </trkpt>
      <trkpt lat="47.31763" lon="4.92669">
        <ele>291</ele>
        <time>2013-11-02T09:20:47.298Z</time>
      </trkpt>
      <trkpt lat="47.31771" lon="4.92668">
        <ele>289</ele>
        <time>2013-11-02T09:20:54.287Z</time>
      </trkpt>
      <trkpt lat="47.31773" lon="4.92667">
        <ele>289</ele>
        <time>2013-11-02T09:20:56.296Z</time>
      </trkpt>
      <trkpt lat="47.31772" lon="4.92667">
        <ele>289</ele>
        <time>2013-11-02T09:20:59.292Z</time>
      </trkpt>
      <trkpt lat="47.31772" lon="4.92667">
        <ele>289</ele>
        <time>2013-11-02T09:21:32.294Z</time>
      </trkpt>
      <trkpt lat="47.31779" lon="4.92666">
        <ele>290</ele>
        <time>2013-11-02T09:21:35.257Z</time>
      </trkpt>
      <trkpt lat="47.3178" lon="4.92666">
        <ele>290</ele>
        <time>2013-11-02T09:21:37.283Z</time>
      </trkpt>
      <trkpt lat="47.3178" lon="4.92666">
        <ele>290</ele>
        <time>2013-11-02T09:21:39.287Z</time>
      </trkpt>
      <trkpt lat="47.3178" lon="4.92666">
        <ele>290</ele>
        <time>2013-11-02T09:21:53.306Z</time>
      </trkpt>
      <trkpt lat="47.31785" lon="4.92665">
        <ele>289</ele>
        <time>2013-11-02T09:21:56.312Z</time>
      </trkpt>
      <trkpt lat="47.31785" lon="4.92665">
        <ele>289</ele>
        <time>2013-11-02T09:21:59.299Z</time>
      </trkpt>
      <trkpt lat="47.31785" lon="4.92665">
        <ele>289</ele>
        <time>2013-11-02T09:22:02.304Z</time>
      </trkpt>
      <trkpt lat="47.31786" lon="4.92665">
        <ele>289</ele>
        <time>2013-11-02T09:22:05.283Z</time>
      </trkpt>
      <trkpt lat="47.31791" lon="4.9267">
        <ele>286</ele>
        <time>2013-11-02T09:22:11.297Z</time>
      </trkpt>
      <trkpt lat="47.31791" lon="4.9267">
        <ele>286</ele>
        <time>2013-11-02T09:22:14.297Z</time>
      </trkpt>
      <trkpt lat="47.31791" lon="4.9267">
        <ele>286</ele>
        <time>2013-11-02T09:22:18.326Z</time>
      </trkpt>
      <trkpt lat="47.31794" lon="4.92671">
        <ele>286</ele>
        <time>2013-11-02T09:22:21.339Z</time>
      </trkpt>
      <trkpt lat="47.31796" lon="4.92673">
        <ele>285</ele>
        <time>2013-11-02T09:22:25.308Z</time>
      </trkpt>
      <trkpt lat="47.31796" lon="4.92673">
        <ele>285</ele>
        <time>2013-11-02T09:22:27.318Z</time>
      </trkpt>
      <trkpt lat="47.31796" lon="4.92673">
        <ele>285</ele>
        <time>2013-11-02T09:23:05.282Z</time>
      </trkpt>
      <trkpt lat="47.31801" lon="4.92675">
        <ele>285</ele>
        <time>2013-11-02T09:23:08.278Z</time>
      </trkpt>
      <trkpt lat="47.31802" lon="4.92675">
        <ele>284</ele>
        <time>2013-11-02T09:23:11.256Z</time>
      </trkpt>
    </trkseg>
  </trk>
</gpx>